[[{"header":{"parameterUnit":"m.s-1","parameterCategory":1,"la1":31.0,"la2":29.5877,"lo1":-88.7671,"lo2":-86.6584,"dy":0.0162,"dx":0.0185,"nx":115,"ny":88,"refTime":"2024-06-24T18:00:00:Z","depth":0,"parameterNumber":2,"parameterNumberName":"U-component_of_WINDS"},"data":[0.0,0.0,0.0,0.0,0.0,0.0,0.0,0.0,0.0,0.0,0.0,0.0,0.0,0.0,0.0,0.0,0.0,0.0,0.0,0.0,0.0,0.0,0.0,0.0,0.0,0.0,0.0,0.0,0.0,0.0,0.0,0.0,0.0,0.0,0.0,0.0,0.0,0.0,0.0,0.0,0.0,0.0,0.0,0.0,0.0,0.0,0.0,0.0,0.0,0.0,0.0,0.0,0.0,0.0,0.0,0.0,0.0,0.0,0.0,0.0,0.0,0.0,0.0,0.0,0.0,0.0,0.0,0.0,0.0,0.0,0.0,0.0,0.0,0.0,0.0,0.0,0.0,0.0,0.0,0.0,0.0,0.0,0.0,0.0,0.0,0.0,0.0,0.0,0.0,0.0,0.0,0.0,0.0,0.0,0.0,0.0,0.0,0.0,0.0,0.0,0.0,0.0,0.0,0.0,0.0,0.0,0.0,0.0,0.0,0.0,0.0,0.0,0.0,0.0,0.0,0.0,0.0,0.0,0.0,0.0,0.0,0.0,0.0,0.0,0.0,0.0,0.0,0.0,0.0,0.0,0.0,0.0,0.0,0.0,0.0,0.0,0.0,0.0,0.0,0.0,0.0,0.0,0.0,0.0,0.0,0.0,0.0,0.0,0.0,0.0,0.0,0.0,0.0,0.0,0.0,0.0,0.0,0.0,0.0,0.0,0.0,0.0,0.0,0.0,0.0,0.0,0.0,0.0,0.0,0.0,0.0,0.0,0.0,0.0,0.0,0.0,0.0,0.0,0.0,0.0,0.0,0.0,0.0,0.0,0.0,0.0,0.0,0.0,0.0,0.0,0.0,0.0,0.0,0.0,0.0,0.0,0.0,0.0,0.0,0.0,0.0,0.0,0.0,0.0,0.0,0.0,0.0,0.0,0.0,0.0,0.0,0.0,0.0,0.0,0.0,0.0,0.0,0.0,0.0,0.0,0.0,0.0,0.0,0.0,0.0,0.0,0.0,0.0,0.0,0.0,0.0,0.0,0.0,0.0,0.0,0.0,0.0,0.0,0.0,0.0,0.0,0.0,0.0,0.0,0.0,0.0,0.0,0.0,0.0,0.0,0.0,0.0,0.0,0.0,0.0,0.0,0.0,0.0,0.0,0.0,0.0,0.0,0.0,0.0,0.0,0.0,0.0,0.0,0.0,0.0,0.0,0.0,0.0,0.0,0.0,0.0,0.0,0.0,0.0,0.0,0.0,0.0,0.0,0.0,0.0,0.0,0.0,0.0,0.0,0.0,0.0,0.0,0.0,0.0,0.0,0.0,0.0,0.0,0.0,0.0,0.0,0.0,0.0,0.0,0.0,0.0,0.0,0.0,0.0,0.0,0.0,0.0,0.0,0.0,0.0,0.0,0.0,0.0,0.0,0.0,0.0,0.0,0.0,0.0,0.0,0.0,0.0,0.0,0.0,0.0,0.0,0.0,0.0,0.0,0.0,0.0,0.0,0.0,0.0,0.0,0.0,0.0,0.0,0.0,0.0,0.0,0.0,0.0,0.0,0.0,0.0,0.0,0.0,0.0,0.0,0.0,0.0,0.0,0.0,0.0,0.0,0.0,0.0,0.0,0.0,0.0,0.0,0.0,0.0,0.0,0.0,0.0,0.0,0.0,0.0,0.0,0.0,0.0,0.0,0.0,0.0,0.0,0.0,0.0,0.0,0.0,0.0,0.0,0.0,0.0,0.0,0.0,0.0,0.0,0.0,0.0,0.0,0.0,0.0,0.0,0.0,0.0,0.0,0.0,0.0,0.0,0.0,0.0,0.0,0.0,0.0,0.0,0.0,0.0,0.0,0.0,0.0,0.0,0.0,0.0,0.0,0.0,0.0,0.0,0.0,0.0,0.0,0.0,0.0,0.0,0.0,0.0,0.0,0.0,0.0,0.0,0.0,0.0,0.0,0.0,0.0,0.0,0.0,0.0,0.0,0.0,0.0,0.0,0.0,0.0,0.0,0.0,0.0,0.0,0.0,0.0,0.0,0.0,0.0,0.0,0.0,0.0,0.0,0.0,0.0,0.0,0.0,0.0,0.0,0.0,0.0,0.0,0.0,0.0,0.0,0.0,0.0,0.0,0.0,0.0,0.0,0.0,0.0,0.0,0.0,0.0,0.0,0.0,0.0,0.0,0.0,0.0,0.0,0.0,0.0,0.0,0.0,0.0,0.0,0.0,0.0,0.0,0.0,0.0,0.0,0.0,0.0,0.0,0.0,0.0,0.0,0.0,0.0,0.0,0.0,0.0,0.0,0.0,0.0,0.0,0.0,0.0,0.0,0.0,0.0,0.0,0.0,0.0,0.0,0.0,0.0,0.0,0.0,0.0,0.0,0.0,0.0,0.0,0.0,0.0,0.0,0.0,0.0,0.0,0.0,0.0,0.0,0.0,0.0,0.0,0.0,0.0,0.0,0.0,0.0,0.0,0.0,0.0,0.0,0.0,0.0,0.0,0.0,0.0,0.0,0.0,0.0,0.0,0.0,0.0,0.0,0.0,0.0,0.0,0.0,0.0,0.0,0.0,0.0,0.0,0.0,0.0,0.0,0.0,0.0,0.0,0.0,0.0,0.0,0.0,0.0,0.0,0.0,0.0,0.0,0.0,0.0,0.0,0.0,0.0,0.0,0.0,0.0,0.0,0.0,0.0,0.0,0.0,0.0,0.0,0.0,0.0,0.0,0.0,0.0,0.0,0.0,0.0,0.0,0.0,0.0,0.0,0.0,0.0,0.0,0.0,0.0,0.0,0.0,0.0,0.0,0.0,0.0,0.0,0.0,0.0,0.0,0.0,0.0,0.0,0.0,0.0,0.0,0.0,0.0,0.0,0.0,0.0,0.0,0.0,0.0,0.0,0.0,0.0,0.0,0.0,0.0,0.0,0.0,0.0,0.0,0.0,0.0,0.0,0.0,0.0,0.0,0.0,0.0,0.0,0.0,0.0,0.0,0.0,0.0,0.0,0.0,0.0,0.0,0.0,0.0,0.0,0.0,0.0,0.0,0.0,0.0,0.0,0.0,0.0,0.0,0.0,0.0,0.0,0.0,0.0,0.0,0.0,0.0,0.0,0.0,0.0,0.0,0.0,0.0,0.0,0.0,0.0,0.0,0.0,0.0,0.0,0.0,0.0,0.0,0.0,0.0,0.0,0.0,0.0,0.0,0.0,0.0,0.0,0.0,0.0,0.0,0.0,0.0,0.0,0.0,0.0,0.0,0.0,0.0,0.0,0.0,0.0,0.0,0.0,0.0,0.0,0.0,0.0,0.0,0.0,0.0,0.0,0.0,0.0,0.0,0.0,0.0,0.0,0.0,0.0,0.0,0.0,0.0,0.0,0.0,0.0,0.0,0.0,0.0,0.0,0.0,0.0,0.0,0.0,0.0,0.0,0.0,0.0,0.0,0.0,0.0,0.0,0.0,0.0,0.0,0.0,0.0,0.0,0.0,0.0,0.0,0.0,0.0,0.0,0.0,0.0,0.0,0.0,0.0,0.0,0.0,0.0,0.0,0.0,0.0,0.0,0.0,0.0,0.0,0.0,0.0,0.0,0.0,0.0,0.0,0.0,0.0,0.0,0.0,0.0,0.0,0.0,0.0,0.0,0.0,0.0,0.0,0.0,0.0,0.0,0.0,0.0,0.0,0.0,0.0,0.0,0.0,0.0,0.0,0.0,0.0,0.0,0.0,0.0,0.0,0.0,0.0,0.0,0.0,0.0,0.0,0.0,0.0,0.0,0.0,0.0,0.0,0.0,0.0,0.0,0.0,0.0,0.0,0.0,0.0,0.0,0.0,0.0,0.0,0.0,0.0,0.0,0.0,0.0,0.0,0.0,0.0,0.0,0.0,0.0,0.0,0.0,0.0,0.0,0.0,0.0,0.0,0.0,0.0,0.0,0.0,0.0,0.0,0.0,0.0,0.0,0.0,0.0,0.0,0.0,0.0,0.0,0.0,0.0,0.0,0.0,0.0,0.0,0.0,0.0,0.0,0.0,0.0,0.0,0.0,0.0,0.0,0.0,0.0,0.0,0.0,0.0,0.0,0.0,0.0,0.0,0.0,0.0,0.0,0.0,0.0,0.0,0.0,0.0,0.0,0.0,0.0,0.0,0.0,0.0,0.0,0.0,0.0,0.0,0.0,0.0,0.0,0.0,0.0,0.0,0.0,0.0,0.0,0.0,0.0,0.0,0.0,0.0,0.0,0.0,0.0,0.0,0.0,0.0,0.0,0.0,0.0,0.0,0.0,0.0,-3.1048,0.0,0.0,0.0,0.0,0.0,0.0,0.0,0.0,0.0,0.0,0.0,0.0,0.0,0.0,0.0,0.0,0.0,0.0,0.0,0.0,0.0,0.0,0.0,0.0,0.0,0.0,0.0,0.0,0.0,0.0,0.0,0.0,0.0,0.0,0.0,0.0,0.0,0.0,0.0,0.0,0.0,0.0,0.0,0.0,0.0,0.0,0.0,0.0,0.0,0.0,0.0,0.0,0.0,0.0,0.0,0.0,0.0,0.0,0.0,0.0,0.0,0.0,0.0,0.0,0.0,0.0,0.0,0.0,0.0,0.0,0.0,0.0,0.0,0.0,0.0,0.0,0.0,0.0,0.0,0.0,0.0,0.0,0.0,0.0,0.0,0.0,0.0,0.0,0.0,0.0,0.0,0.0,0.0,0.0,0.0,0.0,0.0,0.0,0.0,0.0,0.0,0.0,0.0,0.0,0.0,0.0,0.0,0.0,0.0,0.0,-3.3807,-3.3788,-3.2228,-3.1403,-3.1347,0.0,0.0,0.0,0.0,0.0,0.0,0.0,0.0,0.0,0.0,0.0,0.0,0.0,0.0,0.0,0.0,0.0,0.0,0.0,0.0,0.0,0.0,0.0,0.0,0.0,0.0,0.0,0.0,0.0,0.0,0.0,0.0,0.0,0.0,0.0,0.0,0.0,0.0,0.0,0.0,0.0,0.0,0.0,0.0,0.0,0.0,0.0,0.0,0.0,0.0,0.0,0.0,0.0,0.0,0.0,0.0,0.0,0.0,0.0,0.0,0.0,0.0,0.0,0.0,0.0,0.0,0.0,0.0,0.0,0.0,0.0,0.0,0.0,0.0,0.0,0.0,0.0,0.0,0.0,0.0,0.0,0.0,0.0,0.0,0.0,0.0,0.0,0.0,0.0,0.0,0.0,0.0,0.0,0.0,0.0,0.0,0.0,0.0,0.0,0.0,0.0,0.0,0.0,0.0,0.0,0.0,0.0,0.0,0.0,0.0,0.0,0.0,-3.2981,-3.1953,-3.1397,0.0,0.0,0.0,0.0,0.0,0.0,0.0,0.0,0.0,0.0,0.0,0.0,0.0,0.0,0.0,0.0,0.0,0.0,0.0,0.0,0.0,0.0,0.0,0.0,0.0,0.0,0.0,0.0,0.0,0.0,0.0,0.0,0.0,0.0,0.0,0.0,0.0,0.0,0.0,0.0,0.0,0.0,0.0,0.0,0.0,0.0,0.0,0.0,0.0,0.0,0.0,0.0,0.0,0.0,0.0,0.0,0.0,0.0,0.0,0.0,0.0,0.0,0.0,0.0,0.0,0.0,0.0,0.0,0.0,0.0,0.0,0.0,0.0,0.0,0.0,0.0,0.0,0.0,0.0,0.0,0.0,0.0,0.0,0.0,0.0,0.0,0.0,0.0,0.0,0.0,0.0,0.0,0.0,0.0,0.0,0.0,0.0,0.0,0.0,0.0,0.0,0.0,0.0,0.0,0.0,0.0,0.0,0.0,0.0,0.0,-3.4523,-3.6009,-3.5133,0.0,-3.1586,0.0,0.0,0.0,0.0,0.0,0.0,0.0,0.0,0.0,0.0,0.0,0.0,0.0,0.0,0.0,0.0,0.0,0.0,0.0,0.0,0.0,0.0,0.0,0.0,0.0,0.0,0.0,0.0,0.0,0.0,0.0,0.0,0.0,0.0,0.0,0.0,0.0,0.0,0.0,0.0,0.0,0.0,0.0,0.0,0.0,0.0,0.0,0.0,0.0,0.0,0.0,0.0,0.0,0.0,0.0,0.0,0.0,0.0,0.0,0.0,0.0,0.0,0.0,0.0,0.0,0.0,0.0,0.0,0.0,0.0,0.0,0.0,0.0,0.0,0.0,0.0,0.0,0.0,0.0,0.0,0.0,0.0,0.0,0.0,0.0,0.0,0.0,0.0,0.0,0.0,0.0,0.0,0.0,0.0,0.0,0.0,0.0,0.0,0.0,0.0,0.0,0.0,0.0,0.0,0.0,0.0,0.0,0.0,0.0,0.0,-3.5078,-3.6266,-3.4541,-3.2894,0.0,0.0,0.0,0.0,0.0,0.0,0.0,0.0,0.0,0.0,0.0,0.0,0.0,0.0,0.0,0.0,0.0,0.0,0.0,0.0,0.0,0.0,0.0,0.0,0.0,0.0,0.0,0.0,0.0,0.0,0.0,0.0,0.0,0.0,0.0,0.0,0.0,0.0,0.0,0.0,0.0,0.0,0.0,0.0,0.0,0.0,0.0,0.0,0.0,0.0,0.0,0.0,0.0,0.0,0.0,0.0,0.0,0.0,0.0,0.0,0.0,0.0,0.0,0.0,0.0,0.0,0.0,0.0,0.0,0.0,0.0,0.0,0.0,0.0,0.0,0.0,0.0,0.0,0.0,0.0,0.0,0.0,0.0,0.0,0.0,0.0,0.0,0.0,0.0,0.0,0.0,0.0,0.0,0.0,0.0,0.0,0.0,0.0,0.0,0.0,0.0,0.0,0.0,0.0,0.0,0.0,0.0,0.0,0.0,0.0,-3.4637,0.0,-3.6486,-3.511,-3.3293,-3.1127,0.0,0.0,0.0,0.0,0.0,0.0,0.0,0.0,0.0,0.0,0.0,0.0,0.0,0.0,0.0,0.0,0.0,0.0,0.0,0.0,0.0,0.0,0.0,0.0,0.0,0.0,0.0,0.0,0.0,0.0,0.0,0.0,0.0,0.0,0.0,0.0,0.0,0.0,0.0,0.0,0.0,0.0,0.0,0.0,0.0,0.0,0.0,0.0,0.0,0.0,0.0,0.0,0.0,0.0,0.0,0.0,0.0,0.0,0.0,0.0,0.0,0.0,0.0,0.0,0.0,0.0,0.0,0.0,0.0,0.0,0.0,0.0,0.0,0.0,0.0,0.0,0.0,0.0,0.0,0.0,0.0,0.0,0.0,0.0,0.0,0.0,0.0,0.0,0.0,0.0,0.0,0.0,0.0,0.0,0.0,0.0,0.0,0.0,0.0,0.0,0.0,0.0,0.0,0.0,0.0,0.0,0.0,0.0,0.0,-3.5738,-3.5789,-3.7437,-3.8046,-3.5862,0.0,0.0,0.0,0.0,0.0,0.0,0.0,0.0,0.0,0.0,0.0,0.0,0.0,0.0,0.0,0.0,0.0,0.0,0.0,0.0,0.0,0.0,0.0,0.0,0.0,0.0,0.0,0.0,0.0,0.0,0.0,0.0,0.0,0.0,0.0,0.0,0.0,0.0,0.0,0.0,0.0,0.0,0.0,0.0,0.0,0.0,0.0,0.0,0.0,0.0,0.0,0.0,0.0,0.0,0.0,0.0,0.0,0.0,0.0,0.0,0.0,0.0,0.0,0.0,0.0,0.0,0.0,0.0,0.0,0.0,0.0,0.0,0.0,0.0,0.0,0.0,0.0,0.0,0.0,0.0,0.0,0.0,0.0,0.0,0.0,0.0,0.0,0.0,0.0,0.0,0.0,0.0,0.0,0.0,0.0,0.0,0.0,0.0,0.0,0.0,0.0,0.0,0.0,0.0,0.0,0.0,0.0,0.0,0.0,-3.2742,-3.4234,-3.6564,-3.9515,-3.6083,-3.3532,0.0,0.0,0.0,0.0,0.0,0.0,0.0,0.0,0.0,0.0,0.0,0.0,0.0,0.0,0.0,0.0,0.0,0.0,0.0,0.0,0.0,0.0,0.0,0.0,0.0,0.0,0.0,0.0,0.0,0.0,0.0,0.0,0.0,0.0,0.0,0.0,0.0,0.0,0.0,0.0,0.0,0.0,0.0,0.0,0.0,0.0,0.0,0.0,0.0,0.0,0.0,0.0,0.0,0.0,0.0,0.0,0.0,0.0,0.0,0.0,0.0,0.0,0.0,0.0,0.0,0.0,0.0,0.0,0.0,0.0,0.0,0.0,0.0,0.0,0.0,0.0,0.0,0.0,0.0,0.0,0.0,0.0,0.0,0.0,0.0,0.0,0.0,0.0,0.0,0.0,0.0,0.0,0.0,0.0,0.0,0.0,0.0,0.0,0.0,0.0,0.0,0.0,0.0,0.0,0.0,0.0,0.0,0.0,0.0,-3.2173,0.0,-3.783,0.0,-3.5312,-3.2535,0.0,0.0,0.0,0.0,0.0,0.0,0.0,0.0,0.0,0.0,0.0,0.0,0.0,0.0,0.0,0.0,0.0,0.0,0.0,0.0,0.0,0.0,0.0,0.0,0.0,0.0,0.0,0.0,0.0,0.0,0.0,0.0,0.0,0.0,0.0,0.0,0.0,0.0,0.0,0.0,0.0,0.0,0.0,0.0,0.0,0.0,0.0,0.0,0.0,0.0,0.0,0.0,0.0,0.0,0.0,0.0,0.0,0.0,0.0,0.0,0.0,0.0,0.0,0.0,0.0,0.0,0.0,0.0,0.0,0.0,0.0,0.0,0.0,0.0,0.0,0.0,0.0,0.0,0.0,0.0,0.0,0.0,0.0,0.0,0.0,0.0,0.0,0.0,0.0,0.0,0.0,0.0,0.0,0.0,0.0,0.0,0.0,0.0,0.0,0.0,0.0,0.0,0.0,0.0,0.0,0.0,0.0,0.0,-3.1445,-3.6064,-3.9187,-3.9405,-3.6541,-3.6193,-3.3201,0.0,0.0,0.0,0.0,0.0,0.0,0.0,0.0,0.0,0.0,0.0,0.0,0.0,0.0,0.0,0.0,0.0,0.0,0.0,0.0,0.0,0.0,0.0,0.0,0.0,0.0,0.0,0.0,0.0,0.0,0.0,0.0,0.0,0.0,0.0,0.0,0.0,0.0,0.0,0.0,0.0,0.0,0.0,0.0,0.0,0.0,0.0,0.0,0.0,0.0,0.0,0.0,0.0,0.0,0.0,0.0,0.0,0.0,0.0,0.0,0.0,0.0,0.0,0.0,0.0,0.0,0.0,0.0,0.0,0.0,0.0,0.0,0.0,0.0,0.0,0.0,0.0,0.0,0.0,0.0,0.0,0.0,0.0,0.0,0.0,0.0,0.0,0.0,0.0,0.0,0.0,0.0,0.0,0.0,0.0,0.0,0.0,0.0,0.0,0.0,0.0,0.0,0.0,0.0,0.0,0.0,0.0,0.0,0.0,-3.5389,-3.6964,-3.8652,-4.0175,-3.5546,-3.3036,0.0,0.0,0.0,0.0,0.0,0.0,0.0,0.0,0.0,0.0,0.0,0.0,0.0,0.0,0.0,0.0,0.0,0.0,0.0,0.0,0.0,0.0,0.0,0.0,0.0,0.0,0.0,0.0,0.0,0.0,0.0,0.0,0.0,0.0,0.0,0.0,0.0,0.0,0.0,0.0,0.0,0.0,0.0,0.0,0.0,0.0,0.0,0.0,0.0,0.0,0.0,0.0,0.0,0.0,0.0,0.0,0.0,0.0,0.0,0.0,0.0,0.0,0.0,0.0,0.0,0.0,0.0,0.0,0.0,0.0,0.0,0.0,0.0,0.0,0.0,0.0,0.0,0.0,0.0,0.0,0.0,0.0,0.0,0.0,0.0,0.0,0.0,0.0,0.0,0.0,0.0,0.0,0.0,0.0,0.0,0.0,0.0,0.0,0.0,0.0,0.0,0.0,0.0,0.0,0.0,0.0,0.0,0.0,0.0,-3.7211,-3.858,-3.9951,-4.1337,-3.63,-3.3716,-3.384,0.0,0.0,0.0,0.0,0.0,0.0,0.0,0.0,0.0,0.0,0.0,0.0,0.0,0.0,0.0,0.0,0.0,0.0,0.0,0.0,0.0,0.0,0.0,0.0,0.0,0.0,0.0,0.0,0.0,0.0,0.0,0.0,0.0,0.0,0.0,0.0,0.0,0.0,0.0,0.0,0.0,0.0,0.0,0.0,0.0,0.0,0.0,0.0,0.0,0.0,0.0,0.0,0.0,0.0,0.0,0.0,0.0,0.0,0.0,0.0,0.0,0.0,0.0,0.0,0.0,0.0,0.0,0.0,0.0,0.0,0.0,0.0,0.0,0.0,0.0,0.0,0.0,0.0,0.0,0.0,0.0,0.0,0.0,0.0,0.0,0.0,0.0,0.0,0.0,0.0,0.0,0.0,0.0,0.0,0.0,0.0,0.0,0.0,0.0,0.0,0.0,0.0,0.0,0.0,0.0,0.0,0.0,0.0,-4.0775,-4.3178,-4.3014,-4.0253,-3.823,-3.5126,0.0,0.0,0.0,0.0,0.0,0.0,0.0,0.0,0.0,0.0,0.0,0.0,0.0,0.0,0.0,0.0,0.0,0.0,0.0,0.0,0.0,0.0,0.0,0.0,0.0,0.0,0.0,0.0,0.0,0.0,0.0,0.0,0.0,0.0,0.0,0.0,0.0,0.0,0.0,0.0,0.0,0.0,0.0,0.0,0.0,0.0,0.0,0.0,0.0,0.0,0.0,0.0,0.0,0.0,0.0,0.0,0.0,0.0,0.0,0.0,0.0,0.0,0.0,0.0,0.0,0.0,0.0,0.0,0.0,0.0,0.0,0.0,0.0,0.0,0.0,0.0,0.0,0.0,0.0,0.0,0.0,0.0,0.0,0.0,0.0,0.0,0.0,0.0,0.0,0.0,0.0,0.0,0.0,0.0,0.0,0.0,0.0,0.0,0.0,0.0,0.0,0.0,0.0,0.0,0.0,0.0,0.0,0.0,0.0,-4.0703,-4.3365,-4.4389,-4.3489,-3.9262,-3.6232,0.0,0.0,0.0,0.0,0.0,0.0,0.0,0.0,0.0,0.0,0.0,0.0,0.0,0.0,0.0,0.0,0.0,0.0,0.0,0.0,0.0,0.0,0.0,0.0,0.0,0.0,0.0,0.0,0.0,0.0,0.0,0.0,0.0,0.0,0.0,0.0,0.0,0.0,0.0,0.0,0.0,0.0,0.0,0.0,0.0,0.0,0.0,0.0,0.0,0.0,0.0,0.0,0.0,0.0,0.0,0.0,0.0,0.0,0.0,0.0,0.0,0.0,0.0,0.0,0.0,0.0,0.0,0.0,0.0,0.0,0.0,0.0,0.0,0.0,0.0,0.0,0.0,0.0,0.0,0.0,0.0,0.0,0.0,0.0,0.0,0.0,0.0,0.0,0.0,0.0,0.0,0.0,0.0,0.0,0.0,0.0,0.0,0.0,0.0,0.0,0.0,0.0,0.0,0.0,0.0,0.0,0.0,0.0,-3.8849,-4.1449,-4.3844,-4.49,-4.4615,-4.1161,-3.793,0.0,0.0,0.0,0.0,0.0,0.0,0.0,0.0,0.0,0.0,0.0,0.0,0.0,0.0,0.0,0.0,0.0,0.0,0.0,0.0,0.0,0.0,0.0,0.0,0.0,0.0,0.0,0.0,0.0,0.0,0.0,0.0,0.0,0.0,0.0,0.0,0.0,0.0,0.0,0.0,0.0,0.0,0.0,0.0,0.0,0.0,0.0,0.0,0.0,0.0,0.0,0.0,0.0,0.0,0.0,0.0,0.0,0.0,0.0,0.0,0.0,0.0,0.0,0.0,0.0,0.0,0.0,0.0,0.0,0.0,0.0,0.0,0.0,0.0,0.0,0.0,0.0,0.0,0.0,0.0,0.0,0.0,0.0,0.0,0.0,0.0,0.0,0.0,0.0,0.0,0.0,0.0,0.0,0.0,0.0,0.0,0.0,0.0,0.0,0.0,0.0,0.0,0.0,0.0,0.0,0.0,0.0,0.0,-3.9823,-4.2399,-4.4257,-4.4879,-4.4122,-4.2997,-3.9684,0.0,0.0,0.0,0.0,0.0,0.0,0.0,0.0,0.0,0.0,0.0,0.0,0.0,0.0,0.0,0.0,0.0,0.0,0.0,0.0,0.0,0.0,0.0,0.0,0.0,0.0,0.0,0.0,0.0,0.0,0.0,0.0,0.0,0.0,0.0,0.0,0.0,0.0,0.0,0.0,0.0,0.0,0.0,0.0,0.0,0.0,0.0,0.0,0.0,0.0,0.0,0.0,0.0,0.0,0.0,0.0,0.0,0.0,0.0,0.0,0.0,0.0,0.0,0.0,0.0,0.0,0.0,0.0,0.0,0.0,0.0,0.0,0.0,0.0,0.0,0.0,0.0,0.0,0.0,0.0,0.0,0.0,0.0,0.0,0.0,0.0,0.0,0.0,0.0,0.0,0.0,0.0,0.0,0.0,0.0,0.0,0.0,0.0,0.0,0.0,0.0,0.0,0.0,0.0,0.0,0.0,0.0,0.0,-3.9734,-4.1486,-4.363,-4.4374,-4.3593,-4.1561,-3.8871,0.0,0.0,0.0,0.0,0.0,0.0,0.0,0.0,0.0,0.0,0.0,0.0,0.0,0.0,0.0,0.0,0.0,0.0,0.0,0.0,0.0,0.0,0.0,0.0,0.0,0.0,0.0,0.0,0.0,0.0,0.0,0.0,0.0,0.0,0.0,0.0,0.0,0.0,0.0,0.0,0.0,0.0,0.0,0.0,0.0,0.0,0.0,0.0,-2.9463,0.0,0.0,0.0,0.0,0.0,0.0,0.0,0.0,0.0,0.0,0.0,0.0,0.0,0.0,0.0,0.0,0.0,0.0,0.0,0.0,0.0,0.0,0.0,0.0,0.0,0.0,0.0,0.0,0.0,0.0,0.0,0.0,0.0,0.0,0.0,0.0,0.0,0.0,0.0,0.0,0.0,0.0,0.0,0.0,0.0,0.0,0.0,0.0,0.0,0.0,0.0,0.0,0.0,0.0,0.0,0.0,0.0,0.0,0.0,-4.0392,-4.2219,-4.3758,-4.4384,-4.3893,-4.1733,-3.8835,0.0,0.0,0.0,0.0,0.0,0.0,0.0,0.0,0.0,0.0,0.0,0.0,0.0,0.0,0.0,0.0,0.0,0.0,0.0,0.0,0.0,0.0,0.0,0.0,0.0,0.0,0.0,0.0,0.0,0.0,0.0,0.0,0.0,0.0,0.0,0.0,0.0,0.0,0.0,0.0,0.0,0.0,0.0,0.0,0.0,0.0,0.0,0.0,0.0,0.0,0.0,0.0,0.0,0.0,0.0,0.0,0.0,0.0,0.0,0.0,0.0,0.0,0.0,0.0,0.0,0.0,0.0,0.0,0.0,0.0,0.0,0.0,0.0,0.0,0.0,0.0,0.0,0.0,0.0,0.0,0.0,0.0,0.0,0.0,0.0,0.0,0.0,0.0,0.0,0.0,0.0,0.0,0.0,0.0,0.0,0.0,0.0,0.0,0.0,0.0,0.0,0.0,0.0,0.0,0.0,0.0,0.0,-3.8234,-4.1001,-4.3487,-4.4231,-4.4598,-4.4581,-4.2489,-3.9276,-3.4861,0.0,0.0,0.0,0.0,0.0,0.0,0.0,0.0,0.0,0.0,0.0,0.0,0.0,0.0,0.0,0.0,0.0,0.0,0.0,0.0,0.0,0.0,0.0,0.0,0.0,0.0,0.0,0.0,0.0,0.0,0.0,0.0,0.0,0.0,0.0,0.0,0.0,0.0,-2.615,-2.8704,0.0,0.0,0.0,0.0,0.0,0.0,0.0,0.0,-3.1884,0.0,0.0,0.0,0.0,0.0,0.0,0.0,0.0,0.0,0.0,0.0,0.0,0.0,0.0,0.0,0.0,0.0,0.0,0.0,0.0,0.0,0.0,0.0,0.0,0.0,0.0,0.0,0.0,0.0,0.0,0.0,0.0,0.0,0.0,0.0,0.0,0.0,0.0,0.0,0.0,0.0,0.0,0.0,0.0,0.0,0.0,0.0,0.0,0.0,0.0,0.0,0.0,0.0,0.0,0.0,0.0,-3.8125,-3.8261,-4.024,-4.4293,-4.453,-4.4598,-4.4547,-4.3007,-4.0003,-3.5616,0.0,0.0,0.0,0.0,0.0,0.0,0.0,0.0,0.0,0.0,0.0,0.0,0.0,0.0,0.0,0.0,0.0,0.0,0.0,0.0,0.0,0.0,0.0,0.0,0.0,0.0,0.0,0.0,0.0,0.0,0.0,0.0,0.0,0.0,0.0,0.0,0.0,0.0,0.0,-3.0852,-3.2259,0.0,0.0,0.0,0.0,0.0,0.0,0.0,0.0,-3.2605,0.0,0.0,0.0,0.0,0.0,0.0,0.0,0.0,0.0,0.0,0.0,0.0,0.0,0.0,0.0,0.0,0.0,0.0,0.0,0.0,0.0,0.0,0.0,0.0,0.0,0.0,0.0,0.0,0.0,0.0,0.0,0.0,0.0,0.0,0.0,0.0,0.0,0.0,0.0,0.0,0.0,0.0,0.0,0.0,0.0,0.0,0.0,0.0,0.0,0.0,0.0,0.0,0.0,0.0,0.0,-3.7026,-3.9174,-4.161,-4.4479,-4.4598,-4.4384,-4.3927,-4.1407,-3.8447,0.0,0.0,0.0,0.0,0.0,0.0,0.0,0.0,0.0,0.0,0.0,0.0,0.0,0.0,0.0,0.0,0.0,0.0,0.0,0.0,0.0,0.0,0.0,0.0,0.0,0.0,0.0,0.0,0.0,0.0,0.0,0.0,0.0,0.0,0.0,0.0,0.0,0.0,0.0,0.0,-3.1633,-3.2575,-3.3328,0.0,0.0,0.0,0.0,0.0,0.0,-3.2697,-3.2559,0.0,0.0,0.0,0.0,0.0,0.0,0.0,0.0,0.0,0.0,0.0,0.0,0.0,0.0,0.0,0.0,0.0,0.0,0.0,0.0,0.0,0.0,0.0,0.0,0.0,0.0,0.0,0.0,0.0,0.0,0.0,0.0,0.0,0.0,0.0,0.0,0.0,0.0,0.0,0.0,0.0,0.0,0.0,0.0,0.0,0.0,0.0,0.0,0.0,0.0,0.0,0.0,0.0,0.0,0.0,-3.516,-3.9445,-4.2523,-4.4276,-4.435,-4.4045,-4.3358,-4.0096,-3.7127,0.0,0.0,0.0,0.0,0.0,0.0,0.0,0.0,0.0,0.0,0.0,0.0,0.0,0.0,0.0,0.0,0.0,0.0,0.0,0.0,0.0,0.0,0.0,0.0,0.0,0.0,0.0,0.0,0.0,0.0,0.0,0.0,0.0,0.0,0.0,0.0,0.0,0.0,0.0,0.0,0.0,-3.311,-3.3452,-3.3578,0.0,0.0,0.0,0.0,-3.3991,-3.3595,0.0,0.0,0.0,0.0,0.0,0.0,0.0,0.0,0.0,0.0,0.0,0.0,0.0,0.0,0.0,0.0,0.0,0.0,0.0,0.0,0.0,0.0,0.0,0.0,0.0,0.0,0.0,0.0,0.0,0.0,0.0,0.0,0.0,0.0,0.0,0.0,0.0,0.0,0.0,0.0,0.0,0.0,0.0,0.0,0.0,0.0,0.0,0.0,0.0,0.0,0.0,0.0,0.0,0.0,0.0,0.0,-3.3643,-3.7432,-4.0747,-4.3358,-4.3555,-4.3477,-4.3358,-4.1085,-3.8166,0.0,0.0,0.0,0.0,0.0,0.0,0.0,0.0,0.0,0.0,0.0,0.0,0.0,0.0,0.0,0.0,0.0,0.0,0.0,0.0,0.0,0.0,0.0,0.0,0.0,0.0,0.0,0.0,0.0,0.0,0.0,0.0,0.0,0.0,0.0,0.0,0.0,0.0,0.0,0.0,0.0,-3.479,-3.3646,-3.3999,-3.394,0.0,0.0,-3.4728,-3.3597,-3.4912,0.0,0.0,0.0,0.0,0.0,0.0,0.0,0.0,0.0,0.0,0.0,0.0,0.0,0.0,0.0,0.0,0.0,0.0,0.0,0.0,0.0,0.0,0.0,0.0,0.0,0.0,0.0,0.0,0.0,0.0,0.0,0.0,0.0,0.0,0.0,0.0,0.0,0.0,0.0,0.0,0.0,0.0,0.0,0.0,0.0,0.0,0.0,0.0,0.0,0.0,0.0,0.0,0.0,0.0,0.0,-3.0937,-3.3457,-3.7922,-4.1068,-4.2709,-4.2777,-4.2574,-4.2141,-3.8751,-3.5577,0.0,0.0,0.0,0.0,0.0,0.0,0.0,0.0,0.0,0.0,0.0,0.0,0.0,0.0,0.0,0.0,0.0,0.0,0.0,0.0,0.0,0.0,0.0,0.0,0.0,0.0,0.0,0.0,0.0,0.0,0.0,0.0,0.0,0.0,0.0,0.0,0.0,0.0,0.0,0.0,0.0,0.0,-3.364,-3.4374,0.0,0.0,0.0,-3.4939,-3.3548,0.0,0.0,0.0,0.0,0.0,0.0,0.0,0.0,0.0,0.0,0.0,0.0,0.0,0.0,0.0,0.0,0.0,0.0,0.0,0.0,0.0,0.0,0.0,0.0,0.0,0.0,0.0,0.0,0.0,0.0,0.0,0.0,0.0,0.0,0.0,0.0,0.0,0.0,0.0,0.0,0.0,0.0,0.0,0.0,0.0,0.0,0.0,0.0,0.0,0.0,0.0,0.0,0.0,0.0,0.0,0.0,0.0,-3.3186,-3.8447,-4.1474,-4.1999,-4.2016,-4.1762,-4.1153,-3.7212,0.0,0.0,0.0,0.0,0.0,0.0,0.0,0.0,0.0,0.0,0.0,0.0,0.0,0.0,0.0,0.0,0.0,0.0,0.0,0.0,0.0,0.0,0.0,0.0,0.0,0.0,0.0,-1.8064,0.0,0.0,0.0,0.0,0.0,0.0,0.0,0.0,0.0,0.0,0.0,0.0,0.0,0.0,-3.34,-3.3302,-3.4536,-3.4792,0.0,0.0,-3.4985,-3.3599,-3.3778,-3.3431,0.0,0.0,0.0,0.0,0.0,0.0,0.0,0.0,0.0,0.0,0.0,0.0,0.0,0.0,0.0,0.0,0.0,0.0,0.0,0.0,0.0,0.0,0.0,0.0,0.0,0.0,0.0,0.0,0.0,0.0,0.0,0.0,0.0,0.0,0.0,0.0,0.0,0.0,0.0,0.0,0.0,0.0,0.0,0.0,0.0,0.0,0.0,0.0,0.0,0.0,0.0,0.0,0.0,0.0,0.0,-3.253,-3.8193,-4.1221,-4.1288,-4.1271,-4.1255,-4.1153,-3.8227,-3.5554,0.0,0.0,0.0,0.0,0.0,0.0,0.0,0.0,0.0,0.0,0.0,0.0,0.0,0.0,0.0,0.0,0.0,0.0,0.0,0.0,0.0,0.0,0.0,0.0,0.0,0.0,0.0,0.0,0.0,0.0,0.0,0.0,0.0,0.0,0.0,0.0,0.0,0.0,0.0,0.0,0.0,-3.3262,-3.2566,-3.42,-3.5014,0.0,0.0,-3.5145,-3.364,-3.4672,-3.4648,-3.177,0.0,0.0,0.0,0.0,0.0,0.0,0.0,0.0,0.0,0.0,0.0,0.0,0.0,0.0,0.0,0.0,0.0,0.0,0.0,0.0,0.0,0.0,0.0,0.0,0.0,0.0,0.0,0.0,0.0,0.0,0.0,0.0,0.0,0.0,0.0,0.0,0.0,0.0,0.0,0.0,0.0,0.0,0.0,0.0,0.0,0.0,0.0,0.0,0.0,0.0,0.0,0.0,0.0,-3.1565,-3.2344,-3.7702,-4.0536,-4.0536,-4.051,-4.0536,-4.051,-3.8099,-3.5284,0.0,0.0,0.0,0.0,0.0,0.0,0.0,0.0,0.0,0.0,0.0,0.0,0.0,0.0,0.0,0.0,0.0,0.0,0.0,0.0,0.0,0.0,0.0,0.0,0.0,0.0,0.0,0.0,-1.9512,-1.9772,-2.0496,0.0,0.0,0.0,0.0,0.0,0.0,0.0,0.0,0.0,0.0,-3.3342,-3.3123,-3.4382,0.0,0.0,-3.4634,-3.4849,-3.312,-3.3719,-3.3569,-3.1186,-3.1119,0.0,0.0,0.0,0.0,0.0,0.0,0.0,0.0,0.0,0.0,0.0,0.0,0.0,0.0,0.0,0.0,0.0,0.0,0.0,0.0,0.0,0.0,0.0,0.0,0.0,0.0,0.0,0.0,0.0,0.0,0.0,0.0,0.0,0.0,0.0,0.0,0.0,0.0,0.0,0.0,0.0,0.0,0.0,0.0,0.0,0.0,0.0,0.0,0.0,0.0,0.0,0.0,-3.1461,-3.2611,-3.7574,-4.0113,-4.0113,-4.0113,-4.0113,-4.0045,-3.7963,-3.5357,0.0,0.0,0.0,0.0,0.0,0.0,0.0,0.0,0.0,0.0,0.0,0.0,0.0,0.0,0.0,0.0,0.0,0.0,0.0,0.0,0.0,0.0,0.0,0.0,0.0,0.0,0.0,0.0,-1.9999,-1.994,-2.0034,0.0,0.0,0.0,0.0,0.0,0.0,0.0,0.0,0.0,0.0,-3.3138,-3.3181,-3.427,-3.4774,-3.3905,-3.4182,-3.4091,-3.2976,-3.3036,-3.2587,-3.0791,0.0,0.0,0.0,0.0,0.0,0.0,0.0,0.0,0.0,0.0,0.0,0.0,0.0,0.0,0.0,0.0,0.0,0.0,0.0,0.0,0.0,0.0,0.0,0.0,0.0,0.0,0.0,0.0,0.0,0.0,-2.2586,0.0,0.0,0.0,0.0,0.0,0.0,0.0,0.0,0.0,0.0,0.0,0.0,0.0,0.0,0.0,0.0,0.0,0.0,0.0,0.0,0.0,0.0,-3.1221,-3.3389,-3.7804,-4.0113,-4.0113,-4.0113,-4.0113,-4.0062,-3.7963,-3.6051,-3.4336,0.0,0.0,0.0,0.0,0.0,0.0,0.0,0.0,0.0,0.0,0.0,0.0,0.0,0.0,0.0,0.0,0.0,0.0,0.0,0.0,0.0,0.0,0.0,0.0,0.0,0.0,-1.9562,-1.9482,-1.9056,0.0,0.0,0.0,0.0,0.0,0.0,0.0,0.0,0.0,0.0,-3.1578,-3.2512,-3.2557,-3.368,-3.452,-3.4488,-3.3455,-3.2811,-3.3395,-3.2931,-3.2063,0.0,0.0,0.0,0.0,0.0,0.0,0.0,0.0,0.0,0.0,0.0,0.0,0.0,0.0,0.0,0.0,0.0,0.0,0.0,0.0,0.0,0.0,0.0,0.0,0.0,0.0,0.0,-3.0274,-2.873,0.0,0.0,0.0,0.0,0.0,0.0,0.0,0.0,0.0,0.0,0.0,-3.3085,-3.4032,0.0,0.0,0.0,0.0,0.0,0.0,0.0,0.0,0.0,0.0,0.0,0.0,-3.2391,-3.4218,-3.8082,-4.0113,-4.0113,-4.0113,-4.0113,-4.0079,-3.843,-3.5876,-3.2391,0.0,0.0,0.0,0.0,0.0,0.0,0.0,0.0,0.0,0.0,0.0,0.0,0.0,0.0,0.0,0.0,0.0,0.0,0.0,0.0,0.0,0.0,0.0,0.0,0.0,-1.7798,0.0,0.0,0.0,0.0,0.0,0.0,0.0,0.0,0.0,0.0,0.0,-2.9366,-3.0313,-3.164,-3.2677,-3.311,-3.3949,-3.4653,0.0,0.0,0.0,0.0,0.0,0.0,0.0,0.0,0.0,0.0,0.0,0.0,0.0,0.0,-3.0441,-2.7815,-2.6935,-2.6686,-2.6871,0.0,0.0,0.0,0.0,0.0,0.0,0.0,0.0,0.0,0.0,0.0,0.0,0.0,0.0,-3.3364,0.0,-3.0568,0.0,0.0,0.0,0.0,0.0,0.0,0.0,0.0,-3.5081,-3.6315,-3.6096,-3.6823,-3.6789,0.0,-3.5825,-3.3034,0.0,0.0,0.0,0.0,0.0,0.0,0.0,0.0,-3.3173,-3.4928,-3.8335,-4.0113,-4.0113,-4.0113,-4.0113,-4.0079,-3.8437,-3.5774,-3.207,-2.9567,-2.7131,0.0,0.0,0.0,0.0,0.0,0.0,0.0,0.0,0.0,0.0,0.0,0.0,0.0,0.0,0.0,0.0,0.0,0.0,0.0,0.0,0.0,0.0,0.0,-1.833,0.0,0.0,0.0,0.0,0.0,0.0,0.0,0.0,0.0,-2.6823,-2.9025,-3.087,-3.1448,-3.2497,-3.3275,-3.3469,0.0,0.0,0.0,0.0,0.0,0.0,0.0,-3.3754,-3.3529,-3.3335,-3.3185,-3.3155,-3.3335,-3.3275,-3.2632,0.0,0.0,-2.9804,-2.9116,-2.8951,-2.8978,-2.931,-2.9475,-2.9041,-2.949,-2.9759,0.0,0.0,0.0,0.0,0.0,0.0,0.0,0.0,-3.6537,-3.5687,0.0,-3.3301,0.0,0.0,0.0,0.0,0.0,-3.3858,0.0,0.0,-3.8582,-3.969,-3.9073,-3.9706,-3.9706,-3.9089,-3.9656,-3.8115,-3.4573,-3.2493,0.0,0.0,0.0,0.0,0.0,0.0,-3.3474,-3.5684,-3.8582,-4.0113,-4.0113,-4.0113,-4.0079,-3.996,-3.7963,-3.578,-3.3525,-3.1968,-2.9837,-2.6928,-2.4661,0.0,0.0,0.0,0.0,0.0,0.0,0.0,0.0,0.0,0.0,0.0,0.0,0.0,0.0,0.0,0.0,0.0,0.0,0.0,0.0,-1.9469,0.0,0.0,0.0,0.0,0.0,0.0,0.0,0.0,0.0,0.0,-2.8963,-3.043,-3.2019,-3.329,0.0,0.0,0.0,0.0,-3.4563,-3.4577,-3.4038,-3.3888,-3.4533,-3.4578,-3.4339,-3.3724,0.0,0.0,-3.2856,-3.3155,-3.3395,-3.2751,-3.3215,-3.3335,-3.2647,-3.1899,-3.1511,-3.1496,-3.1496,-3.1555,-3.1585,-3.1899,-3.2198,-4.3865,0.0,0.0,0.0,0.0,-4.0598,-4.1414,-4.2788,-4.1407,-3.9919,-3.8263,-3.7006,0.0,0.0,0.0,0.0,0.0,0.0,-3.6191,-3.7273,-3.8667,-3.9486,-3.9791,-4.0011,-3.9994,-3.9808,-4.0011,-3.9283,-3.7736,-3.706,-3.4015,-2.879,0.0,0.0,0.0,0.0,-3.5504,-3.7263,-3.9148,-4.0113,-4.0113,-4.0113,-3.9605,-3.8548,-3.7922,-3.6502,-3.4269,-3.2784,-3.1108,-2.9194,-2.6471,0.0,0.0,0.0,0.0,0.0,0.0,0.0,0.0,0.0,0.0,0.0,0.0,0.0,0.0,0.0,0.0,0.0,0.0,0.0,-1.8854,-1.9232,-1.9917,0.0,0.0,0.0,0.0,0.0,0.0,0.0,0.0,0.0,-3.1987,-3.2572,-3.308,0.0,0.0,-3.3873,-3.4158,-3.4786,-3.537,-3.5833,-3.6133,0.0,-3.6537,-3.5804,-3.531,-3.5579,-3.54,-3.5085,-3.4711,-3.4801,-3.4876,-3.4651,-3.4801,-3.4711,-3.4069,-3.338,-3.2961,-3.2946,-3.2931,-3.2931,-3.2946,-3.3095,-3.3021,-4.8013,-4.5063,-4.3937,-4.3989,-4.4747,-4.4315,-4.4845,-4.5914,-4.4269,-4.298,-4.1978,-4.0346,-3.8414,-3.6273,-3.5242,0.0,0.0,0.0,-3.7618,-3.8785,-3.9208,-3.969,-4.0079,-4.0113,-4.0113,-4.0113,-4.0113,-3.9876,-3.9428,-3.9453,-3.7134,-3.2733,0.0,0.0,-3.3495,-3.5487,-3.7127,-3.8328,-3.9478,-4.0113,-4.0096,-3.9825,-3.9089,-3.7956,-3.7618,-3.6535,-3.4578,-3.3355,-3.2053,-3.0565,-2.7672,-2.5372,0.0,0.0,0.0,0.0,0.0,0.0,0.0,0.0,0.0,0.0,0.0,-1.8176,-1.7085,0.0,0.0,0.0,-1.8284,-1.9343,-2.0622,-2.1127,0.0,0.0,0.0,0.0,0.0,0.0,0.0,-3.0516,-3.1553,-3.2632,-3.4098,-3.4532,-3.4577,-3.4337,-3.4726,-3.51,-3.5282,0.0,-3.6402,-3.6791,-3.7165,-3.7404,-3.7389,-3.6552,-3.5953,-3.6073,-3.5774,-3.5504,-3.5489,-3.5489,-3.5489,-3.5489,-3.5489,-3.5385,-3.4966,-3.4562,-3.4083,-3.3619,-3.3709,-3.3814,-3.3574,-3.3725,-3.3679,-5.1013,-5.0184,-4.8677,-4.8007,-4.7898,-4.7826,-4.7331,-4.6561,-4.5538,-4.5003,-4.4718,-4.31,-4.1593,-4.0146,-3.8099,0.0,-3.8193,-3.8819,-3.9453,-4.0096,-4.0113,-4.0113,-4.0113,-4.0113,-4.0113,-4.0113,-4.0113,-4.0113,-4.0096,-4.0096,-3.9419,-3.8091,-3.7422,-3.6998,-3.6931,-3.7618,-3.8345,-3.9073,-3.9757,-4.0113,-4.0096,-3.936,-3.865,-3.7922,-3.7134,-3.6017,-3.4556,-3.3728,-3.2662,-3.1207,-2.8416,-2.6217,-2.4677,0.0,0.0,0.0,0.0,0.0,0.0,0.0,0.0,0.0,0.0,0.0,0.0,0.0,0.0,0.0,-2.0749,0.0,-2.3025,-2.4353,0.0,0.0,0.0,-2.7465,-2.8858,-3.0011,-3.118,-3.2512,0.0,0.0,-3.5504,-3.6193,-3.6402,-3.5744,-3.6671,-3.721,-3.6641,-3.7075,-3.7494,-3.7494,-3.7539,-3.7584,-3.7674,-3.7045,-3.6327,-3.5699,-3.5489,-3.5489,-3.5489,-3.5489,-3.5489,-3.5489,-3.5489,-3.5489,-3.5489,-3.5429,-3.513,-3.3918,-3.4158,-3.4414,-3.3903,-3.4173,-3.4384,-5.2661,-5.19,-5.152,-5.0651,-4.9474,-4.8894,-4.8261,-4.7635,-4.6389,-4.5281,-4.4317,-4.3522,-4.2642,-4.1737,-4.0629,-4.0257,-4.0409,-4.0003,-3.9926,-4.0096,-4.0113,-4.0113,-4.0113,-4.0113,-4.0113,-4.0113,-4.0113,-4.0113,-4.0113,-4.0113,-3.9926,-3.9588,-3.9419,-3.8759,-3.7702,-3.8379,-3.9089,-3.9842,-4.0028,-4.0113,-4.0079,-3.9402,-3.865,-3.7922,-3.6603,-3.5453,-3.4544,-3.3258,-3.2158,-3.1207,-2.9431,-2.7757,-2.6234,-2.3686,0.0,0.0,0.0,0.0,0.0,0.0,0.0,0.0,0.0,-2.0624,-1.8376,0.0,-2.1766,0.0,-2.2672,-2.3857,-2.5054,-2.5364,0.0,0.0,-2.9294,-2.9964,-3.2223,-3.2299,-3.2661,-3.3874,-3.4756,-3.5504,-3.6178,-3.724,-3.7704,-3.706,-3.7225,-3.736,-3.7225,-3.7749,-3.8167,-3.8197,-3.8571,-3.8931,-3.873,-3.7943,-3.6791,-3.5684,-3.5489,-3.5489,-3.5489,-3.5489,-3.5489,-3.5489,-3.5489,-3.5489,-3.5489,-3.5489,-3.5415,-3.51,-3.516,-3.522,-3.5055,-3.5145,-3.5055,-5.3222,-5.2498,-5.2498,-5.1991,-5.1108,-4.9945,-4.9266,-4.8869,-4.7186,-4.5919,-4.4997,-4.3873,-4.3183,-4.2743,-4.2016,-4.1508,-4.117,-4.0781,-4.0434,-4.0113,-4.0113,-4.0113,-4.0113,-4.0113,-4.0113,-4.0113,-4.0113,-4.0113,-4.0113,-4.0113,-4.0113,-4.0113,-4.0113,-3.9706,-3.8937,-3.9292,-3.969,-4.0096,-4.0113,-4.0113,-4.0079,-3.9056,-3.8159,-3.7415,-3.6225,-3.4923,-3.358,-3.3034,-3.2154,-3.0784,-2.9619,-2.8468,-2.7215,-2.5096,-2.3257,0.0,0.0,0.0,0.0,0.0,0.0,0.0,0.0,0.0,0.0,0.0,-2.3882,-2.4397,-2.5558,-2.6745,-2.7916,-2.8478,-2.9654,-3.1829,-3.1668,-3.2135,-3.3893,-3.3712,-3.3981,-3.5252,-3.5699,-3.6297,-3.721,-3.7943,-3.8377,-3.8287,-3.8317,-3.8197,-3.7973,-3.8422,-3.8841,-3.8871,-3.917,-3.9134,-3.8646,-3.7898,-3.6985,-3.5804,-3.5489,-3.5489,-3.5489,-3.5489,-3.5489,-3.5489,-3.5489,-3.5489,-3.5489,-3.5489,-3.5489,-3.5489,-3.5489,-3.5489,-3.5489,-3.5489,-3.537,-5.3331,-5.2498,-5.2498,-5.2498,-5.2371,-5.0868,-5.0257,-5.0086,-4.7908,-4.6542,-4.5808,-4.4243,-4.3544,-4.3494,-4.276,-4.2033,-4.1339,-4.1238,-4.0798,-4.0113,-4.0113,-4.0113,-4.0113,-4.0113,-4.0113,-4.0113,-4.0113,-4.0113,-4.0113,-4.0113,-4.0113,-4.0113,-4.0113,-4.0113,-4.0113,-4.0113,-4.0113,-4.0113,-4.0113,-4.0113,-4.0079,-3.865,-3.7584,-3.6948,-3.5893,-3.4399,-3.2564,-3.2966,-3.2341,-3.0362,-2.9617,-2.8924,-2.811,-2.6086,-2.458,0.0,-2.271,0.0,0.0,0.0,0.0,0.0,0.0,0.0,0.0,-2.5336,-2.6321,-2.7348,-2.8733,-2.9936,-3.0839,-3.2058,-3.3036,-3.356,-3.3619,-3.3873,-3.4517,-3.4638,-3.5087,-3.6222,-3.6492,-3.7045,-3.8018,-3.8332,-3.8631,-3.9035,-3.8955,-3.8766,-3.8542,-3.8931,-3.9328,-3.9388,-3.9334,-3.8826,-3.7793,-3.7375,-3.6866,-3.5789,-3.5489,-3.5489,-3.5489,-3.5489,-3.5489,-3.5489,-3.5489,-3.5489,-3.5489,-3.5489,-3.5489,-3.5489,-3.5489,-3.5489,-3.5489,-3.5489,-3.5489,-5.382,-5.2516,-5.2498,-5.2498,-5.2408,-5.1466,-5.109,-5.0896,-4.8342,-4.6334,-4.4896,-4.4512,-4.4395,-4.4299,-4.3555,-4.2794,-4.2066,-4.1474,-4.0781,-4.0113,-4.0113,-4.0113,-4.0113,-4.0113,-4.0113,-4.0113,-4.0113,-4.0113,-4.0113,-4.0113,-4.0113,-4.0113,-4.0113,-4.0113,-4.0113,0.0,0.0,0.0,-4.0113,-4.0113,-4.0062,-3.865,-3.7855,-3.7652,-3.5182,0.0,-3.322,-3.2767,-3.2056,-3.1055,-3.0852,0.0,0.0,0.0,0.0,0.0,0.0,0.0,0.0,0.0,0.0,0.0,-2.7396,-2.6589,-2.5168,-2.7494,-2.9143,-2.9248,-3.0923,-3.2057,-3.2137,-3.2871,-3.3605,-3.4234,-3.4324,-3.4547,-3.5205,-3.5295,-3.5429,-3.5654,-3.6596,-3.73,-3.7569,-3.8048,-3.8422,-3.8512,-3.8123,-3.7988,-3.8347,-3.8945,-3.9358,-3.9358,-3.896,-3.8332,-3.7524,-3.7,-3.6462,-3.5699,-3.5489,-3.5489,-3.5489,-3.5489,-3.5489,-3.5489,-3.5489,-3.5489,-3.5489,-3.5489,-3.5489,-3.5489,-3.5489,-3.5489,-3.5489,-3.5489,-3.5489,-5.3965,0.0,-5.2498,-5.2498,0.0,-5.2045,-5.1882,-5.1715,-4.9195,-4.7051,-4.5328,-4.4814,-4.4598,-4.4581,-4.3775,-4.2987,-4.2252,-4.1525,-4.0798,-4.0113,-4.0113,-4.0113,-4.0113,-4.0113,-4.0113,-4.0113,-4.0113,-4.0113,-4.0113,-4.0113,-4.0113,-4.0113,-4.0113,-4.0113,-4.0113,-4.0113,-4.0113,-4.0113,-4.0113,-4.0113,-4.0045,-3.865,-3.7719,-3.7313,0.0,0.0,0.0,0.0,0.0,0.0,0.0,0.0,0.0,0.0,0.0,-2.8345,-2.8313,-2.8022,-2.7419,-2.7957,-2.8673,-2.9325,-2.9935,-2.971,-2.8305,-2.9983,-3.128,-3.1792,-3.2989,-3.3637,-3.3499,-3.4098,-3.4637,-3.4951,-3.4981,-3.5145,-3.5429,-3.5489,-3.5639,-3.5968,-3.6537,-3.706,-3.7375,-3.7674,-3.7898,-3.7898,-3.7644,-3.7509,-3.7883,-3.8482,-3.8916,-3.8901,-3.8661,-3.8033,-3.715,-3.6716,-3.6267,-3.5684,-3.5489,-3.5489,-3.5489,-3.5489,-3.5489,-3.5489,-3.5489,-3.5489,-3.5489,-3.5489,-3.5489,-3.5489,-3.5489,-3.5489,-3.5489,-3.5489,-3.5489,-5.3965,-5.2516,-5.2498,-5.2498,-5.2498,-5.2498,-5.2335,-5.1937,0.0,0.0,0.0,-4.4988,-4.4598,-4.4547,-4.3775,-4.3014,-4.2252,-4.1542,-4.0798,-4.0113,-4.0113,-4.0113,-4.0113,-4.0113,-4.0113,-4.0113,-4.0113,-4.0113,-4.0113,-4.0113,-4.0113,-4.0113,-4.0113,-4.0113,-4.0113,-4.0113,-4.0113,-4.0113,-4.0113,-4.0113,-4.0062,-3.8785,-3.7736,-3.7032,-3.6096,-3.4974,-3.3677,-3.4167,-3.366,-3.1901,-3.1782,-3.1526,-3.1014,-3.0919,-3.0952,-3.1082,-3.116,-3.1014,-3.0608,-3.0597,-3.0663,-3.0894,-3.1965,-3.2351,-3.177,-3.2203,-3.2977,-3.4091,-3.4514,-3.4752,-3.4778,-3.5242,-3.5554,-3.5522,-3.5522,-3.5522,-3.5489,-3.5489,-3.5699,-3.6222,-3.6402,-3.6671,-3.7135,-3.724,-3.724,-3.7225,-3.7075,-3.715,-3.73,-3.7793,-3.8227,-3.8212,-3.8033,-3.7629,-3.6791,-3.6342,-3.6103,-3.5609,-3.5489,-3.5489,-3.5489,-3.5489,-3.5489,-3.5489,-3.5489,-3.5489,-3.5489,-3.5489,-3.5489,-3.5489,-3.5489,-3.5489,-3.5489,-3.5489,-3.5489,-5.3965,-5.2498,-5.2498,-5.2498,-5.2498,-5.2498,-5.1719,-5.0371,-4.9108,-4.7391,-4.5381,-4.4841,-4.4598,-4.4564,-4.3775,-4.2987,-4.2252,-4.1542,-4.0781,-4.0113,-4.0113,-4.0113,-4.0113,-4.0113,-4.0113,-4.0113,-4.0113,-4.0113,-4.0113,-4.0113,-4.0113,-4.0113,-4.0113,-4.0113,-4.0113,-4.0113,-4.0113,-4.0113,-4.0113,-4.0113,-4.0096,-3.9259,-3.8497,-3.7736,-3.6343,-3.5233,-3.4387,-3.4455,-3.4353,-3.4049,-3.4032,-3.3782,-3.3265,-3.2618,-3.1958,-3.1177,-3.1094,-3.1136,-3.1266,-3.1243,-3.1751,-3.289,-3.3737,-3.3833,-3.3058,-3.3419,-3.4045,-3.4759,-3.491,-3.5198,-3.5682,-3.5864,-3.5814,-3.5718,-3.5671,-3.5621,-3.5489,-3.5489,-3.5549,-3.5669,-3.6163,-3.651,-3.6582,-3.6611,-3.6611,-3.6537,-3.6267,-3.5998,-3.6567,-3.715,-3.7509,-3.7464,-3.7075,-3.6716,-3.6417,-3.5983,-3.5684,-3.5534,-3.5489,-3.5489,-3.5489,-3.5489,-3.5489,-3.5489,-3.5489,-3.5489,-3.5489,-3.5489,-3.5489,-3.5489,-3.5489,-3.5489,-3.5489,-3.5489,-3.5489,-5.3965,-5.2552,-5.2498,-5.2498,-5.2462,-5.2045,-5.1199,-4.9987,-4.8493,-4.7086,-4.57,-4.4934,-4.4598,-4.4496,-4.3335,-4.2625,-4.2236,-4.1119,-4.0434,-4.0113,-4.0113,-4.0113,-4.0113,-4.0113,-4.0113,-4.0113,-4.0113,-4.0113,-4.0113,-4.0113,-4.0113,-4.0113,-4.0113,-4.0113,-4.0113,-4.0113,-4.0113,-4.0113,-4.0113,-4.0113,-4.0096,-3.9385,-3.865,-3.7905,-3.6823,-3.5893,-3.5131,-3.5098,-3.4912,-3.4527,-3.4489,-3.4253,-3.3746,-3.3386,-3.2905,-3.2295,-3.2224,-3.2149,-3.1959,-3.2275,-3.2906,-3.3906,-3.4659,-3.4891,-3.4479,-3.4575,-3.4912,-3.5458,-3.544,-3.5481,-3.5703,-3.5748,-3.5716,-3.5604,-3.5619,-3.5572,-3.5537,-3.5489,-3.5489,-3.5519,-3.5774,-3.5953,-3.5953,-3.5953,-3.5953,-3.5923,-3.5654,-3.5639,-3.5923,-3.6193,-3.6522,-3.6791,-3.6671,-3.6357,-3.6028,-3.5729,-3.5519,-3.5489,-3.5489,-3.5489,-3.5489,-3.5489,-3.5489,-3.5489,-3.5489,-3.5489,-3.5489,-3.5489,-3.5489,-3.5489,-3.5489,-3.5489,-3.5489,-3.5489,-3.5489,-5.3965,-5.2498,-5.2498,-5.2498,-5.2389,-5.143,-5.0691,-4.9915,-4.8022,-4.6801,-4.6003,-4.5025,-4.4598,-4.4445,-4.298,-4.2303,-4.2083,-4.0773,-4.0113,-4.0113,-4.0113,-4.0113,-4.0113,-4.0113,-4.0113,-4.0113,-4.0113,-4.0113,-4.0113,-4.0113,-4.0113,-4.0113,-4.0113,-4.0113,-4.0113,-4.0113,-4.0113,-4.0113,-4.0113,-4.0113,-4.0079,-3.9537,-3.8819,-3.7939,-3.7347,-3.6603,-3.5684,-3.5616,-3.5329,-3.481,-3.4742,-3.4505,-3.3995,-3.3815,-3.3608,-3.325,-3.3093,-3.2904,-3.2699,-3.326,-3.3952,-3.469,-3.5352,-3.5707,-3.5707,-3.56,-3.5645,-3.6009,-3.5928,-3.5784,-3.5701,-3.5666,-3.5587,-3.5554,-3.5539,-3.5522,-3.5504,-3.5489,-3.5489,-3.5489,-3.5489,-3.5519,-3.5489,-3.5489,-3.5519,-3.5534,-3.5489,-3.5489,-3.5489,-3.5489,-3.5744,-3.6073,-3.6267,-3.6073,-3.5579,-3.5504,-3.5489,-3.5489,-3.5489,-3.5489,-3.5489,-3.5489,-3.5489,-3.5489,-3.5489,-3.5489,-3.5489,-3.5489,-3.5489,-3.5489,-3.5489,-3.5489,-3.5489,-3.5489,-3.5489,-5.3965,-5.2607,-5.2498,-5.2498,-5.2317,-5.0891,-5.0184,-4.9846,-4.7854,-4.6613,-4.6017,-4.5025,-4.4598,-4.4395,-4.298,-4.2303,-4.2185,-4.0773,-4.0113,-4.0113,-4.0113,-4.0113,-4.0113,-4.0113,-4.0113,-4.0113,-4.0113,-4.0113,-4.0113,-4.0113,-4.0113,-4.0113,-4.0113,-4.0113,-4.0113,-4.0113,-4.0113,-4.0113,-4.0113,-4.0113,-4.0096,-4.0045,-3.9326,-3.7956,-3.7855,-3.711,-3.5684,-3.5616,-3.5566,-3.5498,-3.5481,-3.5244,-3.4741,-3.4244,-3.3738,-3.3261,-3.2776,-3.2699,-3.3275,-3.3967,-3.469,-3.5367,-3.5984,-3.6368,-3.6368,-3.6384,-3.6368,-3.6398,-3.6242,-3.6116,-3.6116,-3.6005,-3.5814,-3.5653,-3.5638,-3.5638,-3.5537,-3.5489,-3.5489,-3.5489,-3.5489,-3.5489,-3.5489,-3.5489,-3.5489,-3.5489,-3.5489,-3.5489,-3.5489,-3.5504,-3.5519,-3.5609,-3.5609,-3.5609,-3.5489,-3.5489,-3.5489,-3.5489,-3.5489,-3.5489,-3.5489,-3.5489,-3.5489,-3.5489,-3.5489,-3.5489,-3.5489,-3.5489,-3.5489,-3.5489,-3.5489,-3.5489,-3.5489,-3.5489,-3.5489,-5.3965,-5.2516,-5.2498,-5.2498,-5.2263,-5.08,-5.0112,-4.9886,-4.781,-4.6613,-4.6067,-4.532,-4.4852,-4.4496,-4.298,-4.2303,-4.2185,-4.079,-4.0113,-4.0113,-4.0113,-4.0113,-4.0113,-4.0113,-4.0113,-4.0113,-4.0113,-4.0113,-4.0113,-4.0113,-4.0113,-4.0113,-4.0113,-4.0113,-4.0113,-4.0113,-4.0113,-4.0113,-4.0113,-4.0113,-4.0113,-4.0113,-3.9394,-3.8091,-3.7898,-3.7195,-3.5785,-3.5616,-3.5616,-3.5616,-3.5616,-3.5509,-3.527,-3.4745,-3.4219,-3.3681,-3.3232,-3.3306,-3.3998,-3.4705,-3.5383,-3.6061,-3.6322,-3.6492,-3.6492,-3.6492,-3.6492,-3.646,-3.6226,-3.6053,-3.5911,-3.5797,-3.5668,-3.5619,-3.5572,-3.5554,-3.5489,-3.5489,-3.5489,-3.5489,-3.5489,-3.5489,-3.5489,-3.5489,-3.5489,-3.5489,-3.5489,-3.5489,-3.5489,-3.5489,-3.5489,-3.5489,-3.5489,-3.5489,-3.5489,-3.5489,-3.5489,-3.5489,-3.5489,-3.5489,-3.5489,-3.5489,-3.5489,-3.5489,-3.5489,-3.5489,-3.5489,-3.5489,-3.5489,-3.5489,-3.5489,-3.5489,-3.5489,-3.5489,-3.5489,-5.3965,-5.2607,-5.2498,-5.2353,-5.2045,-5.0709,-4.9963,-4.9579,-4.7855,-4.6799,-4.6269,-4.5749,-4.5241,-4.4593,-4.3044,-4.2303,-4.21,-4.0773,-4.0113,-4.0113,-4.0113,-4.0113,-4.0113,-4.0113,-4.0113,-4.0113,-4.0113,-4.0113,-4.0113,-4.0113,-4.0113,-4.0113,-4.0113,-4.0113,-4.0113,-4.0113,-4.0113,-4.0113,-4.0113,-4.0113,-4.0113,-4.0113,-3.9503,-3.8328,-3.8007,-3.728,-3.6011,-3.5718,-3.5616,-3.5616,-3.5616,-3.5616,-3.5577,-3.5091,-3.4562,-3.4098,-3.3646,-3.3814,-3.4705,-3.5199,-3.5768,-3.6399,-3.6492,-3.6492,-3.6492,-3.6492,-3.6492,-3.646,-3.6241,-3.599,-3.5847,-3.5733,-3.5651,-3.5619,-3.5587,-3.5554,-3.5539,-3.5522,-3.5489,-3.5489,-3.5489,-3.5489,-3.5489,-3.5489,-3.5489,-3.5489,-3.5489,-3.5489,-3.5489,-3.5489,-3.5489,-3.5489,-3.5489,-3.5489,-3.5489,-3.5489,-3.5489,-3.5489,-3.5489,-3.5489,-3.5489,-3.5489,-3.5489,-3.5489,-3.5489,-3.5489,-3.5489,-3.5489,-3.5489,-3.5489,-3.5489,-3.5489,-3.5489,-3.5489,-3.5489,-5.3965,-5.2589,-5.2498,-5.2027,-5.1285,-5.0438,-4.9655,-4.8963,-4.8019,-4.7345,-4.6776,-4.6262,-4.5767,-4.5094,-4.317,-4.2303,-4.21,-4.0773,-4.0113,-4.0113,-4.0113,-4.0113,-4.0113,-4.0113,-4.0113,-4.0113,-4.0113,-4.0113,-4.0113,-4.0113,-4.0113,-4.0113,-4.0113,-4.0113,-4.0113,-4.0113,-4.0113,-4.0113,-4.0113,-4.0113,-4.0113,-4.0113,-3.974,-3.8971,-3.8261,-3.7516,-3.6721,-3.5994,-3.5616,-3.5616,-3.5616,-3.5616,-3.5577,-3.5102,-3.4619,-3.4228,-3.3734,-3.4029,-3.5213,-3.5506,-3.5814,-3.6368,-3.6492,-3.6492,-3.6492,-3.6492,-3.6492,-3.6492,-3.632,-3.6179,-3.6148,-3.6005,-3.5957,-3.591,-3.5799,-3.5703,-3.5688,-3.5572,-3.5489,-3.5489,-3.5537,-3.5489,-3.5489,-3.5489,-3.5489,-3.5489,-3.5489,-3.5489,-3.5489,-3.5489,-3.5489,-3.5489,-3.5489,-3.5489,-3.5489,-3.5489,-3.5489,-3.5489,-3.5489,-3.5489,-3.5489,-3.5489,-3.5489,-3.5489,-3.5489,-3.5489,-3.5489,-3.5489,-3.5489,-3.5489,-3.5489,-3.5489,-3.5489,-3.5489,-3.5489,-5.3965,-5.2462,-5.1937,-5.1538,-5.1158,-4.9908,-4.9162,-4.8837,-4.804,-4.7407,-4.6863,-4.6334,-4.58,-4.5207,-4.3197,-4.2303,-4.2178,-4.0747,-4.0113,-4.0113,-4.0113,-4.0113,-4.0113,-4.0113,-4.0113,-4.0113,-4.0113,-4.0113,-4.0113,-4.0113,-4.0113,-4.0113,-4.0113,-4.0113,-4.0113,-4.0113,-4.0113,-4.0113,-4.0113,-4.0113,-4.0113,-4.0113,-3.996,-3.969,-3.8514,-3.755,-3.6829,-3.6028,-3.5616,-3.5616,-3.5616,-3.5616,-3.5566,-3.5175,-3.4883,-3.4797,-3.476,-3.4953,-3.5445,-3.5922,-3.623,-3.6445,-3.6492,-3.6492,-3.6492,-3.6492,-3.6492,-3.6492,-3.6445,-3.6383,-3.6352,-3.6163,-3.602,-3.602,-3.5926,-3.5831,-3.572,-3.5671,-3.5621,-3.5653,-3.5606,-3.5589,-3.5522,-3.5489,-3.5489,-3.5489,-3.5489,-3.5489,-3.5489,-3.5489,-3.5489,-3.5489,-3.5489,-3.5489,-3.5489,-3.5489,-3.5489,-3.5489,-3.5489,-3.5489,-3.5489,-3.5489,-3.5489,-3.5489,-3.5489,-3.5489,-3.5489,-3.5489,-3.5489,-3.5489,-3.5489,-3.5489,-3.5489,-3.5489,-3.5489,-5.3494,-5.2462,-5.1629,-5.114,-5.076,-4.9452,-4.8728,-4.8475,-4.7932,-4.749,-4.7062,-4.6406,-4.5875,-4.5226,-4.3276,-4.2303,-4.2134,-4.0807,-4.0113,-4.0113,-4.0113,-4.0113,-4.0113,-4.0113,-4.0113,-4.0113,-4.0113,-4.0113,-4.0113,-4.0113,-4.0113,-4.0113,-4.0113,-4.0113,-4.0113,-4.0113,-4.0113,-4.0113,-4.0113,-4.0113,-4.0113,-4.0113,-4.0113,-3.9926,-3.8886,-3.7922,-3.7161,-3.64,-3.5859,-3.565,-3.5616,-3.5701,-3.5903,-3.5597,-3.5515,-3.5733,-3.5579,-3.5584,-3.5845,-3.623,-3.6492,-3.6492,-3.6492,-3.6492,-3.6492,-3.6492,-3.6492,-3.6492,-3.6492,-3.6492,-3.646,-3.6289,-3.6163,-3.6163,-3.61,-3.6037,-3.5894,-3.5831,-3.5799,-3.5799,-3.5671,-3.5636,-3.5587,-3.5522,-3.5489,-3.5489,-3.5489,-3.5489,-3.5489,-3.5489,-3.5489,-3.5489,-3.5489,-3.5489,-3.5489,-3.5489,-3.5489,-3.5489,-3.5489,-3.5489,-3.5489,-3.5489,-3.5489,-3.5489,-3.5489,-3.5489,-3.5489,-3.5489,-3.5489,-3.5489,-3.5489,-3.5489,-3.5489,-3.5489,-3.5489,-5.2534,-5.2371,-5.1611,-5.0814,-5.013,-4.9184,-4.8402,-4.7823,-4.7735,-4.7657,-4.745,-4.6566,-4.6091,-4.5536,-4.3399,-4.2303,-4.2033,-4.0773,-4.0113,-4.0113,-4.0113,-4.0113,-4.0113,-4.0113,-4.0113,-4.0113,-4.0113,-4.0113,-4.0113,-4.0113,-4.0113,-4.0113,-4.0113,-4.0113,-4.0113,-4.0113,-4.0113,-4.0113,-4.0113,-4.0113,-4.0113,-4.0113,-4.0113,-4.0028,-3.936,-3.8667,-3.7922,-3.7178,-3.6451,-3.5769,-3.5684,-3.6011,-3.6538,-3.6362,-3.6497,-3.6791,-3.6113,-3.5875,-3.6353,-3.6461,-3.6492,-3.6492,-3.6492,-3.6492,-3.6492,-3.6492,-3.6492,-3.6492,-3.6492,-3.6492,-3.6492,-3.646,-3.646,-3.6492,-3.632,-3.6211,-3.6148,-3.6068,-3.602,-3.5941,-3.5765,-3.5619,-3.5653,-3.5604,-3.5522,-3.5489,-3.5489,-3.5489,-3.5489,-3.5489,-3.5489,-3.5489,-3.5489,-3.5489,-3.5489,-3.5489,-3.5489,-3.5489,-3.5489,-3.5489,-3.5489,-3.5489,-3.5489,-3.5489,-3.5489,-3.5489,-3.5489,-3.5489,-3.5489,-3.5489,-3.5489,-3.5489,-3.5489,-3.5489,-3.5489,-5.2498,-5.2317,-5.1013,-5.0347,-4.993,-4.8677,-4.7895,-4.7696,-4.7699,-4.7699,-4.7511,-4.659,-4.6116,-4.5543,-4.3442,-4.2303,-4.2168,-4.0823,-4.0113,-4.0113,-4.0113,-4.0113,-4.0113,-4.0113,-4.0113,-4.0113,-4.0113,-4.0113,-4.0113,-4.0113,-4.0113,-4.0113,-4.0113,-4.0113,-4.0113,-4.0113,-4.0113,-4.0113,-4.0113,-4.0113,-4.0113,-4.0113,-4.0113,-4.0079,-3.9876,-3.9394,-3.8684,-3.7939,-3.7195,-3.6451,-3.6417,-3.6535,-3.6761,-3.6847,-3.6983,-3.7093,-3.6584,-3.623,-3.643,-3.6492,-3.6492,-3.6492,-3.6492,-3.6492,-3.6492,-3.6492,-3.6492,-3.6492,-3.6492,-3.6492,-3.6492,-3.6492,-3.6492,-3.6492,-3.646,-3.6352,-3.6242,-3.6179,-3.61,-3.6037,-3.5973,-3.5894,-3.5752,-3.5638,-3.5589,-3.5537,-3.5489,-3.5489,-3.5504,-3.5489,-3.5489,-3.5489,-3.5489,-3.5489,-3.5489,-3.5489,-3.5489,-3.5489,-3.5489,-3.5489,-3.5489,-3.5489,-3.5489,-3.5489,-3.5489,-3.5489,-3.5489,-3.5489,-3.5489,-3.5489,-3.5489,-3.5489,-3.5489,-3.5489,-3.5489,-5.2498,-5.2299,-5.076,-5.0112,-4.993,-4.8369,-4.7699,-4.7699,-4.7699,-4.7699,-4.749,-4.659,-4.6116,-4.5631,-4.3716,-4.2584,-4.2185,-4.1018,-4.0383,-4.013,-4.0113,-4.0113,-4.0113,-4.0113,-4.0113,-4.0113,-4.0113,-4.0113,-4.0113,-4.0113,-4.0113,-4.0113,-4.0113,-4.0113,-4.0113,-4.0113,-4.0113,-4.0113,-4.0113,-4.0113,-4.0113,-4.0113,-4.0113,-4.0113,-4.0096,-3.9859,-3.9394,-3.8937,-3.8108,-3.7083,-3.6812,-3.6812,-3.6821,-3.7037,-3.7203,-3.711,-3.6784,-3.6492,-3.6492,-3.6492,-3.6492,-3.6492,-3.6492,-3.6492,-3.6492,-3.6492,-3.6492,-3.6492,-3.6492,-3.6492,-3.6492,-3.6492,-3.6492,-3.6492,-3.6492,-3.6429,-3.632,-3.6227,-3.6211,-3.6163,-3.6132,-3.6022,-3.5863,-3.5799,-3.5735,-3.5604,-3.5572,-3.5572,-3.5539,-3.5522,-3.5522,-3.5489,-3.5489,-3.5489,-3.5489,-3.5489,-3.5489,-3.5489,-3.5489,-3.5489,-3.5489,-3.5489,-3.5489,-3.5489,-3.5489,-3.5489,-3.5489,-3.5489,-3.5489,-3.5489,-3.5489,-3.5489,-3.5489,-3.5489,-3.5489,-5.2498,-5.2281,-5.0782,-5.0112,-4.9912,-4.8369,-4.7699,-4.7699,-4.7699,-4.7699,-4.749,-4.666,-4.6165,-4.5701,-4.418,-4.3037,-4.2252,-4.1474,-4.0696,-4.0248,-4.0113,-4.0113,-4.0113,-4.0113,-4.0113,-4.0113,-4.0113,-4.0113,-4.0113,-4.0113,-4.0113,-4.0113,-4.0113,-4.0113,-4.0113,-4.0113,-4.0113,-4.0113,-4.0113,-4.0113,-4.0113,-4.0113,-4.0113,-4.0113,-4.0096,-4.0062,-3.9994,-3.9774,-3.8911,-3.7269,-3.7117,-3.7151,-3.7047,-3.7159,-3.7332,-3.7309,-3.6819,-3.6538,-3.6492,-3.6492,-3.6492,-3.6492,-3.6492,-3.6492,-3.6492,-3.6492,-3.6492,-3.6492,-3.6492,-3.6492,-3.6492,-3.6492,-3.6492,-3.6492,-3.6492,-3.6492,-3.646,-3.6336,-3.6305,-3.6398,-3.6241,-3.6037,-3.6005,-3.6005,-3.5894,-3.5784,-3.5735,-3.5735,-3.5703,-3.5668,-3.5554,-3.5522,-3.5522,-3.5554,-3.5539,-3.5504,-3.5504,-3.5572,-3.5539,-3.5489,-3.5489,-3.5489,-3.5489,-3.5489,-3.5489,-3.5489,-3.5489,-3.5489,-3.5489,-3.5489,-3.5489,-3.5489,-3.5489,-3.5489,-3.5459,-5.2498,-5.2317,-5.0764,-5.0112,-4.9876,-4.8369,-4.7699,-4.7699,-4.7699,-4.7699,-4.7533,-4.6976,-4.643,-4.5961,-4.463,-4.3389,-4.2375,-4.1559,-4.0798,-4.0197,-4.0113,-4.0113,-4.0113,-4.0113,-4.0113,-4.0113,-4.0113,-4.0113,-4.0113,-4.0113,-4.0113,-4.0113,-4.0113,-4.0113,-4.0113,-4.0113,-4.0113,-4.0113,-4.0113,-4.0113,-4.0113,-4.0113,-4.0113,-4.0113,-4.0113,-4.0113,-4.0045,-3.9571,-3.9123,-3.8556,-3.8396,-3.8413,-3.8273,-3.8084,-3.7917,-3.7742,-3.7065,-3.6492,-3.6492,-3.6492,-3.6492,-3.6492,-3.6492,-3.6492,-3.6492,-3.6492,-3.6492,-3.6492,-3.6492,-3.6492,-3.6492,-3.6492,-3.6492,-3.6492,-3.6492,-3.6492,-3.6492,-3.646,-3.6445,-3.6492,-3.6383,-3.6289,-3.6195,-3.6163,-3.61,-3.5958,-3.5926,-3.5926,-3.5863,-3.5767,-3.5653,-3.5636,-3.5604,-3.5589,-3.5604,-3.5537,-3.5554,-3.5621,-3.5589,-3.5537,-3.5489,-3.5489,-3.5489,-3.5489,-3.5489,-3.5489,-3.5489,-3.5489,-3.5489,-3.5489,-3.5489,-3.5489,-3.5489,-3.5489,-3.5429,-5.2498,-5.2353,-5.0778,-5.0112,-4.9894,-4.8387,-4.7699,-4.7699,-4.7699,-4.7699,-4.7593,-4.7147,-4.6613,-4.6039,-4.5069,-4.3794,-4.2373,-4.1847,-4.1085,-4.0197,-4.0113,-4.0113,-4.0113,-4.0113,-4.0113,-4.0113,-4.0113,-4.0113,-4.0113,-4.0113,-4.0113,-4.0113,-4.0113,-4.0113,-4.0113,-4.0113,-4.0113,-4.0113,-4.0113,-4.0113,-4.0113,-4.0113,-4.0113,-4.0113,-4.0113,-4.0113,-4.0028,-3.969,-3.9326,-3.9005,-3.8717,-3.8548,-3.8526,-3.837,-3.8117,-3.7857,-3.7182,-3.68,-3.6554,-3.6492,-3.6492,-3.6492,-3.6492,-3.6492,-3.6492,-3.6492,-3.6492,-3.6492,-3.6492,-3.6492,-3.6492,-3.6492,-3.6492,-3.6492,-3.6492,-3.6492,-3.6492,-3.6492,-3.6492,-3.6492,-3.6492,-3.6414,-3.6242,-3.6274,-3.6258,-3.6132,-3.61,-3.6085,-3.6053,-3.5926,-3.5831,-3.5782,-3.5782,-3.5782,-3.5782,-3.5733,-3.5716,-3.5782,-3.575,-3.5651,-3.5554,-3.5554,-3.5522,-3.5522,-3.5489,-3.5474,-3.5447,-3.5447,-3.5489,-3.5489,-3.5489,-3.5459,-3.5444,-3.51,-3.5085,-5.2498,-5.2371,-5.0782,-5.0112,-4.9836,-4.8405,-4.7699,-4.7699,-4.7699,-4.7699,-4.7615,-4.7191,-4.6707,-4.6056,-4.5544,-4.4267,-4.233,-4.2202,-4.1348,-4.0502,-4.0113,-4.0113,-4.0113,-4.0113,-4.0113,-4.0113,-4.0113,-4.0113,-4.0113,-4.0113,-4.0113,-4.0113,-4.0113,-4.0113,-4.0113,-4.0113,-4.0113,-4.0113,-4.0113,-4.0113,-4.0113,-4.0113,-4.0113,-4.0113,-4.0113,-4.0113,-4.0113,-4.0011,-3.9791,-3.914,-3.8464,-3.8396,-3.8289,-3.8279,-3.7965,-3.7605,-3.7479,-3.7252,-3.6785,-3.6785,-3.6723,-3.6723,-3.6662,-3.6523,-3.6554,-3.6492,-3.6492,-3.6492,-3.6492,-3.6492,-3.6492,-3.6492,-3.6492,-3.6492,-3.6492,-3.6492,-3.6492,-3.6492,-3.6492,-3.6492,-3.6492,-3.6383,-3.6352,-3.6352,-3.6429,-3.6289,-3.6258,-3.6258,-3.6211,-3.6085,-3.6022,-3.599,-3.5973,-3.5973,-3.5973,-3.5973,-3.5957,-3.5957,-3.5941,-3.5861,-3.5701,-3.5636,-3.5587,-3.5587,-3.5683,-3.5531,-3.5269,-3.5329,-3.5402,-3.5265,-3.5115,-3.522,-3.528,-3.4651,-3.4397,-5.2498,-5.2353,-5.0764,-5.0112,-4.9858,-4.8405,-4.7699,-4.7699,-4.7699,-4.7699,-4.7657,-4.7572,-4.6954,-4.6098,-4.5873,-4.4629,-4.2504,-4.2194,-4.1517,-4.0265,-4.0113,-4.0113,-4.0113,-4.0113,-4.0113,-4.0113,-4.0113,-4.0113,-4.0113,-4.0113,-4.0113,-4.0113,-4.0113,-4.0113,-4.0113,-4.0113,-4.0113,-4.0113,-4.0113,-4.0113,-4.0113,-4.0113,-4.0113,-4.0113,-4.0113,-4.0113,-4.0113,-4.0113,-4.0028,-3.9876,-3.9673,-3.9428,-3.9404,-3.9148,-3.8661,-3.8214,-3.8076,-3.7854,-3.7401,-3.7504,-3.7679,-3.7208,-3.7043,-3.6983,-3.6523,-3.6492,-3.6492,-3.6492,-3.6492,-3.6492,-3.6492,-3.6492,-3.6492,-3.6492,-3.6492,-3.6492,-3.6492,-3.6492,-3.6492,-3.6492,-3.6492,-3.6492,-3.646,-3.646,-3.646,-3.6414,-3.6414,-3.6414,-3.6352,-3.6258,-3.6226,-3.6195,-3.6132,-3.6132,-3.6163,-3.6163,-3.6132,-3.6147,-3.6115,-3.6115,-3.5957,-3.5861,-3.5861,-3.5861,-3.5925,-3.5633,-3.5125,-3.5123,-3.5213,-3.497,-3.4728,-3.4743,-3.4562,-3.4038,-3.3694,-5.2281,-5.181,-5.0619,-4.9872,-4.9383,-4.8242,-4.7699,-4.7699,-4.7699,-4.7699,-4.7699,-4.7699,-4.7236,-4.6478,-4.6143,-4.4831,-4.2843,-4.1638,-4.0874,-4.018,-4.0113,-4.0113,-4.0113,-4.0113,-4.0113,-4.0113,-4.0113,-4.0113,-4.0113,-4.0113,-4.0113,-4.0113,-4.0113,-4.0113,-4.0113,-4.0113,-4.0113,-4.0113,-4.0113,-4.0113,-4.0113,-4.0113,-4.0113,-4.0113,-4.0113,-4.0113,-4.0113,-4.0113,-4.0113,-4.0113,-4.0113,-4.0113,-4.0087,-3.9816,-3.9339,-3.8849,-3.8712,-3.8435,-3.8096,-3.7809,-3.7679,-3.7431,-3.7164,-3.6831,-3.6585,-3.6492,-3.6492,-3.6492,-3.6492,-3.6492,-3.6492,-3.6492,-3.6492,-3.6492,-3.6492,-3.6492,-3.6492,-3.6492,-3.6492,-3.6492,-3.6492,-3.6492,-3.6492,-3.6492,-3.6492,-3.6445,-3.6445,-3.646,-3.646,-3.6398,-3.6383,-3.6352,-3.6289,-3.6258,-3.632,-3.632,-3.6289,-3.6304,-3.6336,-3.6304,-3.6273,-3.621,-3.6178,-3.6024,-3.5792,-3.5301,-3.4888,-3.4948,-3.4719,-3.4295,-3.4023,-3.4023,-3.3844,-3.341,-3.314,-5.2027,-5.1212,-5.0438,-4.9637,-4.8818,-4.8061,-4.7699,-4.7699,-4.7699,-4.7699,-4.7699,-4.7699,-4.7385,-4.6845,-4.631,-4.4928,-4.2909,-4.1129,-4.018,-4.013,-4.0113,-4.0113,-4.0113,-4.0113,-4.0113,-4.0113,-4.0113,-4.0113,-4.0113,-4.0113,-4.0113,-4.0113,-4.0113,-4.0113,-4.0113,-4.0113,-4.0113,-4.0113,-4.0113,-4.0113,-4.0113,-4.0113,-4.0113,-4.0113,-4.0113,-4.0113,-4.0113,-4.0113,-4.0113,-4.0113,-4.0113,-4.0113,-4.0113,-4.007,-3.9825,-3.9242,-3.9259,-3.9028,-3.8518,-3.8084,-3.7812,-3.7565,-3.7013,-3.6631,-3.6554,-3.6492,-3.6492,-3.6492,-3.6492,-3.6492,-3.6492,-3.6492,-3.6492,-3.6492,-3.6492,-3.6492,-3.6492,-3.6492,-3.6492,-3.6492,-3.6492,-3.6492,-3.6492,-3.6492,-3.6492,-3.6492,-3.6492,-3.6492,-3.6492,-3.6492,-3.646,-3.646,-3.6398,-3.6367,-3.6383,-3.6414,-3.6383,-3.6398,-3.6429,-3.6353,-3.6307,-3.6076,-3.5891,-3.5766,-3.5459,-3.4955,-3.4468,-3.4241,-3.3923,-3.3485,-3.335,-3.335,-3.311,-3.2766,-3.2587,-5.2045,-5.1253,-5.0438,-4.9637,-4.884,-4.8022,-4.7699,-4.7699,-4.7699,-4.7699,-4.7699,-4.7678,-4.7407,-4.6908,-4.6358,-4.4771,-4.2655,-4.0917,-4.0113,-4.0113,-4.0113,-4.0113,-4.0113,-4.0113,-4.0113,-4.0113,-4.0113,-4.0113,-4.0113,-4.0113,-4.0113,-4.0113,-4.0113,-4.0113,-4.0113,-4.0113,-4.0113,-4.0113,-4.0113,-4.0113,-4.0113,-4.0113,-4.0113,-4.0113,-4.0113,-4.0113,-4.0113,-4.0113,-4.0113,-4.0113,-4.0113,-4.0113,-4.0113,-4.0113,-3.9799,-3.9513,-3.967,-3.9592,-3.9109,-3.8892,-3.859,-3.8181,-3.749,-3.6922,-3.6631,-3.6492,-3.6492,-3.6492,-3.6492,-3.6492,-3.6492,-3.6492,-3.6492,-3.6492,-3.6492,-3.6492,-3.6492,-3.6492,-3.6492,-3.6492,-3.6492,-3.6492,-3.6492,-3.6492,-3.6492,-3.6492,-3.6492,-3.6492,-3.6492,-3.6492,-3.6492,-3.6492,-3.6492,-3.646,-3.6492,-3.6492,-3.646,-3.646,-3.643,-3.6138,-3.6014,-3.5737,-3.5538,-3.5186,-3.4927,-3.4501,-3.4061,-3.3653,-3.3231,-3.2871,-3.2751,-3.2677,-3.2482,-3.2243,-3.1974,-5.1792,-5.0673,-5.0257,-4.9383,-4.8333,-4.7859,-4.7699,-4.7699,-4.7699,-4.7699,-4.7699,-4.7696,-4.7593,-4.7214,-4.6753,-4.5093,-4.2816,-4.0875,-4.0189,-4.0113,-4.0113,-4.0113,-4.0113,-4.0113,-4.0113,-4.0113,-4.0113,-4.0113,-4.0113,-4.0113,-4.0113,-4.0113,-4.0113,-4.0113,-4.0113,-4.0113,-4.0113,-4.0113,-4.0113,-4.0113,-4.0113,-4.0113,-4.0113,-4.0113,-4.0113,-4.0113,-4.0113,-4.0113,-4.0113,-4.0113,-4.0113,-4.0113,-4.0113,-4.007,-3.9952,-3.9773,-3.9944,-4.002,-3.9566,-3.9189,-3.8546,-3.8266,-3.7504,-3.6861,-3.66,-3.6492,-3.6492,-3.6492,-3.6492,-3.6492,-3.6492,-3.6492,-3.6492,-3.6492,-3.6492,-3.6492,-3.6492,-3.6492,-3.6492,-3.6492,-3.6492,-3.6492,-3.6492,-3.6492,-3.6492,-3.6492,-3.6492,-3.6492,-3.6492,-3.6492,-3.6492,-3.6492,-3.6492,-3.6492,-3.6492,-3.6492,-3.6368,-3.6353,-3.6261,-3.5968,-3.5614,-3.5306,-3.4799,-3.4309,-3.4067,-3.3903,-3.3526,-3.3001,-3.2612,-3.227,-3.2211,-3.2107,-3.1958,-3.175,-3.1614,-5.1393,-5.0093,-4.9908,-4.9021,-4.7826,-4.7699,-4.7699,-4.7699,-4.7699,-4.7699,-4.7699,-4.7699,-4.7717,-4.7424,-4.6472,-4.4976,-4.2823,-4.0909,-4.0189,-4.0113,-4.0113,-4.0113,-4.0113,-4.0113,-4.0113,-4.0113,-4.0113,-4.0113,-4.0113,-4.0113,-4.0113,-4.0113,-4.0113,-4.0113,-4.0113,-4.0113,-4.0113,-4.0113,-4.0113,-4.0113,-4.0113,-4.0113,-4.0113,-4.0113,-4.0113,-4.0113,-4.0113,-4.0113,-4.0113,-4.0113,-4.0113,-4.0113,-4.0113,-4.0113,-4.0113,-4.0113,-4.0113,-4.0113,-3.9825,-3.9206,-3.8657,-3.8546,-3.7385,-3.6846,-3.6631,-3.6631,-3.6492,-3.6492,-3.6492,-3.6492,-3.6492,-3.6492,-3.6492,-3.6492,-3.6492,-3.6492,-3.6492,-3.6492,-3.6492,-3.6492,-3.6492,-3.6492,-3.6492,-3.6492,-3.6492,-3.6492,-3.6492,-3.6492,-3.6492,-3.6492,-3.6492,-3.6492,-3.6492,-3.6492,-3.6492,-3.6492,-3.6292,-3.6045,-3.5907,-3.566,-3.5245,-3.4829,-3.4229,-3.3583,-3.331,-3.3089,-3.273,-3.2509,-3.2275,-3.2039,-3.1758,-3.17,-3.1847,-3.1805,-3.1686,-5.0927,-5.0039,-4.9329,-4.8532,-4.7772,-4.7699,-4.7699,-4.7699,-4.7699,-4.7699,-4.7699,-4.7678,-4.7678,-4.7158,-4.5222,-4.3649,-4.2287,-4.0934,-4.0113,-4.0113,-4.0113,-4.0113,-4.0113,-4.0113,-4.0113,-4.0113,-4.0113,-4.0113,-4.0113,-4.0113,-4.0113,-4.0113,-4.0113,-4.0113,-4.0113,-4.0113,-4.0113,-4.0113,-4.0113,-4.0113,-4.0113,-4.0113,-4.0113,-4.0113,-4.0113,-4.0113,-4.0113,-4.0113,-4.0113,-4.0113,-4.0113,-4.0113,-4.0113,-4.0113,-4.0113,-4.0113,-4.0113,-4.0113,-3.9995,-3.9418,-3.8974,-3.8739,-3.7883,-3.7401,-3.6997,-3.6723,-3.6492,-3.6492,-3.6492,-3.6492,-3.6492,-3.6492,-3.6492,-3.6492,-3.6492,-3.6492,-3.6492,-3.6492,-3.6492,-3.6492,-3.6492,-3.6492,-3.6492,-3.6492,-3.6492,-3.6492,-3.6492,-3.6492,-3.6492,-3.6492,-3.6492,-3.6492,-3.643,-3.643,-3.6199,-3.6245,-3.5984,-3.5722,-3.5506,-3.523,-3.466,-3.4121,-3.3506,-3.2967,-3.2696,-3.2591,-3.2492,-3.2275,-3.204,-3.1925,-3.184,-3.1883,-3.1955,-3.187,-3.1756,-4.9745,-4.9383,-4.9039,-4.842,-4.7753,-4.7699,-4.7699,-4.7699,-4.7699,-4.7699,-4.7699,-4.7717,-4.7551,-4.6748,-4.4572,-4.3252,-4.2407,-4.0909,-4.0113,-4.0113,-4.0113,-4.0113,-4.0113,-4.0113,-4.0113,-4.0113,-4.0113,-4.0113,-4.0113,-4.0113,-4.0113,-4.0113,-4.0113,-4.0113,-4.0113,-4.0113,-4.0113,-4.0113,-4.0113,-4.0113,-4.0113,-4.0113,-4.0113,-4.0113,-4.0113,-4.0113,-4.0113,-4.0113,-4.0113,-4.0113,-4.0113,-4.0113,-4.0113,-4.0113,-4.0113,-4.0113,-4.0113,-4.0113,-4.002,-3.9523,-3.9269,-3.892,-3.8141,-3.7268,-3.6952,-3.6693,-3.6492,-3.6492,-3.6492,-3.6492,-3.6492,-3.6492,-3.6492,-3.6492,-3.6492,-3.6492,-3.6492,-3.6492,-3.6492,-3.6492,-3.6492,-3.6492,-3.6492,-3.6492,-3.6492,-3.6492,-3.6492,-3.6492,-3.6492,-3.6492,-3.6492,-3.6492,-3.6415,-3.6338,-3.5999,-3.5799,-3.5444,-3.5152,-3.4951,-3.4597,-3.3921,-3.3321,-3.2906,-3.2659,-3.2552,-3.2419,-3.2302,-3.2219,-3.2122,-3.2094,-3.2038,-3.2038,-3.2081,-3.1996,-3.1883,-4.8601,-4.8583,-4.8583,-4.8239,-4.7735,-4.7699,-4.7699,-4.7699,-4.7699,-4.7699,-4.7657,-4.7515,-4.7102,-4.6086,-4.4202,-4.2915,-4.2439,-4.0874,-4.0265,-4.0113,-4.0113,-4.0113,-4.0113,-4.0113,-4.0113,-4.0113,-4.0113,-4.0113,-4.0113,-4.0113,-4.0113,-4.0113,-4.0113,-4.0113,-4.0113,-4.0113,-4.0113,-4.0113,-4.0113,-4.0113,-4.0113,-4.0113,-4.0113,-4.0113,-4.0113,-4.0113,-4.0113,-4.0113,-4.0113,-4.0113,-4.0113,-4.0113,-4.0113,-4.0113,-4.0113,-4.0113,-4.0113,-3.9969,-3.985,-3.9549,-3.9365,-3.8892,-3.8141,-3.7178,-3.6631,-3.6492,-3.6492,-3.6492,-3.6492,-3.6492,-3.6492,-3.6492,-3.6492,-3.6492,-3.6492,-3.6492,-3.6492,-3.6492,-3.6492,-3.6492,-3.6492,-3.6492,-3.6492,-3.6492,-3.6492,-3.6492,-3.6492,-3.6492,-3.6399,-3.6322,-3.6338,-3.6292,-3.6076,-3.5984,-3.5783,-3.5414,-3.4998,-3.4551,-3.4335,-3.3966,-3.329,-3.3013,-3.2782,-3.2567,-3.2413,-3.2398,-3.2358,-3.2302,-3.2262,-3.2219,-3.2219,-3.215,-3.2122,-3.2066,-3.1996,-4.779,-4.779,-4.7808,-4.7769,-4.7699,-4.7699,-4.7699,-4.7699,-4.7699,-4.7699,-4.7636,-4.7156,-4.631,-4.5075,-4.3791,-4.244,-4.1349,-4.0493,-4.018,-4.0113,-4.0113,-4.0113,-4.0113,-4.0113,-4.0113,-4.0113,-4.0113,-4.0113,-4.0113,-4.0113,-4.0113,-4.0113,-4.0113,-4.0113,-4.0113,-4.0113,-4.0113,-4.0113,-4.0113,-4.0113,-4.0113,-4.0113,-4.0113,-4.0113,-4.0113,-4.0113,-4.0113,-4.0113,-4.0113,-4.0113,-4.0113,-4.0113,-4.0113,-4.0113,-4.0113,-4.0113,-4.0113,-3.9901,-3.9653,-3.9653,-3.9601,-3.9028,-3.8141,-3.7148,-3.6585,-3.6492,-3.6492,-3.6492,-3.6492,-3.6492,-3.6492,-3.6492,-3.6492,-3.6492,-3.6492,-3.6492,-3.6492,-3.6492,-3.6492,-3.6492,-3.643,-3.6338,-3.6353,-3.6322,-3.643,-3.6445,-3.643,-3.643,-3.603,-3.5922,-3.5999,-3.5938,-3.5676,-3.5552,-3.5475,-3.5059,-3.446,-3.3906,-3.3565,-3.3183,-3.2705,-3.2567,-3.2613,-3.2536,-3.2398,-3.2398,-3.2398,-3.2358,-3.2358,-3.237,-3.237,-3.2302,-3.2247,-3.2219,-3.2122,-4.7699,-4.7699,-4.7699,-4.7699,-4.7699,-4.7699,-4.7699,-4.7699,-4.7699,-4.7699,-4.7636,-4.6804,-4.5887,-4.4778,-4.3287,-4.2116,-4.117,-4.0451,-4.0197,-4.0113,-4.0113,-4.0113,-4.0113,-4.0113,-4.0113,-4.0113,-4.0113,-4.0113,-4.0113,-4.0113,-4.0113,-4.0113,-4.0113,-4.0113,-4.0113,-4.0113,-4.0113,-4.0113,-4.0113,-4.0113,-4.0113,-4.0113,-4.0113,-4.0113,-4.0113,-4.0113,-4.0113,-4.0113,-4.0113,-4.0113,-4.0113,-4.0113,-4.0113,-4.0113,-4.0113,-4.0113,-4.0113,-3.9944,-3.9653,-3.9549,-3.9125,-3.8254,-3.7608,-3.7134,-3.6554,-3.6492,-3.6492,-3.6492,-3.6492,-3.6492,-3.6492,-3.6492,-3.6492,-3.6492,-3.6492,-3.6492,-3.6399,-3.6353,-3.6215,-3.6107,-3.6045,-3.5984,-3.603,-3.6091,-3.6245,-3.6384,-3.6368,-3.6276,-3.583,-3.5399,-3.5414,-3.5353,-3.5091,-3.4691,-3.4568,-3.4229,-3.3891,-3.3383,-3.2859,-3.2659,-3.2444,-3.2444,-3.2459,-3.2413,-3.2398,-3.2398,-3.2398,-3.2398,-3.2398,-3.2398,-3.2398,-3.2398,-3.237,-3.2358,-3.2247,-4.7699,-4.7699,-4.7699,-4.7699,-4.7699,-4.7699,-4.7699,-4.7699,-4.7699,-4.7699,-4.7578,-4.6383,-4.5367,-4.4349,-4.2826,-4.1577,-4.0849,-4.035,-4.0163,-4.0113,-4.0113,-4.0113,-4.0113,-4.0113,-4.0113,-4.0113,-4.0113,-4.0113,-4.0113,-4.0113,-4.0113,-4.0113,-4.0113,-4.0113,-4.0113,-4.0113,-4.0113,-4.0113,-4.0113,-4.0113,-4.0113,-4.0113,-4.0113,-4.0113,-4.0113,-4.0113,-4.0113,-4.0113,-4.0113,-4.0113,-4.0113,-4.0113,-4.0113,-4.0113,-4.0113,-4.0113,-4.007,-4.0045,-3.9747,-3.9216,-3.859,-3.7998,-3.7298,-3.6922,-3.6631,-3.6492,-3.6492,-3.6492,-3.6492,-3.6492,-3.6492,-3.6492,-3.6492,-3.6492,-3.6492,-3.6461,-3.6138,-3.5984,-3.5814,-3.5691,-3.5568,-3.5352,-3.5367,-3.5444,-3.5876,-3.5876,-3.563,-3.5599,-3.5476,-3.5045,-3.4645,-3.4568,-3.4428,-3.3967,-3.3552,-3.3567,-3.3537,-3.3013,-3.2598,-3.2536,-3.2413,-3.2398,-3.2398,-3.2398,-3.2398,-3.2398,-3.2398,-3.2398,-3.2398,-3.2398,-3.2398,-3.2398,-3.2398,-3.237,-3.2315,-4.7699,-4.7699,-4.7699,-4.7699,-4.7699,-4.7699,-4.7699,-4.7699,-4.7699,-4.7699,-4.7485,-4.5962,-4.4747,-4.378,-4.2268,-4.1112,-4.0434,-4.018,-4.0113,-4.0113,-4.0113,-4.0113,-4.0113,-4.0113,-4.0113,-4.0113,-4.0113,-4.0113,-4.0113,-4.0113,-4.0113,-4.0113,-4.0113,-4.0113,-4.0113,-4.0113,-4.0113,-4.0113,-4.0113,-4.0113,-4.0113,-4.0113,-4.0113,-4.0113,-4.0113,-4.0113,-4.0113,-4.0113,-4.0113,-4.0113,-4.0113,-4.0113,-4.0113,-4.0113,-4.0113,-4.0113,-4.0113,-3.9825,-3.9269,-3.8684,-3.8294,-3.7969,-3.7208,-3.6631,-3.6523,-3.6492,-3.6492,-3.6492,-3.6492,-3.6492,-3.6492,-3.643,-3.6384,-3.643,-3.6415,-3.6153,-3.5799,-3.5491,-3.5321,-3.5136,-3.4797,-3.4536,-3.4536,-3.4705,-3.5321,-3.5368,-3.4998,-3.4844,-3.4783,-3.4583,-3.4091,-3.3752,-3.3614,-3.3444,-3.3152,-3.3275,-3.3152,-3.2644,-3.2398,-3.2398,-3.2398,-3.2398,-3.2398,-3.2398,-3.2398,-3.2398,-3.2398,-3.2398,-3.2398,-3.2398,-3.2398,-3.2398,-3.2398,-3.2398,-3.2342,-4.7699,-4.7699,-4.7699,-4.7699,-4.7699,-4.7699,-4.7699,-4.7699,-4.7699,-4.7699,-4.7391,-4.6088,-4.4857,-4.3693,-4.2313,-4.1017,-4.0239,-4.0113,-4.0113,-4.0113,-4.0113,-4.0113,-4.0113,-4.0113,-4.0113,-4.0113,-4.0113,-4.0113,-4.0113,-4.0113,-4.0113,-4.0113,-4.0113,-4.0113,-4.0113,-4.0113,-4.0113,-4.0113,-4.0113,-4.0113,-4.0113,-4.0113,-4.0113,-4.0113,-4.0113,-4.0113,-4.0113,-4.0113,-4.0113,-4.0113,-4.0113,-4.0113,-4.0113,-4.0113,-4.0113,-4.0113,-4.007,-3.9825,-3.9242,-3.8657,-3.8124,-3.7621,-3.7074,-3.6523,-3.6492,-3.6492,-3.6492,-3.6461,-3.6415,-3.643,-3.6492,-3.6014,-3.5891,-3.6153,-3.6076,-3.5599,-3.523,-3.4982,-3.4736,-3.4506,-3.4229,-3.3891,-3.3767,-3.3827,-3.4321,-3.466,-3.4366,-3.3842,-3.366,-3.3737,-3.349,-3.3044,-3.2813,-3.2767,-3.2752,-3.289,-3.2921,-3.2567,-3.2398,-3.2398,-3.2398,-3.2398,-3.2398,-3.2398,-3.2398,-3.2398,-3.2398,-3.2398,-3.2398,-3.2398,-3.2398,-3.2398,-3.2398,-3.2398,-3.2342,-4.7783,-4.7723,-4.7451,-4.7322,-4.7355,-4.7591,-4.7699,-4.7645,-4.7446,-4.7283,-4.6904,-4.5475,-4.4231,-4.3185,-4.1968,-4.1022,-4.0113,-4.0113,-4.0113,-4.0113,-4.0113,-4.0113,-4.0113,-4.0113,-4.0113,-4.0113,-4.0113,-4.0113,-4.0113,-4.0113,-4.0113,-4.0113,-4.0113,-4.0113,-4.0113,-4.0113,-4.0113,-4.0113,-4.0113,-4.0113,-4.0113,-4.0113,-4.0113,-4.0113,-4.0113,-4.0113,-4.0113,-4.0113,-4.0113,-4.0113,-4.0113,-4.0113,-4.0113,-4.0113,-4.0113,-4.0113,-4.0045,-3.9773,-3.9242,-3.8613,-3.8067,-3.746,-3.6846,-3.6554,-3.6492,-3.6492,-3.6492,-3.6445,-3.6292,-3.6184,-3.6061,-3.5537,-3.5352,-3.5583,-3.5383,-3.4921,-3.4506,-3.4227,-3.3966,-3.3752,-3.3583,-3.3275,-3.3106,-3.3106,-3.329,-3.3521,-3.3675,-3.3183,-3.2767,-3.2906,-3.3044,-3.2705,-3.2444,-3.2505,-3.2521,-3.2521,-3.2521,-3.2413,-3.2398,-3.2398,-3.2398,-3.2398,-3.2398,-3.2398,-3.2398,-3.2398,-3.2398,-3.2398,-3.2398,-3.2398,-3.2398,-3.2398,-3.2398,-3.2398,-3.237,-4.7858,-4.7702,-4.6993,-4.6588,-4.6615,-4.7174,-4.75,-4.7479,-4.6776,-4.6486,-4.6298,-4.397,-4.3027,-4.2473,-4.0981,-4.0264,-4.0113,-4.0113,-4.0113,-4.0113,-4.0113,-4.0113,-4.0113,-4.0113,-4.0113,-4.0113,-4.0113,-4.0113,-4.0113,-4.0113,-4.0113,-4.0113,-4.0113,-4.0113,-4.0113,-4.0113,-4.0113,-4.0113,-4.0113,-4.0113,-4.0113,-4.0113,-4.0113,-4.0113,-4.0113,-4.0113,-4.0113,-4.0113,-4.0113,-4.0113,-4.0113,-4.0113,-4.0113,-4.0113,-4.0113,-4.0096,-4.0096,-3.9644,-3.9092,-3.8442,-3.7719,-3.7016,-3.6536,-3.6461,-3.6492,-3.6476,-3.6415,-3.6199,-3.5968,-3.5722,-3.5491,-3.5044,-3.4582,-3.4582,-3.4505,-3.412,-3.3675,-3.3367,-3.309,-3.289,-3.2736,-3.2582,-3.2613,-3.2613,-3.2752,-3.2813,-3.3059,-3.3044,-3.269,-3.2552,-3.2644,-3.2598,-3.2413,-3.2413,-3.2398,-3.2398,-3.2398,-3.2398,-3.2398,-3.2398,-3.2398,-3.2398,-3.2398,-3.2398,-3.2398,-3.2398,-3.2398,-3.2398,-3.2398,-3.2398,-3.2398,-3.2398,-3.2398,-3.2398,-3.2398,-4.6294,-4.6236,-4.5941,-4.5811,-4.5807,-4.5929,-4.5997,-4.5943,-4.5725,-4.5653,-4.554,-4.3924,-4.29,-4.257,-4.1224,-4.0502,-4.0221,-4.0113,-4.0113,-4.0113,-4.0113,-4.0113,-4.0113,-4.0113,-4.0113,-4.0113,-4.0113,-4.0113,-4.0113,-4.0113,-4.0113,-4.0113,-4.0113,-4.0113,-4.0113,-4.0113,-4.0113,-4.0113,-4.0113,-4.0113,-4.0113,-4.0113,-4.0113,-4.0113,-4.0113,-4.0113,-4.0113,-4.0113,-4.0113,-4.0113,-4.0113,-4.0113,-4.0113,-4.0113,-4.0096,-4.0045,-3.9722,-3.9162,-3.852,-3.7572,-3.6774,-3.6213,-3.5579,-3.5844,-3.6107,-3.6353,-3.6184,-3.5829,-3.5475,-3.5168,-3.4845,-3.4398,-3.4212,-3.4227,-3.3966,-3.3367,-3.3029,-3.2936,-3.2675,-3.2582,-3.2398,-3.2398,-3.2398,-3.2428,-3.2552,-3.2444,-3.2444,-3.2567,-3.2613,-3.249,-3.2428,-3.2398,-3.2398,-3.2398,-3.2398,-3.2398,-3.2398,-3.2398,-3.2398,-3.2398,-3.2398,-3.2398,-3.2398,-3.2398,-3.2398,-3.2398,-3.2398,-3.2398,-3.2398,-3.2398,-3.2398,-3.2398,-3.2398,-3.2398,-3.2398,-4.5678,-4.5526,-4.5199,-4.4832,-4.4482,-4.4388,-4.4349,-4.4403,-4.4675,-4.4838,-4.4652,-4.3233,-4.2489,-4.2051,-4.1015,-4.0328,-4.0121,-4.0113,-4.0113,-4.0113,-4.0113,-4.0113,-4.0113,-4.0113,-4.0113,-4.0113,-4.0113,-4.0113,-4.0113,-4.0113,-4.0113,-4.0113,-4.0113,-4.0113,-4.0113,-4.0113,-4.0113,-4.0113,-4.0113,-4.0113,-4.0113,-4.0113,-4.0113,-4.0113,-4.0113,-4.0113,-4.0113,-4.0113,-4.0113,-4.0113,-4.0113,-4.0113,-4.0113,-4.0113,-4.0113,-3.9995,-3.9497,-3.8916,-3.8214,-3.7067,-3.62,-3.554,-3.5012,-3.5321,-3.5498,-3.5671,-3.5442,-3.5121,-3.4844,-3.4551,-3.4152,-3.3844,-3.3952,-3.406,-3.3383,-3.269,-3.2598,-3.2567,-3.249,-3.2428,-3.2398,-3.2398,-3.2398,-3.2398,-3.2398,-3.2398,-3.2398,-3.2444,-3.249,-3.2444,-3.2413,-3.2398,-3.2398,-3.2398,-3.2398,-3.2398,-3.2398,-3.2398,-3.2398,-3.2398,-3.2398,-3.2398,-3.2398,-3.2398,-3.2398,-3.2398,-3.2398,-3.2398,-3.2398,-3.2398,-3.2398,-3.2398,-3.2398,-3.2398,-3.2398,-4.5535,-4.5234,-4.46,-4.3833,-4.2992,-4.301,-4.3009,-4.2992,-4.3715,-4.3967,-4.3628,-4.2268,-4.1591,-4.137,-4.058,-4.0221,-4.0113,-4.0113,-4.0113,-4.0113,-4.0113,-4.0113,-4.0113,-4.0113,-4.0113,-4.0113,-4.0113,-4.0113,-4.0113,-4.0113,-4.0113,-4.0113,-4.0113,-4.0113,-4.0113,-4.0113,-4.0113,-4.0113,-4.0113,-4.0113,-4.0113,-4.0113,-4.0113,-4.0113,-4.0113,-4.0113,-4.0113,-4.0113,-4.0113,-4.0113,-4.0113,-4.0113,-4.0113,-4.0113,-4.0113,-3.9775,-3.9261,-3.8688,-3.7873,-3.6755,-3.5937,-3.5427,-3.5217,-3.4991,-3.487,-3.5205,-3.5076,-3.4618,-3.4324,-3.4041,-3.3675,-3.326,-3.3198,-3.3306,-3.2982,-3.2582,-3.2475,-3.2459,-3.2444,-3.2398,-3.2398,-3.2398,-3.2398,-3.2398,-3.2398,-3.2398,-3.2398,-3.2398,-3.2398,-3.2398,-3.2398,-3.2398,-3.2398,-3.2398,-3.2398,-3.2398,-3.2398,-3.2398,-3.2398,-3.2398,-3.2398,-3.2398,-3.2398,-3.2398,-3.2398,-3.2398,-3.2398,-3.2398,-3.2398,-3.2398,-3.2398,-3.2398,-3.2398,-3.2398,-3.2398,-4.4031,-4.396,-4.3634,-4.3306,-4.3049,-4.2938,-4.2919,-4.2919,-4.31,-4.3017,-4.255,-4.187,-4.1298,-4.0926,-4.041,-4.0113,-4.0113,-4.0113,-4.0113,-4.0113,-4.0113,-4.0113,-4.0113,-4.0113,-4.0113,-4.0113,-4.0113,-4.0113,-4.0113,-4.0113,-4.0113,-4.0113,-4.0113,-4.0113,-4.0113,-4.0113,-4.0113,-4.0113,-4.0113,-4.0113,-4.0113,-4.0113,-4.0113,-4.0113,-4.0113,-4.0113,-4.0113,-4.0113,-4.0113,-4.0113,-4.0113,-4.0113,-4.0113,-4.0096,-4.0079,-3.9885,-3.8917,-3.8279,-3.7591,-3.6472,-3.5445,-3.4997,-3.4679,-3.4165,-3.4127,-3.4731,-3.4798,-3.4235,-3.3802,-3.3512,-3.3229,-3.2798,-3.2518,-3.2598,-3.269,-3.2536,-3.2398,-3.2398,-3.2398,-3.2398,-3.2398,-3.2398,-3.2398,-3.2398,-3.2398,-3.2398,-3.2398,-3.2398,-3.2398,-3.2398,-3.2398,-3.2398,-3.2398,-3.2398,-3.2398,-3.2398,-3.2398,-3.2398,-3.2398,-3.2398,-3.2398,-3.2398,-3.2398,-3.2398,-3.2398,-3.2398,-3.2398,-3.2398,-3.2398,-3.2398,-3.2398,-3.2398,-3.2398,-3.2398,-3.2398,-4.3444,-4.3357,-4.3232,-4.3178,-4.3142,-4.305,-4.3031,-4.2994,-4.2787,-4.2418,-4.199,-4.1613,-4.1253,-4.0778,-4.0303,-4.0113,-4.0113,-4.0113,-4.0113,-4.0113,-4.0113,-4.0113,-4.0113,-4.0113,-4.0113,-4.0113,-4.0113,-4.0113,-4.0113,-4.0113,-4.0113,-4.0113,-4.0113,-4.0113,-4.0113,-4.0113,-4.0113,-4.0113,-4.0113,-4.0113,-4.0113,-4.0113,-4.0113,-4.0113,-4.0113,-4.0113,-4.0113,-4.0113,-4.0113,-4.0113,-4.0113,-3.9791,-3.969,-3.9554,-3.9385,-3.8888,-3.816,-3.7519,-3.7028,-3.6175,-3.5003,-3.4791,-3.4401,-3.3976,-3.3832,-3.4271,-3.3803,-3.3294,-3.3129,-3.2829,-3.2813,-3.249,-3.2459,-3.2521,-3.2521,-3.2444,-3.2398,-3.2398,-3.2398,-3.2398,-3.2398,-3.2398,-3.2398,-3.2398,-3.2398,-3.2398,-3.2398,-3.2398,-3.2398,-3.2398,-3.2398,-3.2398,-3.2398,-3.2398,-3.2398,-3.2398,-3.2398,-3.2398,-3.2398,-3.2398,-3.2398,-3.2398,-3.2398,-3.2398,-3.2398,-3.2398,-3.2398,-3.2398,-3.2398,-3.2398,-3.2398,-3.2398,-3.2398,-3.2398,-3.2398,-4.341,-4.3232,-4.3233,-4.3233,-4.3214,-4.3123,-4.3087,-4.3013,-4.2575,-4.2053,-4.1666,-4.1516,-4.1162,-4.0683,-4.0328,-4.0196,-4.0113,-4.0113,-4.0113,-4.0113,-4.0113,-4.0113,-4.0113,-4.0113,-4.0113,-4.0113,-4.0113,-4.0113,-4.0113,-4.0113,-4.0113,-4.0113,-4.0113,-4.0113,-4.0113,-4.0113,-4.0113,-4.0113,-4.0113,-4.0113,-4.0113,-4.0113,-4.0113,-4.0113,-4.0113,-4.0113,-4.0113,-4.0113,-4.0113,-4.0113,-4.0096,-3.9859,-3.9486,-3.9292,-3.887,-3.8381,-3.757,-3.7101,-3.6649,-3.5823,-3.5224,-3.4818,-3.4358,-3.4061,-3.3935,-3.3517,-3.3038,-3.2746,-3.2554,-3.2471,-3.2428,-3.2428,-3.2428,-3.2428,-3.2413,-3.2398,-3.2398,-3.2398,-3.2398,-3.2398,-3.2398,-3.2398,-3.2398,-3.2398,-3.2398,-3.2398,-3.2398,-3.2398,-3.2398,-3.2398,-3.2398,-3.2398,-3.2398,-3.2398,-3.2398,-3.2398,-3.2398,-3.2398,-3.2398,-3.2398,-3.2398,-3.2398,-3.2398,-3.2398,-3.2398,-3.2398,-3.2398,-3.2398,-3.2398,-3.2398,-3.2398,-3.2398,-3.2398,-3.2398,-3.2398,-4.348,-4.3445,-4.3394,-4.3358,-4.3305,-4.29,-4.2727,-4.2631,-4.2213,-4.1731,-4.1378,-4.1237,-4.089,-4.0246,-4.0171,-4.0113,-4.0138,-4.0113,-4.0113,-4.0113,-4.0113,-4.0113,-4.0113,-4.0113,-4.0113,-4.0113,-4.0113,-4.0113,-4.0113,-4.0113,-4.0113,-4.0113,-4.0113,-4.0113,-4.0113,-4.0113,-4.0113,-4.0113,-4.0113,-4.0113,-4.0113,-4.0113,-4.0113,-4.0113,-4.0113,-4.0113,-4.0113,-4.0113,-4.0113,-4.0113,-4.0028,-3.9859,-3.9469,-3.8988,-3.8531,-3.7956,-3.711,-3.6755,-3.6257,-3.5761,-3.536,-3.5247,-3.4793,-3.4309,-3.3995,-3.3459,-3.3018,-3.2645,-3.2496,-3.2441,-3.2413,-3.2413,-3.2413,-3.2413,-3.2398,-3.2398,-3.2398,-3.2398,-3.2398,-3.2398,-3.2398,-3.2398,-3.2398,-3.2398,-3.2398,-3.2398,-3.2398,-3.2398,-3.2398,-3.2398,-3.2398,-3.2398,-3.2398,-3.2398,-3.2398,-3.2398,-3.2398,-3.2398,-3.2398,-3.2398,-3.2398,-3.2398,-3.2398,-3.2398,-3.2398,-3.2398,-3.2398,-3.2398,-3.2398,-3.2398,-3.2398,-3.2398,-3.2398,-3.2398,-3.2398]},{"header":{"parameterUnit":"m.s-1","parameterCategory":1,"la1":31.0,"la2":29.5877,"lo1":-88.7671,"lo2":-86.6584,"dy":0.0162,"dx":0.0185,"nx":115,"ny":88,"refTime":"2024-06-24T18:00:00:Z","depth":0,"parameterNumber":3,"parameterNumberName":"V-component_of_WINDS"},"data":[0.0,0.0,0.0,0.0,0.0,0.0,0.0,0.0,0.0,0.0,0.0,0.0,0.0,0.0,0.0,0.0,0.0,0.0,0.0,0.0,0.0,0.0,0.0,0.0,0.0,0.0,0.0,0.0,0.0,0.0,0.0,0.0,0.0,0.0,0.0,0.0,0.0,0.0,0.0,0.0,0.0,0.0,0.0,0.0,0.0,0.0,0.0,0.0,0.0,0.0,0.0,0.0,0.0,0.0,0.0,0.0,0.0,0.0,0.0,0.0,0.0,0.0,0.0,0.0,0.0,0.0,0.0,0.0,0.0,0.0,0.0,0.0,0.0,0.0,0.0,0.0,0.0,0.0,0.0,0.0,0.0,0.0,0.0,0.0,0.0,0.0,0.0,0.0,0.0,0.0,0.0,0.0,0.0,0.0,0.0,0.0,0.0,0.0,0.0,0.0,0.0,0.0,0.0,0.0,0.0,0.0,0.0,0.0,0.0,0.0,0.0,0.0,0.0,0.0,0.0,0.0,0.0,0.0,0.0,0.0,0.0,0.0,0.0,0.0,0.0,0.0,0.0,0.0,0.0,0.0,0.0,0.0,0.0,0.0,0.0,0.0,0.0,0.0,0.0,0.0,0.0,0.0,0.0,0.0,0.0,0.0,0.0,0.0,0.0,0.0,0.0,0.0,0.0,0.0,0.0,0.0,0.0,0.0,0.0,0.0,0.0,0.0,0.0,0.0,0.0,0.0,0.0,0.0,0.0,0.0,0.0,0.0,0.0,0.0,0.0,0.0,0.0,0.0,0.0,0.0,0.0,0.0,0.0,0.0,0.0,0.0,0.0,0.0,0.0,0.0,0.0,0.0,0.0,0.0,0.0,0.0,0.0,0.0,0.0,0.0,0.0,0.0,0.0,0.0,0.0,0.0,0.0,0.0,0.0,0.0,0.0,0.0,0.0,0.0,0.0,0.0,0.0,0.0,0.0,0.0,0.0,0.0,0.0,0.0,0.0,0.0,0.0,0.0,0.0,0.0,0.0,0.0,0.0,0.0,0.0,0.0,0.0,0.0,0.0,0.0,0.0,0.0,0.0,0.0,0.0,0.0,0.0,0.0,0.0,0.0,0.0,0.0,0.0,0.0,0.0,0.0,0.0,0.0,0.0,0.0,0.0,0.0,0.0,0.0,0.0,0.0,0.0,0.0,0.0,0.0,0.0,0.0,0.0,0.0,0.0,0.0,0.0,0.0,0.0,0.0,0.0,0.0,0.0,0.0,0.0,0.0,0.0,0.0,0.0,0.0,0.0,0.0,0.0,0.0,0.0,0.0,0.0,0.0,0.0,0.0,0.0,0.0,0.0,0.0,0.0,0.0,0.0,0.0,0.0,0.0,0.0,0.0,0.0,0.0,0.0,0.0,0.0,0.0,0.0,0.0,0.0,0.0,0.0,0.0,0.0,0.0,0.0,0.0,0.0,0.0,0.0,0.0,0.0,0.0,0.0,0.0,0.0,0.0,0.0,0.0,0.0,0.0,0.0,0.0,0.0,0.0,0.0,0.0,0.0,0.0,0.0,0.0,0.0,0.0,0.0,0.0,0.0,0.0,0.0,0.0,0.0,0.0,0.0,0.0,0.0,0.0,0.0,0.0,0.0,0.0,0.0,0.0,0.0,0.0,0.0,0.0,0.0,0.0,0.0,0.0,0.0,0.0,0.0,0.0,0.0,0.0,0.0,0.0,0.0,0.0,0.0,0.0,0.0,0.0,0.0,0.0,0.0,0.0,0.0,0.0,0.0,0.0,0.0,0.0,0.0,0.0,0.0,0.0,0.0,0.0,0.0,0.0,0.0,0.0,0.0,0.0,0.0,0.0,0.0,0.0,0.0,0.0,0.0,0.0,0.0,0.0,0.0,0.0,0.0,0.0,0.0,0.0,0.0,0.0,0.0,0.0,0.0,0.0,0.0,0.0,0.0,0.0,0.0,0.0,0.0,0.0,0.0,0.0,0.0,0.0,0.0,0.0,0.0,0.0,0.0,0.0,0.0,0.0,0.0,0.0,0.0,0.0,0.0,0.0,0.0,0.0,0.0,0.0,0.0,0.0,0.0,0.0,0.0,0.0,0.0,0.0,0.0,0.0,0.0,0.0,0.0,0.0,0.0,0.0,0.0,0.0,0.0,0.0,0.0,0.0,0.0,0.0,0.0,0.0,0.0,0.0,0.0,0.0,0.0,0.0,0.0,0.0,0.0,0.0,0.0,0.0,0.0,0.0,0.0,0.0,0.0,0.0,0.0,0.0,0.0,0.0,0.0,0.0,0.0,0.0,0.0,0.0,0.0,0.0,0.0,0.0,0.0,0.0,0.0,0.0,0.0,0.0,0.0,0.0,0.0,0.0,0.0,0.0,0.0,0.0,0.0,0.0,0.0,0.0,0.0,0.0,0.0,0.0,0.0,0.0,0.0,0.0,0.0,0.0,0.0,0.0,0.0,0.0,0.0,0.0,0.0,0.0,0.0,0.0,0.0,0.0,0.0,0.0,0.0,0.0,0.0,0.0,0.0,0.0,0.0,0.0,0.0,0.0,0.0,0.0,0.0,0.0,0.0,0.0,0.0,0.0,0.0,0.0,0.0,0.0,0.0,0.0,0.0,0.0,0.0,0.0,0.0,0.0,0.0,0.0,0.0,0.0,0.0,0.0,0.0,0.0,0.0,0.0,0.0,0.0,0.0,0.0,0.0,0.0,0.0,0.0,0.0,0.0,0.0,0.0,0.0,0.0,0.0,0.0,0.0,0.0,0.0,0.0,0.0,0.0,0.0,0.0,0.0,0.0,0.0,0.0,0.0,0.0,0.0,0.0,0.0,0.0,0.0,0.0,0.0,0.0,0.0,0.0,0.0,0.0,0.0,0.0,0.0,0.0,0.0,0.0,0.0,0.0,0.0,0.0,0.0,0.0,0.0,0.0,0.0,0.0,0.0,0.0,0.0,0.0,0.0,0.0,0.0,0.0,0.0,0.0,0.0,0.0,0.0,0.0,0.0,0.0,0.0,0.0,0.0,0.0,0.0,0.0,0.0,0.0,0.0,0.0,0.0,0.0,0.0,0.0,0.0,0.0,0.0,0.0,0.0,0.0,0.0,0.0,0.0,0.0,0.0,0.0,0.0,0.0,0.0,0.0,0.0,0.0,0.0,0.0,0.0,0.0,0.0,0.0,0.0,0.0,0.0,0.0,0.0,0.0,0.0,0.0,0.0,0.0,0.0,0.0,0.0,0.0,0.0,0.0,0.0,0.0,0.0,0.0,0.0,0.0,0.0,0.0,0.0,0.0,0.0,0.0,0.0,0.0,0.0,0.0,0.0,0.0,0.0,0.0,0.0,0.0,0.0,0.0,0.0,0.0,0.0,0.0,0.0,0.0,0.0,0.0,0.0,0.0,0.0,0.0,0.0,0.0,0.0,0.0,0.0,0.0,0.0,0.0,0.0,0.0,0.0,0.0,0.0,0.0,0.0,0.0,0.0,0.0,0.0,0.0,0.0,0.0,0.0,0.0,0.0,0.0,0.0,0.0,0.0,0.0,0.0,0.0,0.0,0.0,0.0,0.0,0.0,0.0,0.0,0.0,0.0,0.0,0.0,0.0,0.0,0.0,0.0,0.0,0.0,0.0,0.0,0.0,0.0,0.0,0.0,0.0,0.0,0.0,0.0,0.0,0.0,0.0,0.0,0.0,0.0,0.0,0.0,0.0,0.0,0.0,0.0,0.0,0.0,0.0,0.0,0.0,0.0,0.0,0.0,0.0,0.0,0.0,0.0,0.0,0.0,0.0,0.0,0.0,0.0,0.0,0.0,0.0,0.0,0.0,0.0,0.0,0.0,0.0,0.0,0.0,0.0,0.0,0.0,0.0,0.0,0.0,0.0,0.0,0.0,0.0,0.0,0.0,0.0,0.0,0.0,0.0,0.0,0.0,0.0,0.0,0.0,0.0,0.0,0.0,0.0,0.0,0.0,0.0,0.0,0.0,0.0,0.0,0.0,0.0,0.0,0.0,0.0,0.0,0.0,0.0,0.0,0.0,0.0,0.0,0.0,0.0,0.0,0.0,0.0,0.0,0.0,0.0,0.0,0.0,0.0,0.0,0.0,0.0,0.0,0.0,0.0,0.0,0.0,0.0,0.0,0.0,0.0,0.0,0.0,0.0,0.0,0.0,0.0,0.0,0.0,0.0,0.0,0.0,0.0,0.0,0.0,0.0,0.0,0.0,0.0,0.0,0.0,0.0,0.0,0.0,0.0,0.0,0.0,0.0,-1.1262,0.0,0.0,0.0,0.0,0.0,0.0,0.0,0.0,0.0,0.0,0.0,0.0,0.0,0.0,0.0,0.0,0.0,0.0,0.0,0.0,0.0,0.0,0.0,0.0,0.0,0.0,0.0,0.0,0.0,0.0,0.0,0.0,0.0,0.0,0.0,0.0,0.0,0.0,0.0,0.0,0.0,0.0,0.0,0.0,0.0,0.0,0.0,0.0,0.0,0.0,0.0,0.0,0.0,0.0,0.0,0.0,0.0,0.0,0.0,0.0,0.0,0.0,0.0,0.0,0.0,0.0,0.0,0.0,0.0,0.0,0.0,0.0,0.0,0.0,0.0,0.0,0.0,0.0,0.0,0.0,0.0,0.0,0.0,0.0,0.0,0.0,0.0,0.0,0.0,0.0,0.0,0.0,0.0,0.0,0.0,0.0,0.0,0.0,0.0,0.0,0.0,0.0,0.0,0.0,0.0,0.0,0.0,0.0,0.0,0.0,-1.2305,-1.2298,-1.173,-1.143,-1.141,0.0,0.0,0.0,0.0,0.0,0.0,0.0,0.0,0.0,0.0,0.0,0.0,0.0,0.0,0.0,0.0,0.0,0.0,0.0,0.0,0.0,0.0,0.0,0.0,0.0,0.0,0.0,0.0,0.0,0.0,0.0,0.0,0.0,0.0,0.0,0.0,0.0,0.0,0.0,0.0,0.0,0.0,0.0,0.0,0.0,0.0,0.0,0.0,0.0,0.0,0.0,0.0,0.0,0.0,0.0,0.0,0.0,0.0,0.0,0.0,0.0,0.0,0.0,0.0,0.0,0.0,0.0,0.0,0.0,0.0,0.0,0.0,0.0,0.0,0.0,0.0,0.0,0.0,0.0,0.0,0.0,0.0,0.0,0.0,0.0,0.0,0.0,0.0,0.0,0.0,0.0,0.0,0.0,0.0,0.0,0.0,0.0,0.0,0.0,0.0,0.0,0.0,0.0,0.0,0.0,0.0,0.0,0.0,0.0,0.0,0.0,0.0,-1.2004,-1.163,-1.1389,0.0,0.0,0.0,0.0,0.0,0.0,0.0,0.0,0.0,0.0,0.0,0.0,0.0,0.0,0.0,0.0,0.0,0.0,0.0,0.0,0.0,0.0,0.0,0.0,0.0,0.0,0.0,0.0,0.0,0.0,0.0,0.0,0.0,0.0,0.0,0.0,0.0,0.0,0.0,0.0,0.0,0.0,0.0,0.0,0.0,0.0,0.0,0.0,0.0,0.0,0.0,0.0,0.0,0.0,0.0,0.0,0.0,0.0,0.0,0.0,0.0,0.0,0.0,0.0,0.0,0.0,0.0,0.0,0.0,0.0,0.0,0.0,0.0,0.0,0.0,0.0,0.0,0.0,0.0,0.0,0.0,0.0,0.0,0.0,0.0,0.0,0.0,0.0,0.0,0.0,0.0,0.0,0.0,0.0,0.0,0.0,0.0,0.0,0.0,0.0,0.0,0.0,0.0,0.0,0.0,0.0,0.0,0.0,0.0,0.0,-1.2565,-1.3106,-1.2831,0.0,-1.1496,0.0,0.0,0.0,0.0,0.0,0.0,0.0,0.0,0.0,0.0,0.0,0.0,0.0,0.0,0.0,0.0,0.0,0.0,0.0,0.0,0.0,0.0,0.0,0.0,0.0,0.0,0.0,0.0,0.0,0.0,0.0,0.0,0.0,0.0,0.0,0.0,0.0,0.0,0.0,0.0,0.0,0.0,0.0,0.0,0.0,0.0,0.0,0.0,0.0,0.0,0.0,0.0,0.0,0.0,0.0,0.0,0.0,0.0,0.0,0.0,0.0,0.0,0.0,0.0,0.0,0.0,0.0,0.0,0.0,0.0,0.0,0.0,0.0,0.0,0.0,0.0,0.0,0.0,0.0,0.0,0.0,0.0,0.0,0.0,0.0,0.0,0.0,0.0,0.0,0.0,0.0,0.0,0.0,0.0,0.0,0.0,0.0,0.0,0.0,0.0,0.0,0.0,0.0,0.0,0.0,0.0,0.0,0.0,0.0,0.0,-1.2811,-1.32,-1.2572,-1.2013,0.0,0.0,0.0,0.0,0.0,0.0,0.0,0.0,0.0,0.0,0.0,0.0,0.0,0.0,0.0,0.0,0.0,0.0,0.0,0.0,0.0,0.0,0.0,0.0,0.0,0.0,0.0,0.0,0.0,0.0,0.0,0.0,0.0,0.0,0.0,0.0,0.0,0.0,0.0,0.0,0.0,0.0,0.0,0.0,0.0,0.0,0.0,0.0,0.0,0.0,0.0,0.0,0.0,0.0,0.0,0.0,0.0,0.0,0.0,0.0,0.0,0.0,0.0,0.0,0.0,0.0,0.0,0.0,0.0,0.0,0.0,0.0,0.0,0.0,0.0,0.0,0.0,0.0,0.0,0.0,0.0,0.0,0.0,0.0,0.0,0.0,0.0,0.0,0.0,0.0,0.0,0.0,0.0,0.0,0.0,0.0,0.0,0.0,0.0,0.0,0.0,0.0,0.0,0.0,0.0,0.0,0.0,0.0,0.0,0.0,-1.265,0.0,-1.328,-1.2779,-1.2118,-1.1329,0.0,0.0,0.0,0.0,0.0,0.0,0.0,0.0,0.0,0.0,0.0,0.0,0.0,0.0,0.0,0.0,0.0,0.0,0.0,0.0,0.0,0.0,0.0,0.0,0.0,0.0,0.0,0.0,0.0,0.0,0.0,0.0,0.0,0.0,0.0,0.0,0.0,0.0,0.0,0.0,0.0,0.0,0.0,0.0,0.0,0.0,0.0,0.0,0.0,0.0,0.0,0.0,0.0,0.0,0.0,0.0,0.0,0.0,0.0,0.0,0.0,0.0,0.0,0.0,0.0,0.0,0.0,0.0,0.0,0.0,0.0,0.0,0.0,0.0,0.0,0.0,0.0,0.0,0.0,0.0,0.0,0.0,0.0,0.0,0.0,0.0,0.0,0.0,0.0,0.0,0.0,0.0,0.0,0.0,0.0,0.0,0.0,0.0,0.0,0.0,0.0,0.0,0.0,0.0,0.0,0.0,0.0,0.0,0.0,-1.3052,-1.3026,-1.358,-1.3848,-1.3053,0.0,0.0,0.0,0.0,0.0,0.0,0.0,0.0,0.0,0.0,0.0,0.0,0.0,0.0,0.0,0.0,0.0,0.0,0.0,0.0,0.0,0.0,0.0,0.0,0.0,0.0,0.0,0.0,0.0,0.0,0.0,0.0,0.0,0.0,0.0,0.0,0.0,0.0,0.0,0.0,0.0,0.0,0.0,0.0,0.0,0.0,0.0,0.0,0.0,0.0,0.0,0.0,0.0,0.0,0.0,0.0,0.0,0.0,0.0,0.0,0.0,0.0,0.0,0.0,0.0,0.0,0.0,0.0,0.0,0.0,0.0,0.0,0.0,0.0,0.0,0.0,0.0,0.0,0.0,0.0,0.0,0.0,0.0,0.0,0.0,0.0,0.0,0.0,0.0,0.0,0.0,0.0,0.0,0.0,0.0,0.0,0.0,0.0,0.0,0.0,0.0,0.0,0.0,0.0,0.0,0.0,0.0,0.0,0.0,-1.1917,-1.2502,-1.3353,-1.4382,-1.3133,-1.2204,0.0,0.0,0.0,0.0,0.0,0.0,0.0,0.0,0.0,0.0,0.0,0.0,0.0,0.0,0.0,0.0,0.0,0.0,0.0,0.0,0.0,0.0,0.0,0.0,0.0,0.0,0.0,0.0,0.0,0.0,0.0,0.0,0.0,0.0,0.0,0.0,0.0,0.0,0.0,0.0,0.0,0.0,0.0,0.0,0.0,0.0,0.0,0.0,0.0,0.0,0.0,0.0,0.0,0.0,0.0,0.0,0.0,0.0,0.0,0.0,0.0,0.0,0.0,0.0,0.0,0.0,0.0,0.0,0.0,0.0,0.0,0.0,0.0,0.0,0.0,0.0,0.0,0.0,0.0,0.0,0.0,0.0,0.0,0.0,0.0,0.0,0.0,0.0,0.0,0.0,0.0,0.0,0.0,0.0,0.0,0.0,0.0,0.0,0.0,0.0,0.0,0.0,0.0,0.0,0.0,0.0,0.0,0.0,0.0,-1.171,0.0,-1.3816,0.0,-1.2852,-1.1802,0.0,0.0,0.0,0.0,0.0,0.0,0.0,0.0,0.0,0.0,0.0,0.0,0.0,0.0,0.0,0.0,0.0,0.0,0.0,0.0,0.0,0.0,0.0,0.0,0.0,0.0,0.0,0.0,0.0,0.0,0.0,0.0,0.0,0.0,0.0,0.0,0.0,0.0,0.0,0.0,0.0,0.0,0.0,0.0,0.0,0.0,0.0,0.0,0.0,0.0,0.0,0.0,0.0,0.0,0.0,0.0,0.0,0.0,0.0,0.0,0.0,0.0,0.0,0.0,0.0,0.0,0.0,0.0,0.0,0.0,0.0,0.0,0.0,0.0,0.0,0.0,0.0,0.0,0.0,0.0,0.0,0.0,0.0,0.0,0.0,0.0,0.0,0.0,0.0,0.0,0.0,0.0,0.0,0.0,0.0,0.0,0.0,0.0,0.0,0.0,0.0,0.0,0.0,0.0,0.0,0.0,0.0,0.0,-1.1484,-1.3126,-1.4311,-1.4342,-1.33,-1.3173,-1.2084,0.0,0.0,0.0,0.0,0.0,0.0,0.0,0.0,0.0,0.0,0.0,0.0,0.0,0.0,0.0,0.0,0.0,0.0,0.0,0.0,0.0,0.0,0.0,0.0,0.0,0.0,0.0,0.0,0.0,0.0,0.0,0.0,0.0,0.0,0.0,0.0,0.0,0.0,0.0,0.0,0.0,0.0,0.0,0.0,0.0,0.0,0.0,0.0,0.0,0.0,0.0,0.0,0.0,0.0,0.0,0.0,0.0,0.0,0.0,0.0,0.0,0.0,0.0,0.0,0.0,0.0,0.0,0.0,0.0,0.0,0.0,0.0,0.0,0.0,0.0,0.0,0.0,0.0,0.0,0.0,0.0,0.0,0.0,0.0,0.0,0.0,0.0,0.0,0.0,0.0,0.0,0.0,0.0,0.0,0.0,0.0,0.0,0.0,0.0,0.0,0.0,0.0,0.0,0.0,0.0,0.0,0.0,0.0,0.0,-1.2924,-1.3454,-1.4068,-1.4623,-1.2894,-1.2024,0.0,0.0,0.0,0.0,0.0,0.0,0.0,0.0,0.0,0.0,0.0,0.0,0.0,0.0,0.0,0.0,0.0,0.0,0.0,0.0,0.0,0.0,0.0,0.0,0.0,0.0,0.0,0.0,0.0,0.0,0.0,0.0,0.0,0.0,0.0,0.0,0.0,0.0,0.0,0.0,0.0,0.0,0.0,0.0,0.0,0.0,0.0,0.0,0.0,0.0,0.0,0.0,0.0,0.0,0.0,0.0,0.0,0.0,0.0,0.0,0.0,0.0,0.0,0.0,0.0,0.0,0.0,0.0,0.0,0.0,0.0,0.0,0.0,0.0,0.0,0.0,0.0,0.0,0.0,0.0,0.0,0.0,0.0,0.0,0.0,0.0,0.0,0.0,0.0,0.0,0.0,0.0,0.0,0.0,0.0,0.0,0.0,0.0,0.0,0.0,0.0,0.0,0.0,0.0,0.0,0.0,0.0,0.0,0.0,-1.3913,-1.4377,-1.4838,-1.5199,-1.3392,-1.2439,-1.2442,0.0,0.0,0.0,0.0,0.0,0.0,0.0,0.0,0.0,0.0,0.0,0.0,0.0,0.0,0.0,0.0,0.0,0.0,0.0,0.0,0.0,0.0,0.0,0.0,0.0,0.0,0.0,0.0,0.0,0.0,0.0,0.0,0.0,0.0,0.0,0.0,0.0,0.0,0.0,0.0,0.0,0.0,0.0,0.0,0.0,0.0,0.0,0.0,0.0,0.0,0.0,0.0,0.0,0.0,0.0,0.0,0.0,0.0,0.0,0.0,0.0,0.0,0.0,0.0,0.0,0.0,0.0,0.0,0.0,0.0,0.0,0.0,0.0,0.0,0.0,0.0,0.0,0.0,0.0,0.0,0.0,0.0,0.0,0.0,0.0,0.0,0.0,0.0,0.0,0.0,0.0,0.0,0.0,0.0,0.0,0.0,0.0,0.0,0.0,0.0,0.0,0.0,0.0,0.0,0.0,0.0,0.0,0.0,-1.5857,-1.6845,-1.6673,-1.52,-1.4532,-1.3352,0.0,0.0,0.0,0.0,0.0,0.0,0.0,0.0,0.0,0.0,0.0,0.0,0.0,0.0,0.0,0.0,0.0,0.0,0.0,0.0,0.0,0.0,0.0,0.0,0.0,0.0,0.0,0.0,0.0,0.0,0.0,0.0,0.0,0.0,0.0,0.0,0.0,0.0,0.0,0.0,0.0,0.0,0.0,0.0,0.0,0.0,0.0,0.0,0.0,0.0,0.0,0.0,0.0,0.0,0.0,0.0,0.0,0.0,0.0,0.0,0.0,0.0,0.0,0.0,0.0,0.0,0.0,0.0,0.0,0.0,0.0,0.0,0.0,0.0,0.0,0.0,0.0,0.0,0.0,0.0,0.0,0.0,0.0,0.0,0.0,0.0,0.0,0.0,0.0,0.0,0.0,0.0,0.0,0.0,0.0,0.0,0.0,0.0,0.0,0.0,0.0,0.0,0.0,0.0,0.0,0.0,0.0,0.0,0.0,-1.8016,-1.9763,-1.9821,-1.7958,-1.5963,-1.4961,0.0,0.0,0.0,0.0,0.0,0.0,0.0,0.0,0.0,0.0,0.0,0.0,0.0,0.0,0.0,0.0,0.0,0.0,0.0,0.0,0.0,0.0,0.0,0.0,0.0,0.0,0.0,0.0,0.0,0.0,0.0,0.0,0.0,0.0,0.0,0.0,0.0,0.0,0.0,0.0,0.0,0.0,0.0,0.0,0.0,0.0,0.0,0.0,0.0,0.0,0.0,0.0,0.0,0.0,0.0,0.0,0.0,0.0,0.0,0.0,0.0,0.0,0.0,0.0,0.0,0.0,0.0,0.0,0.0,0.0,0.0,0.0,0.0,0.0,0.0,0.0,0.0,0.0,0.0,0.0,0.0,0.0,0.0,0.0,0.0,0.0,0.0,0.0,0.0,0.0,0.0,0.0,0.0,0.0,0.0,0.0,0.0,0.0,0.0,0.0,0.0,0.0,0.0,0.0,0.0,0.0,0.0,0.0,-1.9211,-1.9715,-2.18,-2.2264,-2.0923,-1.8758,-1.7136,0.0,0.0,0.0,0.0,0.0,0.0,0.0,0.0,0.0,0.0,0.0,0.0,0.0,0.0,0.0,0.0,0.0,0.0,0.0,0.0,0.0,0.0,0.0,0.0,0.0,0.0,0.0,0.0,0.0,0.0,0.0,0.0,0.0,0.0,0.0,0.0,0.0,0.0,0.0,0.0,0.0,0.0,0.0,0.0,0.0,0.0,0.0,0.0,0.0,0.0,0.0,0.0,0.0,0.0,0.0,0.0,0.0,0.0,0.0,0.0,0.0,0.0,0.0,0.0,0.0,0.0,0.0,0.0,0.0,0.0,0.0,0.0,0.0,0.0,0.0,0.0,0.0,0.0,0.0,0.0,0.0,0.0,0.0,0.0,0.0,0.0,0.0,0.0,0.0,0.0,0.0,0.0,0.0,0.0,0.0,0.0,0.0,0.0,0.0,0.0,0.0,0.0,0.0,0.0,0.0,0.0,0.0,0.0,-2.0786,-2.1197,-2.3223,-2.4051,-2.3646,-2.179,-1.9462,0.0,0.0,0.0,0.0,0.0,0.0,0.0,0.0,0.0,0.0,0.0,0.0,0.0,0.0,0.0,0.0,0.0,0.0,0.0,0.0,0.0,0.0,0.0,0.0,0.0,0.0,0.0,0.0,0.0,0.0,0.0,0.0,0.0,0.0,0.0,0.0,0.0,0.0,0.0,0.0,0.0,0.0,0.0,0.0,0.0,0.0,0.0,0.0,0.0,0.0,0.0,0.0,0.0,0.0,0.0,0.0,0.0,0.0,0.0,0.0,0.0,0.0,0.0,0.0,0.0,0.0,0.0,0.0,0.0,0.0,0.0,0.0,0.0,0.0,0.0,0.0,0.0,0.0,0.0,0.0,0.0,0.0,0.0,0.0,0.0,0.0,0.0,0.0,0.0,0.0,0.0,0.0,0.0,0.0,0.0,0.0,0.0,0.0,0.0,0.0,0.0,0.0,0.0,0.0,0.0,0.0,0.0,0.0,-2.2423,-2.3174,-2.4622,-2.517,-2.4726,-2.2098,-2.0289,0.0,0.0,0.0,0.0,0.0,0.0,0.0,0.0,0.0,0.0,0.0,0.0,0.0,0.0,0.0,0.0,0.0,0.0,0.0,0.0,0.0,0.0,0.0,0.0,0.0,0.0,0.0,0.0,0.0,0.0,0.0,0.0,0.0,0.0,0.0,0.0,0.0,0.0,0.0,0.0,0.0,0.0,0.0,0.0,0.0,0.0,0.0,0.0,-1.7054,0.0,0.0,0.0,0.0,0.0,0.0,0.0,0.0,0.0,0.0,0.0,0.0,0.0,0.0,0.0,0.0,0.0,0.0,0.0,0.0,0.0,0.0,0.0,0.0,0.0,0.0,0.0,0.0,0.0,0.0,0.0,0.0,0.0,0.0,0.0,0.0,0.0,0.0,0.0,0.0,0.0,0.0,0.0,0.0,0.0,0.0,0.0,0.0,0.0,0.0,0.0,0.0,0.0,0.0,0.0,0.0,0.0,0.0,0.0,-2.332,-2.4375,-2.5264,-2.5625,-2.5342,-2.3252,-2.1471,0.0,0.0,0.0,0.0,0.0,0.0,0.0,0.0,0.0,0.0,0.0,0.0,0.0,0.0,0.0,0.0,0.0,0.0,0.0,0.0,0.0,0.0,0.0,0.0,0.0,0.0,0.0,0.0,0.0,0.0,0.0,0.0,0.0,0.0,0.0,0.0,0.0,0.0,0.0,0.0,0.0,0.0,0.0,0.0,0.0,0.0,0.0,0.0,0.0,0.0,0.0,0.0,0.0,0.0,0.0,0.0,0.0,0.0,0.0,0.0,0.0,0.0,0.0,0.0,0.0,0.0,0.0,0.0,0.0,0.0,0.0,0.0,0.0,0.0,0.0,0.0,0.0,0.0,0.0,0.0,0.0,0.0,0.0,0.0,0.0,0.0,0.0,0.0,0.0,0.0,0.0,0.0,0.0,0.0,0.0,0.0,0.0,0.0,0.0,0.0,0.0,0.0,0.0,0.0,0.0,0.0,0.0,-2.2019,-2.3672,-2.5107,-2.5537,-2.5684,-2.5674,-2.4531,-2.2676,-2.0127,0.0,0.0,0.0,0.0,0.0,0.0,0.0,0.0,0.0,0.0,0.0,0.0,0.0,0.0,0.0,0.0,0.0,0.0,0.0,0.0,0.0,0.0,0.0,0.0,0.0,0.0,0.0,0.0,0.0,0.0,0.0,0.0,0.0,0.0,0.0,0.0,0.0,0.0,-1.5136,-1.6572,0.0,0.0,0.0,0.0,0.0,0.0,0.0,0.0,-1.8408,0.0,0.0,0.0,0.0,0.0,0.0,0.0,0.0,0.0,0.0,0.0,0.0,0.0,0.0,0.0,0.0,0.0,0.0,0.0,0.0,0.0,0.0,0.0,0.0,0.0,0.0,0.0,0.0,0.0,0.0,0.0,0.0,0.0,0.0,0.0,0.0,0.0,0.0,0.0,0.0,0.0,0.0,0.0,0.0,0.0,0.0,0.0,0.0,0.0,0.0,0.0,0.0,0.0,0.0,0.0,0.0,-2.2012,-2.209,-2.3232,-2.5508,-2.5645,-2.5684,-2.5654,-2.4767,-2.3096,-2.0615,0.0,0.0,0.0,0.0,0.0,0.0,0.0,0.0,0.0,0.0,0.0,0.0,0.0,0.0,0.0,0.0,0.0,0.0,0.0,0.0,0.0,0.0,0.0,0.0,0.0,0.0,0.0,0.0,0.0,0.0,0.0,0.0,0.0,0.0,0.0,0.0,0.0,0.0,0.0,-1.7812,-1.8578,0.0,0.0,0.0,0.0,0.0,0.0,0.0,0.0,-1.911,0.0,0.0,0.0,0.0,0.0,0.0,0.0,0.0,0.0,0.0,0.0,0.0,0.0,0.0,0.0,0.0,0.0,0.0,0.0,0.0,0.0,0.0,0.0,0.0,0.0,0.0,0.0,0.0,0.0,0.0,0.0,0.0,0.0,0.0,0.0,0.0,0.0,0.0,0.0,0.0,0.0,0.0,0.0,0.0,0.0,0.0,0.0,0.0,0.0,0.0,0.0,0.0,0.0,0.0,0.0,-2.1377,-2.2617,-2.4023,-2.5615,-2.5684,-2.5625,-2.5361,-2.3906,-2.2197,0.0,0.0,0.0,0.0,0.0,0.0,0.0,0.0,0.0,0.0,0.0,0.0,0.0,0.0,0.0,0.0,0.0,0.0,0.0,0.0,0.0,0.0,0.0,0.0,0.0,0.0,0.0,0.0,0.0,0.0,0.0,0.0,0.0,0.0,0.0,0.0,0.0,0.0,0.0,0.0,-1.8217,-1.9045,-2.0224,0.0,0.0,0.0,0.0,0.0,0.0,-1.9069,-1.9035,0.0,0.0,0.0,0.0,0.0,0.0,0.0,0.0,0.0,0.0,0.0,0.0,0.0,0.0,0.0,0.0,0.0,0.0,0.0,0.0,0.0,0.0,0.0,0.0,0.0,0.0,0.0,0.0,0.0,0.0,0.0,0.0,0.0,0.0,0.0,0.0,0.0,0.0,0.0,0.0,0.0,0.0,0.0,0.0,0.0,0.0,0.0,0.0,0.0,0.0,0.0,0.0,0.0,0.0,0.0,-2.0351,-2.2773,-2.4551,-2.5499,-2.5605,-2.543,-2.5096,-2.3208,-2.1435,0.0,0.0,0.0,0.0,0.0,0.0,0.0,0.0,0.0,0.0,0.0,0.0,0.0,0.0,0.0,0.0,0.0,0.0,0.0,0.0,0.0,0.0,0.0,0.0,0.0,0.0,0.0,0.0,0.0,0.0,0.0,0.0,0.0,0.0,0.0,0.0,0.0,0.0,0.0,0.0,0.0,-1.9944,-2.1209,-2.0527,0.0,0.0,0.0,0.0,-2.0373,-1.9739,0.0,0.0,0.0,0.0,0.0,0.0,0.0,0.0,0.0,0.0,0.0,0.0,0.0,0.0,0.0,0.0,0.0,0.0,0.0,0.0,0.0,0.0,0.0,0.0,0.0,0.0,0.0,0.0,0.0,0.0,0.0,0.0,0.0,0.0,0.0,0.0,0.0,0.0,0.0,0.0,0.0,0.0,0.0,0.0,0.0,0.0,0.0,0.0,0.0,0.0,0.0,0.0,0.0,0.0,0.0,0.0,-1.9424,-2.1611,-2.3525,-2.5096,-2.5146,-2.5165,-2.5096,-2.3721,-2.198,0.0,0.0,0.0,0.0,0.0,0.0,0.0,0.0,0.0,0.0,0.0,0.0,0.0,0.0,0.0,0.0,0.0,0.0,0.0,0.0,0.0,0.0,0.0,0.0,0.0,0.0,0.0,0.0,0.0,0.0,0.0,0.0,0.0,0.0,0.0,0.0,0.0,0.0,0.0,0.0,0.0,-2.2164,-2.1487,-2.166,-2.2041,0.0,0.0,-2.0815,-2.1455,-2.1341,0.0,0.0,0.0,0.0,0.0,0.0,0.0,0.0,0.0,0.0,0.0,0.0,0.0,0.0,0.0,0.0,0.0,0.0,0.0,0.0,0.0,0.0,0.0,0.0,0.0,0.0,0.0,0.0,0.0,0.0,0.0,0.0,0.0,0.0,0.0,0.0,0.0,0.0,0.0,0.0,0.0,0.0,0.0,0.0,0.0,0.0,0.0,0.0,0.0,0.0,0.0,0.0,0.0,0.0,0.0,-1.7861,-1.9316,-2.1894,-2.3711,-2.4658,-2.4697,-2.458,-2.4392,-2.2373,-2.0489,0.0,0.0,0.0,0.0,0.0,0.0,0.0,0.0,0.0,0.0,0.0,0.0,0.0,0.0,0.0,0.0,0.0,0.0,0.0,0.0,0.0,0.0,0.0,0.0,0.0,0.0,0.0,0.0,0.0,0.0,0.0,0.0,0.0,0.0,0.0,0.0,0.0,0.0,0.0,0.0,0.0,0.0,-2.2531,-2.2698,0.0,0.0,0.0,-2.2366,-2.2842,0.0,0.0,0.0,0.0,0.0,0.0,0.0,0.0,0.0,0.0,0.0,0.0,0.0,0.0,0.0,0.0,0.0,0.0,0.0,0.0,0.0,0.0,0.0,0.0,0.0,0.0,0.0,0.0,0.0,0.0,0.0,0.0,0.0,0.0,0.0,0.0,0.0,0.0,0.0,0.0,0.0,0.0,0.0,0.0,0.0,0.0,0.0,0.0,0.0,0.0,0.0,0.0,0.0,0.0,0.0,0.0,0.0,-1.916,-2.2197,-2.3945,-2.4248,-2.4258,-2.4111,-2.376,-2.1484,0.0,0.0,0.0,0.0,0.0,0.0,0.0,0.0,0.0,0.0,0.0,0.0,0.0,0.0,0.0,0.0,0.0,0.0,0.0,0.0,0.0,0.0,0.0,0.0,0.0,0.0,0.0,-1.0508,0.0,0.0,0.0,0.0,0.0,0.0,0.0,0.0,0.0,0.0,0.0,0.0,0.0,0.0,-2.2955,-2.3809,-2.4126,-2.4645,0.0,0.0,-2.382,-2.4299,-2.415,-2.3627,0.0,0.0,0.0,0.0,0.0,0.0,0.0,0.0,0.0,0.0,0.0,0.0,0.0,0.0,0.0,0.0,0.0,0.0,0.0,0.0,0.0,0.0,0.0,0.0,0.0,0.0,0.0,0.0,0.0,0.0,0.0,0.0,0.0,0.0,0.0,0.0,0.0,0.0,0.0,0.0,0.0,0.0,0.0,0.0,0.0,0.0,0.0,0.0,0.0,0.0,0.0,0.0,0.0,0.0,0.0,-1.8734,-2.2051,-2.3799,-2.3838,-2.3828,-2.3818,-2.376,-2.207,-2.0527,0.0,0.0,0.0,0.0,0.0,0.0,0.0,0.0,0.0,0.0,0.0,0.0,0.0,0.0,0.0,0.0,0.0,0.0,0.0,0.0,0.0,0.0,0.0,0.0,0.0,0.0,0.0,0.0,0.0,0.0,0.0,0.0,0.0,0.0,0.0,0.0,0.0,0.0,0.0,0.0,0.0,-2.5407,-2.5159,-2.6302,-2.7356,0.0,0.0,-2.5126,-2.5813,-2.5248,-2.4205,-2.2661,0.0,0.0,0.0,0.0,0.0,0.0,0.0,0.0,0.0,0.0,0.0,0.0,0.0,0.0,0.0,0.0,0.0,0.0,0.0,0.0,0.0,0.0,0.0,0.0,0.0,0.0,0.0,0.0,0.0,0.0,0.0,0.0,0.0,0.0,0.0,0.0,0.0,0.0,0.0,0.0,0.0,0.0,0.0,0.0,0.0,0.0,0.0,0.0,0.0,0.0,0.0,0.0,0.0,-1.8178,-1.8627,-2.1768,-2.3344,-2.3344,-2.3389,-2.3344,-2.3389,-2.1941,-2.0371,0.0,0.0,0.0,0.0,0.0,0.0,0.0,0.0,0.0,0.0,0.0,0.0,0.0,0.0,0.0,0.0,0.0,0.0,0.0,0.0,0.0,0.0,0.0,0.0,0.0,0.0,0.0,0.0,-1.2914,-1.3368,-1.4451,0.0,0.0,0.0,0.0,0.0,0.0,0.0,0.0,0.0,0.0,-2.5816,-2.5588,-2.6801,0.0,0.0,-2.7303,-2.674,-2.682,-2.6822,-2.6286,-2.4641,-2.3933,0.0,0.0,0.0,0.0,0.0,0.0,0.0,0.0,0.0,0.0,0.0,0.0,0.0,0.0,0.0,0.0,0.0,0.0,0.0,0.0,0.0,0.0,0.0,0.0,0.0,0.0,0.0,0.0,0.0,0.0,0.0,0.0,0.0,0.0,0.0,0.0,0.0,0.0,0.0,0.0,0.0,0.0,0.0,0.0,0.0,0.0,0.0,0.0,0.0,0.0,0.0,0.0,-1.8164,-1.8828,-2.1639,-2.3101,-2.3101,-2.3101,-2.3101,-2.3062,-2.1863,-2.0362,0.0,0.0,0.0,0.0,0.0,0.0,0.0,0.0,0.0,0.0,0.0,0.0,0.0,0.0,0.0,0.0,0.0,0.0,0.0,0.0,0.0,0.0,0.0,0.0,0.0,0.0,0.0,0.0,-1.4003,-1.4289,-1.4791,0.0,0.0,0.0,0.0,0.0,0.0,0.0,0.0,0.0,0.0,-2.636,-2.6275,-2.7321,-2.816,-2.8324,-2.7928,-2.7606,-2.7548,-2.772,-2.7344,-2.5837,0.0,0.0,0.0,0.0,0.0,0.0,0.0,0.0,0.0,0.0,0.0,0.0,0.0,0.0,0.0,0.0,0.0,0.0,0.0,0.0,0.0,0.0,0.0,0.0,0.0,0.0,0.0,0.0,0.0,0.0,-0.9674,0.0,0.0,0.0,0.0,0.0,0.0,0.0,0.0,0.0,0.0,0.0,0.0,0.0,0.0,0.0,0.0,0.0,0.0,0.0,0.0,0.0,0.0,-1.8071,-1.9277,-2.1826,-2.3101,-2.3101,-2.3101,-2.3101,-2.3071,-2.1863,-2.0761,-1.9824,0.0,0.0,0.0,0.0,0.0,0.0,0.0,0.0,0.0,0.0,0.0,0.0,0.0,0.0,0.0,0.0,0.0,0.0,0.0,0.0,0.0,0.0,0.0,0.0,0.0,0.0,-1.4212,-1.4714,-1.4788,0.0,0.0,0.0,0.0,0.0,0.0,0.0,0.0,0.0,0.0,-2.5743,-2.7281,-2.7258,-2.8198,-2.8838,-2.8875,-2.801,-2.7532,-2.8021,-2.7693,-2.6904,0.0,0.0,0.0,0.0,0.0,0.0,0.0,0.0,0.0,0.0,0.0,0.0,0.0,0.0,0.0,0.0,0.0,0.0,0.0,0.0,0.0,0.0,0.0,0.0,0.0,0.0,0.0,-1.2347,-1.1317,0.0,0.0,0.0,0.0,0.0,0.0,0.0,0.0,0.0,0.0,0.0,-1.9102,-1.9648,0.0,0.0,0.0,0.0,0.0,0.0,0.0,0.0,0.0,0.0,0.0,0.0,-1.8701,-1.9756,-2.1931,-2.3101,-2.3101,-2.3101,-2.3101,-2.3081,-2.2187,-2.0713,-1.8701,0.0,0.0,0.0,0.0,0.0,0.0,0.0,0.0,0.0,0.0,0.0,0.0,0.0,0.0,0.0,0.0,0.0,0.0,0.0,0.0,0.0,0.0,0.0,0.0,0.0,-1.3412,0.0,0.0,0.0,0.0,0.0,0.0,0.0,0.0,0.0,0.0,0.0,-2.3727,-2.4822,-2.6314,-2.7419,-2.7783,-2.8424,-2.9013,0.0,0.0,0.0,0.0,0.0,0.0,0.0,0.0,0.0,0.0,0.0,0.0,0.0,0.0,-2.5373,-2.3185,-2.2502,-2.2343,-2.2548,0.0,0.0,0.0,0.0,0.0,0.0,0.0,0.0,0.0,0.0,0.0,0.0,0.0,0.0,-1.4421,0.0,-1.5116,0.0,0.0,0.0,0.0,0.0,0.0,0.0,0.0,-2.0254,-2.0967,-2.084,-2.126,-2.124,0.0,-2.0684,-1.9072,0.0,0.0,0.0,0.0,0.0,0.0,0.0,0.0,-1.9104,-2.0166,-2.2077,-2.3101,-2.3101,-2.3101,-2.3101,-2.3081,-2.2136,-2.0654,-1.8516,-1.707,-1.5625,0.0,0.0,0.0,0.0,0.0,0.0,0.0,0.0,0.0,0.0,0.0,0.0,0.0,0.0,0.0,0.0,0.0,0.0,0.0,0.0,0.0,0.0,0.0,-1.4417,0.0,0.0,0.0,0.0,0.0,0.0,0.0,0.0,0.0,-2.2209,-2.3714,-2.5222,-2.633,-2.7268,-2.7921,-2.8084,0.0,0.0,0.0,0.0,0.0,0.0,0.0,-2.8323,-2.8134,-2.7971,-2.7846,-2.7821,-2.7971,-2.7921,-2.7381,0.0,0.0,-2.5008,-2.4431,-2.4293,-2.4261,-2.4594,-2.4732,-2.4368,-2.4745,-2.4971,0.0,0.0,0.0,0.0,0.0,0.0,0.0,0.0,-1.5745,-1.6076,0.0,-1.7243,0.0,0.0,0.0,0.0,0.0,-1.9597,0.0,0.0,-2.2275,-2.2857,-2.2559,-2.2867,-2.2867,-2.2568,-2.2838,-2.1951,-1.9961,-1.876,0.0,0.0,0.0,0.0,0.0,0.0,-1.9326,-2.0654,-2.2275,-2.3101,-2.3101,-2.3101,-2.3081,-2.3013,-2.1863,-2.0605,-1.9355,-1.8457,-1.7227,-1.5508,-1.4238,0.0,0.0,0.0,0.0,0.0,0.0,0.0,0.0,0.0,0.0,0.0,0.0,0.0,0.0,0.0,0.0,0.0,0.0,0.0,0.0,-1.5211,0.0,0.0,0.0,0.0,0.0,0.0,0.0,0.0,0.0,0.0,-2.4035,-2.5477,-2.6927,-2.7934,0.0,0.0,0.0,0.0,-2.8938,-2.9013,-2.8561,-2.8436,-2.8913,-2.895,-2.875,-2.8298,0.0,0.0,-2.757,-2.7821,-2.8021,-2.7482,-2.7871,-2.7971,-2.7394,-2.6826,-2.6499,-2.6487,-2.6487,-2.6537,-2.6562,-2.6826,-2.7017,-1.7445,0.0,0.0,0.0,0.0,-1.6094,-1.6996,-1.866,-1.9253,-1.9201,-1.8766,-2.0093,0.0,0.0,0.0,0.0,0.0,0.0,-2.0948,-2.1574,-2.2324,-2.274,-2.2916,-2.3042,-2.3033,-2.2925,-2.3042,-2.2623,-2.1787,-2.1396,-1.9639,-1.658,0.0,0.0,0.0,0.0,-2.0498,-2.1514,-2.2545,-2.3101,-2.3101,-2.3101,-2.2808,-2.2256,-2.1894,-2.1074,-1.9785,-1.888,-1.7915,-1.6855,-1.5283,0.0,0.0,0.0,0.0,0.0,0.0,0.0,0.0,0.0,0.0,0.0,0.0,0.0,0.0,0.0,0.0,0.0,0.0,0.0,-1.4698,-1.5229,-1.5842,0.0,0.0,0.0,0.0,0.0,0.0,0.0,0.0,0.0,-2.6721,-2.7331,-2.7758,0.0,0.0,-2.8423,-2.8662,-2.9189,-2.9679,-3.0068,-3.0319,0.0,-3.0658,-3.0043,-2.9628,-2.9854,-2.9704,-2.944,-2.9126,-2.9202,-2.9264,-2.9076,-2.9202,-2.9126,-2.8524,-2.8009,-2.7657,-2.7645,-2.7632,-2.7632,-2.7645,-2.777,-2.7708,-1.9277,-1.7921,-1.7529,-1.7661,-1.8079,-1.7792,-1.8461,-1.9845,-2.0878,-2.1079,-2.0815,-2.2249,-2.19,-2.021,-2.0091,0.0,0.0,0.0,-2.1719,-2.2393,-2.2637,-2.2857,-2.3081,-2.3101,-2.3101,-2.3101,-2.3101,-2.2964,-2.2764,-2.2721,-2.1385,-1.8851,0.0,0.0,-1.929,-2.0488,-2.1435,-2.2129,-2.2793,-2.3101,-2.3091,-2.2935,-2.2568,-2.1914,-2.1719,-2.1094,-1.9913,-1.9258,-1.8506,-1.7646,-1.5977,-1.4648,0.0,0.0,0.0,0.0,0.0,0.0,0.0,0.0,0.0,0.0,0.0,-1.4233,-1.3409,0.0,0.0,0.0,-1.4285,-1.5214,-1.6367,-1.6956,0.0,0.0,0.0,0.0,0.0,0.0,0.0,-2.5436,-2.6418,-2.7381,-2.8612,-2.8976,-2.9013,-2.8812,-2.9139,-2.9453,-2.954,0.0,-3.0545,-3.0871,-3.1185,-3.1386,-3.1373,-3.067,-3.0168,-3.0269,-3.0018,-2.9792,-2.9779,-2.9779,-2.9779,-2.9779,-2.9779,-2.9691,-2.934,-2.9001,-2.8599,-2.821,-2.8285,-2.8373,-2.8172,-2.8236,-2.826,-2.0611,-2.0212,-1.9667,-1.9396,-1.9352,-1.9323,-1.9243,-1.9167,-2.1114,-2.201,-2.2235,-2.3768,-2.4014,-2.312,-2.1941,0.0,-2.2051,-2.2412,-2.2721,-2.3091,-2.3101,-2.3101,-2.3101,-2.3101,-2.3101,-2.3101,-2.3101,-2.3101,-2.3091,-2.3091,-2.2701,-2.1992,-2.1551,-2.1307,-2.1268,-2.1719,-2.2139,-2.2559,-2.2896,-2.3101,-2.3091,-2.2725,-2.2314,-2.1894,-2.1385,-2.0742,-1.9951,-1.9473,-1.8857,-1.8018,-1.6406,-1.5098,-1.4211,0.0,0.0,0.0,0.0,0.0,0.0,0.0,0.0,0.0,0.0,0.0,0.0,0.0,0.0,0.0,-1.6175,0.0,-1.8771,-1.9677,0.0,0.0,0.0,-2.2842,-2.4161,-2.5126,-2.6163,-2.7281,0.0,0.0,-2.9792,-3.0369,-3.0545,-2.9993,-3.0771,-3.1223,-3.0746,-3.111,-3.1461,-3.1461,-3.1499,-3.1537,-3.1612,-3.1085,-3.0482,-2.9955,-2.9779,-2.9779,-2.9779,-2.9779,-2.9779,-2.9779,-2.9779,-2.9779,-2.9779,-2.9729,-2.9478,-2.8461,-2.8662,-2.8813,-2.8448,-2.8674,-2.8787,-2.1276,-2.0969,-2.0815,-2.0464,-1.9989,-1.9755,-2.0114,-2.0836,-2.1878,-2.2638,-2.3193,-2.4374,-2.4619,-2.4036,-2.3457,-2.3242,-2.333,-2.3096,-2.2994,-2.3091,-2.3101,-2.3101,-2.3101,-2.3101,-2.3101,-2.3101,-2.3101,-2.3101,-2.3101,-2.3101,-2.2994,-2.2799,-2.2701,-2.2321,-2.1768,-2.2158,-2.2568,-2.2945,-2.3052,-2.3101,-2.3081,-2.2691,-2.2314,-2.1894,-2.1133,-2.0469,-1.9894,-1.9153,-1.852,-1.8018,-1.6992,-1.5985,-1.5108,-1.3779,0.0,0.0,0.0,0.0,0.0,0.0,0.0,0.0,0.0,-1.6113,-1.4422,0.0,-1.6967,0.0,-1.7994,-1.9233,-2.0424,-2.0909,0.0,0.0,-2.4094,-2.4755,-2.6681,-2.6744,-2.7164,-2.8361,-2.9164,-2.9792,-3.0357,-3.1248,-3.1637,-3.1097,-3.1235,-3.1348,-3.1235,-3.1675,-3.2026,-3.2051,-3.2365,-3.2667,-3.2571,-3.1838,-3.0871,-2.9942,-2.9779,-2.9779,-2.9779,-2.9779,-2.9779,-2.9779,-2.9779,-2.9779,-2.9779,-2.9779,-2.9716,-2.9453,-2.9503,-2.9553,-2.9415,-2.949,-2.9415,-2.1503,-2.1211,-2.1211,-2.1006,-2.0584,-2.0179,-2.0344,-2.0933,-2.1504,-2.2272,-2.3113,-2.4507,-2.4932,-2.4678,-2.4258,-2.3965,-2.3769,-2.3545,-2.3286,-2.3101,-2.3101,-2.3101,-2.3101,-2.3101,-2.3101,-2.3101,-2.3101,-2.3101,-2.3101,-2.3101,-2.3101,-2.3101,-2.3101,-2.2867,-2.248,-2.2685,-2.2857,-2.3091,-2.3101,-2.3101,-2.3081,-2.2549,-2.2031,-2.1602,-2.0967,-2.0214,-1.9338,-1.9072,-1.8564,-1.7773,-1.7058,-1.6395,-1.5752,-1.5116,-1.4674,0.0,0.0,0.0,0.0,0.0,0.0,0.0,0.0,0.0,0.0,0.0,-1.87,-1.9277,-2.0421,-2.1657,-2.291,-2.358,-2.4608,-2.6238,-2.628,-2.6726,-2.8126,-2.8038,-2.8325,-2.9515,-2.9955,-3.0457,-3.1223,-3.1838,-3.2202,-3.2127,-3.2152,-3.2051,-3.1863,-3.224,-3.2591,-3.2616,-3.2867,-3.291,-3.2428,-3.18,-3.1035,-3.0043,-2.9779,-2.9779,-2.9779,-2.9779,-2.9779,-2.9779,-2.9779,-2.9779,-2.9779,-2.9779,-2.9779,-2.9779,-2.9779,-2.9779,-2.9779,-2.9779,-2.9679,-2.1547,-2.1211,-2.1211,-2.1211,-2.1159,-2.0552,-2.0241,-2.0299,-2.0893,-2.1827,-2.3026,-2.4524,-2.5204,-2.5174,-2.4687,-2.4268,-2.3867,-2.3809,-2.3555,-2.3101,-2.3101,-2.3101,-2.3101,-2.3101,-2.3101,-2.3101,-2.3101,-2.3101,-2.3101,-2.3101,-2.3101,-2.3101,-2.3101,-2.3101,-2.3101,-2.3101,-2.3101,-2.3101,-2.3101,-2.3101,-2.3081,-2.2314,-2.1699,-2.1278,-2.0723,-1.9911,-1.8754,-1.9033,-1.8672,-1.7529,-1.71,-1.6699,-1.6311,-1.634,-1.6192,0.0,-1.6124,0.0,0.0,0.0,0.0,0.0,0.0,0.0,0.0,-1.9884,-2.0843,-2.1998,-2.3112,-2.4296,-2.5535,-2.6544,-2.7415,-2.8098,-2.821,-2.8423,-2.8963,-2.9001,-2.9377,-3.0394,-3.062,-3.1085,-3.1901,-3.2164,-3.2416,-3.2754,-3.2759,-3.2528,-3.234,-3.2667,-3.3074,-3.3124,-3.3006,-3.2579,-3.1712,-3.1361,-3.0934,-3.003,-2.9779,-2.9779,-2.9779,-2.9779,-2.9779,-2.9779,-2.9779,-2.9779,-2.9779,-2.9779,-2.9779,-2.9779,-2.9779,-2.9779,-2.9779,-2.9779,-2.9779,-2.1745,-2.1218,-2.1211,-2.1211,-2.1174,-2.0794,-2.0577,-2.0692,-2.2031,-2.3545,-2.5079,-2.5441,-2.5567,-2.5576,-2.5146,-2.4707,-2.4287,-2.3945,-2.3545,-2.3101,-2.3101,-2.3101,-2.3101,-2.3101,-2.3101,-2.3101,-2.3101,-2.3101,-2.3101,-2.3101,-2.3101,-2.3101,-2.3101,-2.3101,-2.3101,0.0,0.0,0.0,-2.3101,-2.3101,-2.3071,-2.2314,-2.1855,-2.1738,-2.0312,0.0,-1.918,-1.887,-1.8461,-1.793,-1.7812,0.0,0.0,0.0,0.0,0.0,0.0,0.0,0.0,0.0,0.0,0.0,-2.1404,-2.0914,-2.0065,-2.2066,-2.3599,-2.4057,-2.5434,-2.6484,-2.6907,-2.7521,-2.8135,-2.8662,-2.8737,-2.8988,-2.9541,-2.9616,-2.9729,-2.9917,-3.0708,-3.1298,-3.1524,-3.1926,-3.224,-3.2315,-3.1989,-3.1876,-3.2177,-3.2679,-3.3099,-3.3099,-3.2692,-3.2164,-3.1486,-3.1047,-3.0595,-2.9955,-2.9779,-2.9779,-2.9779,-2.9779,-2.9779,-2.9779,-2.9779,-2.9779,-2.9779,-2.9779,-2.9779,-2.9779,-2.9779,-2.9779,-2.9779,-2.9779,-2.9779,-2.1803,0.0,-2.1211,-2.1211,0.0,-2.1028,-2.0962,-2.096,-2.1263,-2.2442,-2.4165,-2.5226,-2.5684,-2.5674,-2.5273,-2.4881,-2.4394,-2.3975,-2.3555,-2.3101,-2.3101,-2.3101,-2.3101,-2.3101,-2.3101,-2.3101,-2.3101,-2.3101,-2.3101,-2.3101,-2.3101,-2.3101,-2.3101,-2.3101,-2.3101,-2.3101,-2.3101,-2.3101,-2.3101,-2.3101,-2.3062,-2.2314,-2.1777,-2.1543,0.0,0.0,0.0,0.0,0.0,0.0,0.0,0.0,0.0,0.0,0.0,-1.9756,-1.9871,-2.0312,-2.1278,-2.1891,-2.2402,-2.2963,-2.3546,-2.3422,-2.2364,-2.3957,-2.5274,-2.5975,-2.7134,-2.7914,-2.8109,-2.8612,-2.9063,-2.9327,-2.9352,-2.949,-2.9729,-2.9779,-2.9905,-3.0181,-3.0658,-3.1097,-3.1361,-3.1612,-3.18,-3.18,-3.1587,-3.1474,-3.1788,-3.229,-3.2654,-3.2641,-3.2441,-3.1913,-3.1173,-3.0809,-3.0432,-2.9942,-2.9779,-2.9779,-2.9779,-2.9779,-2.9779,-2.9779,-2.9779,-2.9779,-2.9779,-2.9779,-2.9779,-2.9779,-2.9779,-2.9779,-2.9779,-2.9779,-2.9779,-2.1803,-2.1218,-2.1211,-2.1211,-2.1211,-2.1211,-2.1145,-2.0984,0.0,0.0,0.0,-2.4873,-2.5684,-2.5654,-2.5273,-2.4834,-2.4394,-2.3984,-2.3555,-2.3101,-2.3101,-2.3101,-2.3101,-2.3101,-2.3101,-2.3101,-2.3101,-2.3101,-2.3101,-2.3101,-2.3101,-2.3101,-2.3101,-2.3101,-2.3101,-2.3101,-2.3101,-2.3101,-2.3101,-2.3101,-2.3071,-2.2393,-2.1787,-2.1327,-2.084,-2.0243,-1.9443,-1.9727,-1.9434,-1.8418,-1.835,-1.871,-1.9474,-1.9367,-2.0293,-2.2479,-2.2639,-2.3002,-2.386,-2.3905,-2.4011,-2.4191,-2.5199,-2.5561,-2.4878,-2.5558,-2.6467,-2.7545,-2.8262,-2.8711,-2.8925,-2.9375,-2.9702,-2.974,-2.974,-2.974,-2.9779,-2.9779,-2.9955,-3.0394,-3.0545,-3.0771,-3.116,-3.1248,-3.1248,-3.1235,-3.111,-3.1173,-3.1298,-3.1712,-3.2077,-3.2064,-3.1913,-3.1574,-3.0871,-3.0495,-3.0294,-2.988,-2.9779,-2.9779,-2.9779,-2.9779,-2.9779,-2.9779,-2.9779,-2.9779,-2.9779,-2.9779,-2.9779,-2.9779,-2.9779,-2.9779,-2.9779,-2.9779,-2.9779,-2.1803,-2.1211,-2.1211,-2.1211,-2.1211,-2.1211,-2.0896,-2.0479,-2.2186,-2.3307,-2.3939,-2.5177,-2.5684,-2.5664,-2.5273,-2.4881,-2.4394,-2.3984,-2.3545,-2.3101,-2.3101,-2.3101,-2.3101,-2.3101,-2.3101,-2.3101,-2.3101,-2.3101,-2.3101,-2.3101,-2.3101,-2.3101,-2.3101,-2.3101,-2.3101,-2.3101,-2.3101,-2.3101,-2.3101,-2.3101,-2.3091,-2.2666,-2.2227,-2.1787,-2.1036,-2.0342,-1.9853,-1.9893,-1.9834,-1.9658,-1.9648,-1.9999,-2.0736,-2.0481,-2.1003,-2.2548,-2.2695,-2.3198,-2.4318,-2.441,-2.4807,-2.5697,-2.6358,-2.6552,-2.6178,-2.6822,-2.7508,-2.8147,-2.8333,-2.8567,-2.9024,-2.9172,-2.9326,-2.9443,-2.947,-2.956,-2.9779,-2.9779,-2.9829,-2.993,-3.0344,-3.0568,-3.0696,-3.0721,-3.0721,-3.0658,-3.0432,-3.0206,-3.0683,-3.1173,-3.1474,-3.1436,-3.111,-3.0809,-3.0557,-3.0193,-2.9942,-2.9817,-2.9779,-2.9779,-2.9779,-2.9779,-2.9779,-2.9779,-2.9779,-2.9779,-2.9779,-2.9779,-2.9779,-2.9779,-2.9779,-2.9779,-2.9779,-2.9779,-2.9779,-2.1803,-2.1233,-2.1211,-2.1211,-2.1196,-2.1028,-2.0621,-2.0387,-2.2356,-2.322,-2.3411,-2.4971,-2.5684,-2.5625,-2.5019,-2.4609,-2.4385,-2.374,-2.3286,-2.3101,-2.3101,-2.3101,-2.3101,-2.3101,-2.3101,-2.3101,-2.3101,-2.3101,-2.3101,-2.3101,-2.3101,-2.3101,-2.3101,-2.3101,-2.3101,-2.3101,-2.3101,-2.3101,-2.3101,-2.3101,-2.3091,-2.2682,-2.2314,-2.1885,-2.126,-2.0723,-2.0283,-2.0264,-2.0156,-1.9884,-1.9912,-2.0277,-2.1036,-2.0912,-2.1625,-2.3302,-2.3466,-2.3898,-2.4857,-2.5216,-2.5709,-2.649,-2.7018,-2.726,-2.712,-2.7502,-2.802,-2.8649,-2.8827,-2.9054,-2.9431,-2.9468,-2.9507,-2.9611,-2.9624,-2.965,-2.9753,-2.9779,-2.9779,-2.9804,-3.0018,-3.0168,-3.0168,-3.0168,-3.0168,-3.0143,-2.9917,-2.9905,-3.0143,-3.0369,-3.0645,-3.0871,-3.0771,-3.0507,-3.0231,-2.998,-2.9804,-2.9779,-2.9779,-2.9779,-2.9779,-2.9779,-2.9779,-2.9779,-2.9779,-2.9779,-2.9779,-2.9779,-2.9779,-2.9779,-2.9779,-2.9779,-2.9779,-2.9779,-2.9779,-2.1803,-2.1211,-2.1211,-2.1211,-2.1167,-2.0779,-2.0416,-2.0357,-2.1885,-2.2511,-2.2811,-2.4766,-2.5684,-2.5596,-2.4814,-2.4424,-2.4297,-2.3481,-2.3101,-2.3101,-2.3101,-2.3101,-2.3101,-2.3101,-2.3101,-2.3101,-2.3101,-2.3101,-2.3101,-2.3101,-2.3101,-2.3101,-2.3101,-2.3101,-2.3101,-2.3101,-2.3101,-2.3101,-2.3101,-2.3101,-2.3081,-2.2769,-2.2412,-2.1904,-2.1562,-2.1133,-2.0654,-2.0615,-2.0449,-2.0098,-2.0059,-2.0426,-2.1191,-2.1439,-2.2297,-2.3881,-2.4264,-2.4683,-2.5433,-2.5985,-2.6526,-2.7042,-2.7558,-2.7897,-2.7897,-2.8002,-2.8354,-2.89,-2.9094,-2.9302,-2.9495,-2.9598,-2.9663,-2.9702,-2.9689,-2.974,-2.9792,-2.9779,-2.9779,-2.9779,-2.9779,-2.9804,-2.9779,-2.9779,-2.9804,-2.9817,-2.9779,-2.9779,-2.9779,-2.9779,-2.9993,-3.0269,-3.0432,-3.0269,-2.9854,-2.9792,-2.9779,-2.9779,-2.9779,-2.9779,-2.9779,-2.9779,-2.9779,-2.9779,-2.9779,-2.9779,-2.9779,-2.9779,-2.9779,-2.9779,-2.9779,-2.9779,-2.9779,-2.9779,-2.9779,-2.1803,-2.1254,-2.1211,-2.1211,-2.1137,-2.0497,-2.0212,-2.0266,-2.087,-2.1674,-2.2693,-2.4766,-2.5684,-2.5567,-2.4814,-2.4424,-2.4355,-2.3481,-2.3101,-2.3101,-2.3101,-2.3101,-2.3101,-2.3101,-2.3101,-2.3101,-2.3101,-2.3101,-2.3101,-2.3101,-2.3101,-2.3101,-2.3101,-2.3101,-2.3101,-2.3101,-2.3101,-2.3101,-2.3101,-2.3101,-2.3091,-2.3062,-2.2705,-2.1914,-2.1855,-2.1426,-2.0654,-2.0615,-2.0586,-2.0546,-2.0537,-2.0864,-2.1656,-2.2398,-2.3187,-2.4,-2.4755,-2.5433,-2.5997,-2.6538,-2.7042,-2.757,-2.8114,-2.8414,-2.8414,-2.8426,-2.8478,-2.863,-2.8764,-2.8922,-2.8922,-2.9091,-2.9326,-2.9521,-2.9509,-2.9509,-2.9753,-2.9779,-2.9779,-2.9779,-2.9779,-2.9779,-2.9779,-2.9779,-2.9779,-2.9779,-2.9779,-2.9779,-2.9779,-2.9792,-2.9804,-2.988,-2.988,-2.988,-2.9779,-2.9779,-2.9779,-2.9779,-2.9779,-2.9779,-2.9779,-2.9779,-2.9779,-2.9779,-2.9779,-2.9779,-2.9779,-2.9779,-2.9779,-2.9779,-2.9779,-2.9779,-2.9779,-2.9779,-2.9779,-2.1803,-2.1218,-2.1211,-2.1211,-2.1115,-2.046,-2.0183,-2.0219,-2.0726,-2.1489,-2.2593,-2.4097,-2.5118,-2.5625,-2.4814,-2.4424,-2.4355,-2.3491,-2.3101,-2.3101,-2.3101,-2.3101,-2.3101,-2.3101,-2.3101,-2.3101,-2.3101,-2.3101,-2.3101,-2.3101,-2.3101,-2.3101,-2.3101,-2.3101,-2.3101,-2.3101,-2.3101,-2.3101,-2.3101,-2.3101,-2.3101,-2.3101,-2.2744,-2.1992,-2.1936,-2.1475,-2.0713,-2.0615,-2.0615,-2.0615,-2.0615,-2.076,-2.1088,-2.1869,-2.2649,-2.3475,-2.4929,-2.6021,-2.6562,-2.7054,-2.7582,-2.811,-2.8378,-2.851,-2.851,-2.851,-2.851,-2.855,-2.8816,-2.9,-2.9145,-2.9378,-2.9534,-2.9624,-2.965,-2.9702,-2.9779,-2.9779,-2.9779,-2.9779,-2.9779,-2.9779,-2.9779,-2.9779,-2.9779,-2.9779,-2.9779,-2.9779,-2.9779,-2.9779,-2.9779,-2.9779,-2.9779,-2.9779,-2.9779,-2.9779,-2.9779,-2.9779,-2.9779,-2.9779,-2.9779,-2.9779,-2.9779,-2.9779,-2.9779,-2.9779,-2.9779,-2.9779,-2.9779,-2.9779,-2.9779,-2.9779,-2.9779,-2.9779,-2.9779,-2.1803,-2.1254,-2.1211,-2.1152,-2.1028,-2.0424,-2.0186,-2.0094,-2.0375,-2.1081,-2.2131,-2.3185,-2.4245,-2.5101,-2.4664,-2.4424,-2.4307,-2.3481,-2.3101,-2.3101,-2.3101,-2.3101,-2.3101,-2.3101,-2.3101,-2.3101,-2.3101,-2.3101,-2.3101,-2.3101,-2.3101,-2.3101,-2.3101,-2.3101,-2.3101,-2.3101,-2.3101,-2.3101,-2.3101,-2.3101,-2.3101,-2.3101,-2.275,-2.2129,-2.1943,-2.1523,-2.0791,-2.0674,-2.0615,-2.0615,-2.0615,-2.0615,-2.0644,-2.1346,-2.2338,-2.349,-2.5125,-2.6418,-2.7054,-2.75,-2.7945,-2.8438,-2.851,-2.851,-2.851,-2.851,-2.851,-2.855,-2.8828,-2.9079,-2.9223,-2.9456,-2.9585,-2.9624,-2.9663,-2.9702,-2.9689,-2.974,-2.9779,-2.9779,-2.9779,-2.9779,-2.9779,-2.9779,-2.9779,-2.9779,-2.9779,-2.9779,-2.9779,-2.9779,-2.9779,-2.9779,-2.9779,-2.9779,-2.9779,-2.9779,-2.9779,-2.9779,-2.9779,-2.9779,-2.9779,-2.9779,-2.9779,-2.9779,-2.9779,-2.9779,-2.9779,-2.9779,-2.9779,-2.9779,-2.9779,-2.9779,-2.9779,-2.9779,-2.9779,-2.1803,-2.1247,-2.1211,-2.102,-2.072,-2.0314,-2.0062,-1.9845,-1.9523,-1.9975,-2.1132,-2.219,-2.3194,-2.423,-2.4362,-2.4424,-2.4307,-2.3481,-2.3101,-2.3101,-2.3101,-2.3101,-2.3101,-2.3101,-2.3101,-2.3101,-2.3101,-2.3101,-2.3101,-2.3101,-2.3101,-2.3101,-2.3101,-2.3101,-2.3101,-2.3101,-2.3101,-2.3101,-2.3101,-2.3101,-2.3101,-2.3101,-2.2886,-2.25,-2.209,-2.166,-2.1201,-2.0781,-2.0615,-2.0615,-2.0615,-2.0615,-2.0644,-2.1405,-2.2751,-2.4528,-2.5594,-2.6586,-2.745,-2.7678,-2.7981,-2.8414,-2.851,-2.851,-2.851,-2.851,-2.851,-2.851,-2.8697,-2.8843,-2.8882,-2.9091,-2.9182,-2.9209,-2.9314,-2.9431,-2.9419,-2.965,-2.9779,-2.9779,-2.9753,-2.9779,-2.9779,-2.9779,-2.9779,-2.9779,-2.9779,-2.9779,-2.9779,-2.9779,-2.9779,-2.9779,-2.9779,-2.9779,-2.9779,-2.9779,-2.9779,-2.9779,-2.9779,-2.9779,-2.9779,-2.9779,-2.9779,-2.9779,-2.9779,-2.9779,-2.9779,-2.9779,-2.9779,-2.9779,-2.9779,-2.9779,-2.9779,-2.9779,-2.9779,-2.1803,-2.1196,-2.0984,-2.0823,-2.0669,-2.0164,-1.9925,-1.9793,-1.947,-1.9879,-2.0987,-2.2038,-2.3085,-2.4101,-2.4315,-2.4424,-2.429,-2.3525,-2.3101,-2.3101,-2.3101,-2.3101,-2.3101,-2.3101,-2.3101,-2.3101,-2.3101,-2.3101,-2.3101,-2.3101,-2.3101,-2.3101,-2.3101,-2.3101,-2.3101,-2.3101,-2.3101,-2.3101,-2.3101,-2.3101,-2.3101,-2.3101,-2.3013,-2.2857,-2.2236,-2.168,-2.121,-2.0801,-2.0615,-2.0615,-2.0615,-2.0615,-2.0741,-2.214,-2.3308,-2.4196,-2.6016,-2.7308,-2.7693,-2.8002,-2.8306,-2.8474,-2.851,-2.851,-2.851,-2.851,-2.851,-2.851,-2.8538,-2.8618,-2.8657,-2.8895,-2.9104,-2.9104,-2.9157,-2.9275,-2.938,-2.947,-2.956,-2.9521,-2.9548,-2.9599,-2.974,-2.9779,-2.9779,-2.9779,-2.9779,-2.9779,-2.9779,-2.9779,-2.9779,-2.9779,-2.9779,-2.9779,-2.9779,-2.9779,-2.9779,-2.9779,-2.9779,-2.9779,-2.9779,-2.9779,-2.9779,-2.9779,-2.9779,-2.9779,-2.9779,-2.9779,-2.9779,-2.9779,-2.9779,-2.9779,-2.9779,-2.9779,-2.9779,-2.1613,-2.1196,-2.0859,-2.0662,-2.0508,-2.0043,-1.9749,-1.9647,-1.9426,-1.9732,-2.0585,-2.1887,-2.2935,-2.3606,-2.4174,-2.4424,-2.4326,-2.35,-2.3101,-2.3101,-2.3101,-2.3101,-2.3101,-2.3101,-2.3101,-2.3101,-2.3101,-2.3101,-2.3101,-2.3101,-2.3101,-2.3101,-2.3101,-2.3101,-2.3101,-2.3101,-2.3101,-2.3101,-2.3101,-2.3101,-2.3101,-2.3101,-2.3101,-2.2994,-2.2451,-2.1894,-2.1455,-2.1016,-2.0703,-2.0635,-2.0615,-2.0664,-2.0938,-2.2787,-2.4012,-2.4387,-2.6388,-2.7801,-2.7942,-2.8306,-2.851,-2.851,-2.851,-2.851,-2.851,-2.851,-2.851,-2.851,-2.851,-2.851,-2.855,-2.8736,-2.8895,-2.8895,-2.8973,-2.9052,-2.9197,-2.9275,-2.9314,-2.9314,-2.947,-2.9573,-2.9663,-2.974,-2.9779,-2.9779,-2.9779,-2.9779,-2.9779,-2.9779,-2.9779,-2.9779,-2.9779,-2.9779,-2.9779,-2.9779,-2.9779,-2.9779,-2.9779,-2.9779,-2.9779,-2.9779,-2.9779,-2.9779,-2.9779,-2.9779,-2.9779,-2.9779,-2.9779,-2.9779,-2.9779,-2.9779,-2.9779,-2.9779,-2.9779,-2.1225,-2.1159,-2.0852,-2.053,-2.019,-1.9872,-1.9617,-1.9382,-1.9286,-1.9376,-1.9776,-2.1591,-2.2542,-2.2828,-2.3871,-2.4424,-2.4268,-2.3481,-2.3101,-2.3101,-2.3101,-2.3101,-2.3101,-2.3101,-2.3101,-2.3101,-2.3101,-2.3101,-2.3101,-2.3101,-2.3101,-2.3101,-2.3101,-2.3101,-2.3101,-2.3101,-2.3101,-2.3101,-2.3101,-2.3101,-2.3101,-2.3101,-2.3101,-2.3052,-2.2725,-2.2324,-2.1894,-2.1465,-2.1045,-2.0703,-2.0654,-2.0791,-2.1362,-2.3221,-2.4618,-2.5227,-2.6783,-2.7903,-2.8402,-2.8486,-2.851,-2.851,-2.851,-2.851,-2.851,-2.851,-2.851,-2.851,-2.851,-2.851,-2.851,-2.855,-2.855,-2.851,-2.8697,-2.8803,-2.8882,-2.9013,-2.9104,-2.917,-2.9417,-2.9624,-2.9521,-2.9611,-2.974,-2.9779,-2.9779,-2.9779,-2.9779,-2.9779,-2.9779,-2.9779,-2.9779,-2.9779,-2.9779,-2.9779,-2.9779,-2.9779,-2.9779,-2.9779,-2.9779,-2.9779,-2.9779,-2.9779,-2.9779,-2.9779,-2.9779,-2.9779,-2.9779,-2.9779,-2.9779,-2.9779,-2.9779,-2.9779,-2.9779,-2.1211,-2.1137,-2.0611,-2.0278,-2.011,-1.9667,-1.9412,-1.9331,-1.9272,-1.9272,-1.968,-2.154,-2.2492,-2.2769,-2.3833,-2.4424,-2.4346,-2.351,-2.3101,-2.3101,-2.3101,-2.3101,-2.3101,-2.3101,-2.3101,-2.3101,-2.3101,-2.3101,-2.3101,-2.3101,-2.3101,-2.3101,-2.3101,-2.3101,-2.3101,-2.3101,-2.3101,-2.3101,-2.3101,-2.3101,-2.3101,-2.3101,-2.3101,-2.3081,-2.2964,-2.2744,-2.2334,-2.1904,-2.1475,-2.1045,-2.1025,-2.1094,-2.16,-2.3587,-2.4945,-2.5374,-2.7132,-2.8306,-2.8462,-2.851,-2.851,-2.851,-2.851,-2.851,-2.851,-2.851,-2.851,-2.851,-2.851,-2.851,-2.851,-2.851,-2.851,-2.851,-2.855,-2.8657,-2.8764,-2.8843,-2.8973,-2.9052,-2.9131,-2.9197,-2.9341,-2.9509,-2.9599,-2.9753,-2.9779,-2.9779,-2.9792,-2.9779,-2.9779,-2.9779,-2.9779,-2.9779,-2.9779,-2.9779,-2.9779,-2.9779,-2.9779,-2.9779,-2.9779,-2.9779,-2.9779,-2.9779,-2.9779,-2.9779,-2.9779,-2.9779,-2.9779,-2.9779,-2.9779,-2.9779,-2.9779,-2.9779,-2.9779,-2.1211,-2.113,-2.0508,-2.0183,-2.011,-1.9542,-1.9272,-1.9272,-1.9272,-1.9272,-1.9732,-2.154,-2.2492,-2.2813,-2.3984,-2.4524,-2.4355,-2.3682,-2.3257,-2.311,-2.3101,-2.3101,-2.3101,-2.3101,-2.3101,-2.3101,-2.3101,-2.3101,-2.3101,-2.3101,-2.3101,-2.3101,-2.3101,-2.3101,-2.3101,-2.3101,-2.3101,-2.3101,-2.3101,-2.3101,-2.3101,-2.3101,-2.3101,-2.3101,-2.3091,-2.2955,-2.2744,-2.248,-2.2002,-2.1356,-2.12,-2.12,-2.1419,-2.3652,-2.5212,-2.5625,-2.7157,-2.851,-2.851,-2.851,-2.851,-2.851,-2.851,-2.851,-2.851,-2.851,-2.851,-2.851,-2.851,-2.851,-2.851,-2.851,-2.851,-2.851,-2.851,-2.859,-2.8697,-2.8752,-2.8803,-2.8895,-2.8934,-2.904,-2.9236,-2.9314,-2.9392,-2.9611,-2.965,-2.965,-2.9689,-2.974,-2.974,-2.9779,-2.9779,-2.9779,-2.9779,-2.9779,-2.9779,-2.9779,-2.9779,-2.9779,-2.9779,-2.9779,-2.9779,-2.9779,-2.9779,-2.9779,-2.9779,-2.9779,-2.9779,-2.9779,-2.9779,-2.9779,-2.9779,-2.9779,-2.9779,-2.1211,-2.1123,-2.0453,-2.0183,-2.0103,-1.9542,-1.9272,-1.9272,-1.9272,-1.9272,-1.9732,-2.1387,-2.2391,-2.2848,-2.4113,-2.4598,-2.4394,-2.3945,-2.3496,-2.3179,-2.3101,-2.3101,-2.3101,-2.3101,-2.3101,-2.3101,-2.3101,-2.3101,-2.3101,-2.3101,-2.3101,-2.3101,-2.3101,-2.3101,-2.3101,-2.3101,-2.3101,-2.3101,-2.3101,-2.3101,-2.3101,-2.3101,-2.3101,-2.3101,-2.3091,-2.3071,-2.3033,-2.2906,-2.2409,-2.1463,-2.1375,-2.1395,-2.1768,-2.3787,-2.53,-2.5403,-2.7307,-2.8291,-2.851,-2.851,-2.851,-2.851,-2.851,-2.851,-2.851,-2.851,-2.851,-2.851,-2.851,-2.851,-2.851,-2.851,-2.851,-2.851,-2.851,-2.851,-2.855,-2.8645,-2.8685,-2.863,-2.8828,-2.9052,-2.9091,-2.9091,-2.9197,-2.9302,-2.9392,-2.9392,-2.9431,-2.9534,-2.9702,-2.974,-2.974,-2.9702,-2.9689,-2.9792,-2.9792,-2.965,-2.9689,-2.9779,-2.9779,-2.9779,-2.9779,-2.9779,-2.9779,-2.9779,-2.9779,-2.9779,-2.9779,-2.9779,-2.9779,-2.9779,-2.9779,-2.9779,-2.9754,-2.1211,-2.1137,-2.0446,-2.0183,-2.0088,-1.9542,-1.9272,-1.9272,-1.9272,-1.9272,-1.9628,-2.0731,-2.1836,-2.2541,-2.3481,-2.4051,-2.422,-2.3994,-2.3555,-2.3149,-2.3101,-2.3101,-2.3101,-2.3101,-2.3101,-2.3101,-2.3101,-2.3101,-2.3101,-2.3101,-2.3101,-2.3101,-2.3101,-2.3101,-2.3101,-2.3101,-2.3101,-2.3101,-2.3101,-2.3101,-2.3101,-2.3101,-2.3101,-2.3101,-2.3101,-2.3101,-2.3062,-2.2789,-2.2588,-2.2204,-2.2168,-2.2178,-2.2264,-2.4262,-2.5515,-2.5879,-2.7302,-2.851,-2.851,-2.851,-2.851,-2.851,-2.851,-2.851,-2.851,-2.851,-2.851,-2.851,-2.851,-2.851,-2.851,-2.851,-2.851,-2.851,-2.851,-2.851,-2.851,-2.855,-2.8538,-2.851,-2.8618,-2.8736,-2.8855,-2.8895,-2.8973,-2.9118,-2.9157,-2.9157,-2.9236,-2.9353,-2.9521,-2.9573,-2.9611,-2.9599,-2.9611,-2.9753,-2.9702,-2.956,-2.9599,-2.9753,-2.9779,-2.9779,-2.9779,-2.9779,-2.9779,-2.9779,-2.9779,-2.9779,-2.9779,-2.9779,-2.9779,-2.9779,-2.9779,-2.9779,-2.9729,-2.1211,-2.1152,-2.0516,-2.0183,-2.0095,-1.955,-1.9272,-1.9272,-1.9272,-1.9272,-1.9532,-2.0439,-2.1489,-2.2517,-2.3399,-2.3964,-2.4341,-2.416,-2.3721,-2.3149,-2.3101,-2.3101,-2.3101,-2.3101,-2.3101,-2.3101,-2.3101,-2.3101,-2.3101,-2.3101,-2.3101,-2.3101,-2.3101,-2.3101,-2.3101,-2.3101,-2.3101,-2.3101,-2.3101,-2.3101,-2.3101,-2.3101,-2.3101,-2.3101,-2.3101,-2.3101,-2.3052,-2.2857,-2.2705,-2.2519,-2.2353,-2.2256,-2.2411,-2.3918,-2.511,-2.5535,-2.7076,-2.8047,-2.8431,-2.851,-2.851,-2.851,-2.851,-2.851,-2.851,-2.851,-2.851,-2.851,-2.851,-2.851,-2.851,-2.851,-2.851,-2.851,-2.851,-2.851,-2.851,-2.851,-2.851,-2.851,-2.851,-2.8578,-2.8764,-2.8724,-2.8776,-2.8934,-2.8973,-2.8961,-2.9,-2.9157,-2.9275,-2.9365,-2.9365,-2.9365,-2.9365,-2.9456,-2.9507,-2.9365,-2.9404,-2.9585,-2.9702,-2.9702,-2.974,-2.974,-2.9779,-2.9767,-2.9678,-2.9678,-2.9779,-2.9779,-2.9779,-2.9754,-2.9741,-2.9453,-2.944,-2.1211,-2.1159,-2.0453,-2.0183,-2.0135,-1.9557,-1.9272,-1.9272,-1.9272,-1.9272,-1.948,-2.0336,-2.1285,-2.2525,-2.3331,-2.4035,-2.4378,-2.4365,-2.3812,-2.3325,-2.3101,-2.3101,-2.3101,-2.3101,-2.3101,-2.3101,-2.3101,-2.3101,-2.3101,-2.3101,-2.3101,-2.3101,-2.3101,-2.3101,-2.3101,-2.3101,-2.3101,-2.3101,-2.3101,-2.3101,-2.3101,-2.3101,-2.3101,-2.3101,-2.3101,-2.3101,-2.3101,-2.3042,-2.2916,-2.2598,-2.2207,-2.2168,-2.2274,-2.3285,-2.4303,-2.5245,-2.6427,-2.7377,-2.8099,-2.8099,-2.8179,-2.8179,-2.8259,-2.8471,-2.8431,-2.851,-2.851,-2.851,-2.851,-2.851,-2.851,-2.851,-2.851,-2.851,-2.851,-2.851,-2.851,-2.851,-2.851,-2.851,-2.851,-2.8618,-2.8657,-2.8657,-2.859,-2.8736,-2.8776,-2.8776,-2.8803,-2.8961,-2.904,-2.9079,-2.9131,-2.9131,-2.9131,-2.9131,-2.9182,-2.9182,-2.917,-2.93,-2.9495,-2.9573,-2.9663,-2.9663,-2.9546,-2.9485,-2.9464,-2.9514,-2.964,-2.9591,-2.9465,-2.9553,-2.9603,-2.9076,-2.8863,-2.1211,-2.1152,-2.0446,-2.0183,-2.0081,-1.9557,-1.9272,-1.9272,-1.9272,-1.9272,-1.9376,-1.9583,-2.0783,-2.2484,-2.2809,-2.3356,-2.4231,-2.43,-2.391,-2.3188,-2.3101,-2.3101,-2.3101,-2.3101,-2.3101,-2.3101,-2.3101,-2.3101,-2.3101,-2.3101,-2.3101,-2.3101,-2.3101,-2.3101,-2.3101,-2.3101,-2.3101,-2.3101,-2.3101,-2.3101,-2.3101,-2.3101,-2.3101,-2.3101,-2.3101,-2.3101,-2.3101,-2.3101,-2.3052,-2.2964,-2.2847,-2.2764,-2.2922,-2.3697,-2.463,-2.5353,-2.5804,-2.6505,-2.7174,-2.6999,-2.6753,-2.747,-2.7725,-2.7805,-2.8471,-2.851,-2.851,-2.851,-2.851,-2.851,-2.851,-2.851,-2.851,-2.851,-2.851,-2.851,-2.851,-2.851,-2.851,-2.851,-2.851,-2.851,-2.855,-2.855,-2.855,-2.8578,-2.8578,-2.8578,-2.8657,-2.8776,-2.8816,-2.8855,-2.8934,-2.8934,-2.8895,-2.8895,-2.8934,-2.8946,-2.8986,-2.8986,-2.9182,-2.93,-2.93,-2.93,-2.9221,-2.9178,-2.9149,-2.9212,-2.9287,-2.9213,-2.9076,-2.9088,-2.9001,-2.8561,-2.8273,-2.1123,-2.0933,-2.0387,-2.015,-1.9952,-1.9491,-1.9272,-1.9272,-1.9272,-1.9272,-1.9272,-1.9272,-2.0233,-2.1735,-2.2257,-2.2966,-2.3505,-2.3738,-2.3539,-2.314,-2.3101,-2.3101,-2.3101,-2.3101,-2.3101,-2.3101,-2.3101,-2.3101,-2.3101,-2.3101,-2.3101,-2.3101,-2.3101,-2.3101,-2.3101,-2.3101,-2.3101,-2.3101,-2.3101,-2.3101,-2.3101,-2.3101,-2.3101,-2.3101,-2.3101,-2.3101,-2.3101,-2.3101,-2.3101,-2.3101,-2.3101,-2.3101,-2.3144,-2.357,-2.4284,-2.4988,-2.52,-2.5621,-2.6121,-2.6535,-2.6753,-2.7133,-2.7563,-2.8007,-2.8391,-2.851,-2.851,-2.851,-2.851,-2.851,-2.851,-2.851,-2.851,-2.851,-2.851,-2.851,-2.851,-2.851,-2.851,-2.851,-2.851,-2.851,-2.851,-2.851,-2.851,-2.8538,-2.8538,-2.855,-2.855,-2.863,-2.8618,-2.8657,-2.8736,-2.8776,-2.8697,-2.8697,-2.8736,-2.8749,-2.8709,-2.8749,-2.8788,-2.8867,-2.8907,-2.8912,-2.8919,-2.8842,-2.8823,-2.8873,-2.8812,-2.865,-2.8549,-2.8549,-2.8398,-2.8034,-2.7808,-2.102,-2.0691,-2.0314,-2.0055,-1.9786,-1.9418,-1.9272,-1.9272,-1.9272,-1.9272,-1.9272,-1.9272,-1.9931,-2.0979,-2.2089,-2.2646,-2.3056,-2.3092,-2.314,-2.311,-2.3101,-2.3101,-2.3101,-2.3101,-2.3101,-2.3101,-2.3101,-2.3101,-2.3101,-2.3101,-2.3101,-2.3101,-2.3101,-2.3101,-2.3101,-2.3101,-2.3101,-2.3101,-2.3101,-2.3101,-2.3101,-2.3101,-2.3101,-2.3101,-2.3101,-2.3101,-2.3101,-2.3101,-2.3101,-2.3101,-2.3101,-2.3101,-2.3101,-2.3135,-2.3517,-2.4402,-2.4413,-2.4744,-2.5495,-2.6174,-2.6599,-2.6981,-2.7765,-2.8299,-2.8431,-2.851,-2.851,-2.851,-2.851,-2.851,-2.851,-2.851,-2.851,-2.851,-2.851,-2.851,-2.851,-2.851,-2.851,-2.851,-2.851,-2.851,-2.851,-2.851,-2.851,-2.851,-2.851,-2.851,-2.851,-2.851,-2.855,-2.855,-2.863,-2.8669,-2.8618,-2.8578,-2.8618,-2.863,-2.859,-2.8466,-2.843,-2.8376,-2.8421,-2.8578,-2.8586,-2.8433,-2.8287,-2.8226,-2.8151,-2.8035,-2.7984,-2.7984,-2.7783,-2.7494,-2.7344,-2.1028,-2.0643,-2.0314,-2.0055,-1.9733,-1.9463,-1.9272,-1.9272,-1.9272,-1.9272,-1.9272,-1.9324,-1.9879,-2.0885,-2.1988,-2.2997,-2.3522,-2.3386,-2.3101,-2.3101,-2.3101,-2.3101,-2.3101,-2.3101,-2.3101,-2.3101,-2.3101,-2.3101,-2.3101,-2.3101,-2.3101,-2.3101,-2.3101,-2.3101,-2.3101,-2.3101,-2.3101,-2.3101,-2.3101,-2.3101,-2.3101,-2.3101,-2.3101,-2.3101,-2.3101,-2.3101,-2.3101,-2.3101,-2.3101,-2.3101,-2.3101,-2.3101,-2.3101,-2.3101,-2.356,-2.4036,-2.3777,-2.3907,-2.4616,-2.4956,-2.5421,-2.5997,-2.7051,-2.7886,-2.8299,-2.851,-2.851,-2.851,-2.851,-2.851,-2.851,-2.851,-2.851,-2.851,-2.851,-2.851,-2.851,-2.851,-2.851,-2.851,-2.851,-2.851,-2.851,-2.851,-2.851,-2.851,-2.851,-2.851,-2.851,-2.851,-2.851,-2.851,-2.851,-2.855,-2.851,-2.851,-2.855,-2.855,-2.8462,-2.8234,-2.8138,-2.7921,-2.7891,-2.7863,-2.7845,-2.7752,-2.7644,-2.7557,-2.7516,-2.7399,-2.7421,-2.7419,-2.7256,-2.7115,-2.6889,-2.0925,-2.0409,-2.0241,-1.9952,-1.9528,-1.9397,-1.9272,-1.9272,-1.9272,-1.9272,-1.9272,-1.9331,-1.9532,-2.0285,-2.1183,-2.236,-2.3187,-2.3303,-2.3086,-2.3101,-2.3101,-2.3101,-2.3101,-2.3101,-2.3101,-2.3101,-2.3101,-2.3101,-2.3101,-2.3101,-2.3101,-2.3101,-2.3101,-2.3101,-2.3101,-2.3101,-2.3101,-2.3101,-2.3101,-2.3101,-2.3101,-2.3101,-2.3101,-2.3101,-2.3101,-2.3101,-2.3101,-2.3101,-2.3101,-2.3101,-2.3101,-2.3101,-2.3101,-2.3135,-2.3299,-2.3604,-2.3353,-2.3222,-2.395,-2.4488,-2.5453,-2.5872,-2.6999,-2.7966,-2.8339,-2.851,-2.851,-2.851,-2.851,-2.851,-2.851,-2.851,-2.851,-2.851,-2.851,-2.851,-2.851,-2.851,-2.851,-2.851,-2.851,-2.851,-2.851,-2.851,-2.851,-2.851,-2.851,-2.851,-2.851,-2.851,-2.851,-2.851,-2.851,-2.851,-2.851,-2.851,-2.8414,-2.8402,-2.833,-2.8102,-2.7825,-2.7584,-2.7188,-2.6926,-2.6917,-2.6967,-2.6907,-2.6843,-2.6824,-2.6839,-2.6849,-2.6882,-2.6816,-2.67,-2.6527,-2.0764,-2.0176,-2.0164,-1.9806,-1.9323,-1.9272,-1.9272,-1.9272,-1.9272,-1.9272,-1.9272,-1.9272,-1.9279,-1.9583,-2.0569,-2.1754,-2.301,-2.3204,-2.3086,-2.3101,-2.3101,-2.3101,-2.3101,-2.3101,-2.3101,-2.3101,-2.3101,-2.3101,-2.3101,-2.3101,-2.3101,-2.3101,-2.3101,-2.3101,-2.3101,-2.3101,-2.3101,-2.3101,-2.3101,-2.3101,-2.3101,-2.3101,-2.3101,-2.3101,-2.3101,-2.3101,-2.3101,-2.3101,-2.3101,-2.3101,-2.3101,-2.3101,-2.3101,-2.3101,-2.3101,-2.3101,-2.3101,-2.3101,-2.3517,-2.4498,-2.5284,-2.5453,-2.7162,-2.7955,-2.8299,-2.8299,-2.851,-2.851,-2.851,-2.851,-2.851,-2.851,-2.851,-2.851,-2.851,-2.851,-2.851,-2.851,-2.851,-2.851,-2.851,-2.851,-2.851,-2.851,-2.851,-2.851,-2.851,-2.851,-2.851,-2.851,-2.851,-2.851,-2.851,-2.851,-2.851,-2.851,-2.8354,-2.8162,-2.8053,-2.7861,-2.7536,-2.7212,-2.6743,-2.6238,-2.6142,-2.6202,-2.6151,-2.6208,-2.6311,-2.6352,-2.6355,-2.6364,-2.637,-2.6452,-2.6411,-2.0511,-2.0154,-1.993,-1.9608,-1.9301,-1.9272,-1.9272,-1.9272,-1.9272,-1.9272,-1.9272,-1.9324,-1.9324,-1.9715,-2.0728,-2.236,-2.338,-2.3396,-2.3101,-2.3101,-2.3101,-2.3101,-2.3101,-2.3101,-2.3101,-2.3101,-2.3101,-2.3101,-2.3101,-2.3101,-2.3101,-2.3101,-2.3101,-2.3101,-2.3101,-2.3101,-2.3101,-2.3101,-2.3101,-2.3101,-2.3101,-2.3101,-2.3101,-2.3101,-2.3101,-2.3101,-2.3101,-2.3101,-2.3101,-2.3101,-2.3101,-2.3101,-2.3101,-2.3101,-2.3101,-2.3101,-2.3101,-2.3101,-2.3266,-2.4155,-2.4829,-2.5158,-2.6464,-2.7174,-2.7753,-2.8179,-2.851,-2.851,-2.851,-2.851,-2.851,-2.851,-2.851,-2.851,-2.851,-2.851,-2.851,-2.851,-2.851,-2.851,-2.851,-2.851,-2.851,-2.851,-2.851,-2.851,-2.851,-2.851,-2.851,-2.851,-2.851,-2.851,-2.8462,-2.8462,-2.8282,-2.8318,-2.8114,-2.7846,-2.7678,-2.7524,-2.7079,-2.6659,-2.6178,-2.5757,-2.566,-2.5635,-2.5729,-2.5845,-2.5888,-2.5968,-2.6072,-2.605,-2.5992,-2.6097,-2.6236,-2.0098,-1.9952,-1.9813,-1.9625,-1.9294,-1.9272,-1.9272,-1.9272,-1.9272,-1.9272,-1.9272,-1.9279,-1.9635,-2.0327,-2.1559,-2.2575,-2.3325,-2.3204,-2.3101,-2.3101,-2.3101,-2.3101,-2.3101,-2.3101,-2.3101,-2.3101,-2.3101,-2.3101,-2.3101,-2.3101,-2.3101,-2.3101,-2.3101,-2.3101,-2.3101,-2.3101,-2.3101,-2.3101,-2.3101,-2.3101,-2.3101,-2.3101,-2.3101,-2.3101,-2.3101,-2.3101,-2.3101,-2.3101,-2.3101,-2.3101,-2.3101,-2.3101,-2.3101,-2.3101,-2.3101,-2.3101,-2.3101,-2.3101,-2.3222,-2.3983,-2.436,-2.4914,-2.6091,-2.7389,-2.7846,-2.8219,-2.851,-2.851,-2.851,-2.851,-2.851,-2.851,-2.851,-2.851,-2.851,-2.851,-2.851,-2.851,-2.851,-2.851,-2.851,-2.851,-2.851,-2.851,-2.851,-2.851,-2.851,-2.851,-2.851,-2.851,-2.851,-2.851,-2.845,-2.839,-2.8126,-2.7969,-2.763,-2.7402,-2.7246,-2.697,-2.6502,-2.6033,-2.5709,-2.5516,-2.5432,-2.5443,-2.5465,-2.5571,-2.5723,-2.5758,-2.5828,-2.5828,-2.5805,-2.591,-2.605,-1.9698,-1.9691,-1.9691,-1.9551,-1.9286,-1.9272,-1.9272,-1.9272,-1.9272,-1.9272,-1.9376,-1.962,-2.0297,-2.1185,-2.2219,-2.2878,-2.3103,-2.3067,-2.3071,-2.3101,-2.3101,-2.3101,-2.3101,-2.3101,-2.3101,-2.3101,-2.3101,-2.3101,-2.3101,-2.3101,-2.3101,-2.3101,-2.3101,-2.3101,-2.3101,-2.3101,-2.3101,-2.3101,-2.3101,-2.3101,-2.3101,-2.3101,-2.3101,-2.3101,-2.3101,-2.3101,-2.3101,-2.3101,-2.3101,-2.3101,-2.3101,-2.3101,-2.3101,-2.3101,-2.3101,-2.3101,-2.3101,-2.3309,-2.3474,-2.394,-2.4241,-2.4956,-2.6091,-2.751,-2.8299,-2.851,-2.851,-2.851,-2.851,-2.851,-2.851,-2.851,-2.851,-2.851,-2.851,-2.851,-2.851,-2.851,-2.851,-2.851,-2.851,-2.851,-2.851,-2.851,-2.851,-2.851,-2.851,-2.851,-2.8438,-2.8378,-2.839,-2.8354,-2.8186,-2.8114,-2.7894,-2.7606,-2.7282,-2.6934,-2.6765,-2.6477,-2.6009,-2.5793,-2.5612,-2.5444,-2.5324,-2.5312,-2.5394,-2.5465,-2.5548,-2.5571,-2.5571,-2.5688,-2.5723,-2.5793,-2.591,-1.9308,-1.9308,-1.9316,-1.936,-1.9272,-1.9272,-1.9272,-1.9272,-1.9272,-1.9272,-1.9428,-2.0321,-2.1166,-2.1863,-2.2554,-2.3223,-2.3693,-2.3261,-2.314,-2.3101,-2.3101,-2.3101,-2.3101,-2.3101,-2.3101,-2.3101,-2.3101,-2.3101,-2.3101,-2.3101,-2.3101,-2.3101,-2.3101,-2.3101,-2.3101,-2.3101,-2.3101,-2.3101,-2.3101,-2.3101,-2.3101,-2.3101,-2.3101,-2.3101,-2.3101,-2.3101,-2.3101,-2.3101,-2.3101,-2.3101,-2.3101,-2.3101,-2.3101,-2.3101,-2.3101,-2.3101,-2.3101,-2.3387,-2.3767,-2.3767,-2.3854,-2.4744,-2.6091,-2.7551,-2.8391,-2.851,-2.851,-2.851,-2.851,-2.851,-2.851,-2.851,-2.851,-2.851,-2.851,-2.851,-2.851,-2.851,-2.851,-2.851,-2.8462,-2.839,-2.8402,-2.8378,-2.8462,-2.8474,-2.8462,-2.8462,-2.815,-2.8065,-2.8126,-2.8077,-2.7873,-2.7714,-2.7654,-2.733,-2.6923,-2.649,-2.6165,-2.5925,-2.5552,-2.5444,-2.548,-2.542,-2.5312,-2.5312,-2.5312,-2.5394,-2.5394,-2.5347,-2.5347,-2.5465,-2.5535,-2.5571,-2.5723,-1.9272,-1.9272,-1.9272,-1.9272,-1.9272,-1.9272,-1.9272,-1.9272,-1.9272,-1.9272,-1.9428,-2.1022,-2.1887,-2.2203,-2.3259,-2.3767,-2.3769,-2.3296,-2.3149,-2.3101,-2.3101,-2.3101,-2.3101,-2.3101,-2.3101,-2.3101,-2.3101,-2.3101,-2.3101,-2.3101,-2.3101,-2.3101,-2.3101,-2.3101,-2.3101,-2.3101,-2.3101,-2.3101,-2.3101,-2.3101,-2.3101,-2.3101,-2.3101,-2.3101,-2.3101,-2.3101,-2.3101,-2.3101,-2.3101,-2.3101,-2.3101,-2.3101,-2.3101,-2.3101,-2.3101,-2.3101,-2.3101,-2.3353,-2.3767,-2.394,-2.4627,-2.5924,-2.6887,-2.7603,-2.8431,-2.851,-2.851,-2.851,-2.851,-2.851,-2.851,-2.851,-2.851,-2.851,-2.851,-2.851,-2.8438,-2.8402,-2.8294,-2.821,-2.8162,-2.8114,-2.815,-2.8198,-2.8318,-2.8426,-2.8414,-2.8342,-2.7993,-2.7657,-2.7669,-2.7621,-2.7416,-2.7103,-2.7007,-2.6743,-2.6478,-2.6081,-2.5673,-2.5516,-2.5348,-2.5348,-2.536,-2.5324,-2.5312,-2.5312,-2.5312,-2.5312,-2.5312,-2.5312,-2.5312,-2.5312,-2.5347,-2.5394,-2.5535,-1.9272,-1.9272,-1.9272,-1.9272,-1.9272,-1.9272,-1.9272,-1.9272,-1.9272,-1.9272,-1.9465,-2.1383,-2.2066,-2.2232,-2.3374,-2.3884,-2.3584,-2.3237,-2.313,-2.3101,-2.3101,-2.3101,-2.3101,-2.3101,-2.3101,-2.3101,-2.3101,-2.3101,-2.3101,-2.3101,-2.3101,-2.3101,-2.3101,-2.3101,-2.3101,-2.3101,-2.3101,-2.3101,-2.3101,-2.3101,-2.3101,-2.3101,-2.3101,-2.3101,-2.3101,-2.3101,-2.3101,-2.3101,-2.3101,-2.3101,-2.3101,-2.3101,-2.3101,-2.3101,-2.3101,-2.3101,-2.3135,-2.3178,-2.3647,-2.4445,-2.5421,-2.6299,-2.7348,-2.7886,-2.8299,-2.851,-2.851,-2.851,-2.851,-2.851,-2.851,-2.851,-2.851,-2.851,-2.851,-2.8486,-2.8234,-2.8114,-2.7981,-2.7822,-2.7726,-2.7558,-2.757,-2.763,-2.8029,-2.8029,-2.7837,-2.7813,-2.7717,-2.738,-2.7067,-2.7007,-2.6837,-2.6538,-2.6214,-2.6226,-2.6202,-2.5793,-2.5468,-2.542,-2.5324,-2.5312,-2.5312,-2.5312,-2.5312,-2.5312,-2.5312,-2.5312,-2.5312,-2.5312,-2.5312,-2.5312,-2.5312,-2.5347,-2.5418,-1.9272,-1.9272,-1.9272,-1.9272,-1.9272,-1.9272,-1.9272,-1.9272,-1.9272,-1.9272,-1.9487,-2.1128,-2.1644,-2.1709,-2.3009,-2.3438,-2.3286,-2.314,-2.3101,-2.3101,-2.3101,-2.3101,-2.3101,-2.3101,-2.3101,-2.3101,-2.3101,-2.3101,-2.3101,-2.3101,-2.3101,-2.3101,-2.3101,-2.3101,-2.3101,-2.3101,-2.3101,-2.3101,-2.3101,-2.3101,-2.3101,-2.3101,-2.3101,-2.3101,-2.3101,-2.3101,-2.3101,-2.3101,-2.3101,-2.3101,-2.3101,-2.3101,-2.3101,-2.3101,-2.3101,-2.3101,-2.3101,-2.3517,-2.436,-2.5242,-2.583,-2.634,-2.747,-2.8299,-2.8471,-2.851,-2.851,-2.851,-2.851,-2.851,-2.851,-2.8462,-2.8426,-2.8462,-2.845,-2.8246,-2.7969,-2.7729,-2.7534,-2.739,-2.7126,-2.6922,-2.6922,-2.7054,-2.7534,-2.7633,-2.7282,-2.7162,-2.7176,-2.7019,-2.6635,-2.637,-2.6262,-2.6129,-2.5901,-2.5997,-2.5901,-2.5504,-2.5312,-2.5312,-2.5312,-2.5312,-2.5312,-2.5312,-2.5312,-2.5312,-2.5312,-2.5312,-2.5312,-2.5312,-2.5312,-2.5312,-2.5312,-2.5312,-2.5382,-1.9272,-1.9272,-1.9272,-1.9272,-1.9272,-1.9272,-1.9272,-1.9272,-1.9272,-1.9272,-1.9509,-2.0519,-2.1096,-2.1488,-2.2262,-2.2971,-2.3115,-2.3101,-2.3101,-2.3101,-2.3101,-2.3101,-2.3101,-2.3101,-2.3101,-2.3101,-2.3101,-2.3101,-2.3101,-2.3101,-2.3101,-2.3101,-2.3101,-2.3101,-2.3101,-2.3101,-2.3101,-2.3101,-2.3101,-2.3101,-2.3101,-2.3101,-2.3101,-2.3101,-2.3101,-2.3101,-2.3101,-2.3101,-2.3101,-2.3101,-2.3101,-2.3101,-2.3101,-2.3101,-2.3101,-2.3101,-2.3135,-2.3517,-2.4402,-2.5284,-2.608,-2.6835,-2.7684,-2.8471,-2.851,-2.851,-2.851,-2.8486,-2.845,-2.8462,-2.851,-2.8138,-2.8041,-2.8182,-2.8122,-2.7813,-2.7524,-2.727,-2.7078,-2.6959,-2.6743,-2.6478,-2.6382,-2.6369,-2.6815,-2.7079,-2.6789,-2.6381,-2.6298,-2.6358,-2.6166,-2.5817,-2.5636,-2.56,-2.5588,-2.5697,-2.5721,-2.5444,-2.5312,-2.5312,-2.5312,-2.5312,-2.5312,-2.5312,-2.5312,-2.5312,-2.5312,-2.5312,-2.5312,-2.5312,-2.5312,-2.5312,-2.5312,-2.5312,-2.5382,-1.9063,-1.916,-1.9051,-1.9059,-1.9133,-1.9228,-1.9272,-1.925,-1.9169,-1.9103,-1.9308,-2.0069,-2.0684,-2.1238,-2.208,-2.2681,-2.3101,-2.3101,-2.3101,-2.3101,-2.3101,-2.3101,-2.3101,-2.3101,-2.3101,-2.3101,-2.3101,-2.3101,-2.3101,-2.3101,-2.3101,-2.3101,-2.3101,-2.3101,-2.3101,-2.3101,-2.3101,-2.3101,-2.3101,-2.3101,-2.3101,-2.3101,-2.3101,-2.3101,-2.3101,-2.3101,-2.3101,-2.3101,-2.3101,-2.3101,-2.3101,-2.3101,-2.3101,-2.3101,-2.3101,-2.3101,-2.3178,-2.3604,-2.4402,-2.5316,-2.6163,-2.7092,-2.8018,-2.8431,-2.851,-2.851,-2.851,-2.8474,-2.8354,-2.827,-2.8174,-2.7765,-2.7558,-2.7738,-2.7582,-2.7222,-2.6959,-2.6681,-2.6477,-2.637,-2.6238,-2.5997,-2.5865,-2.5865,-2.6009,-2.619,-2.631,-2.5925,-2.56,-2.5709,-2.5817,-2.5552,-2.5348,-2.5396,-2.5408,-2.5408,-2.5408,-2.5324,-2.5312,-2.5312,-2.5312,-2.5312,-2.5312,-2.5312,-2.5312,-2.5312,-2.5312,-2.5312,-2.5312,-2.5312,-2.5312,-2.5312,-2.5312,-2.5312,-2.5347,-1.8551,-1.879,-1.8511,-1.8528,-1.8775,-1.906,-1.9191,-1.9243,-1.8899,-1.8782,-1.8882,-2.0038,-2.058,-2.1003,-2.2309,-2.2955,-2.3101,-2.3101,-2.3101,-2.3101,-2.3101,-2.3101,-2.3101,-2.3101,-2.3101,-2.3101,-2.3101,-2.3101,-2.3101,-2.3101,-2.3101,-2.3101,-2.3101,-2.3101,-2.3101,-2.3101,-2.3101,-2.3101,-2.3101,-2.3101,-2.3101,-2.3101,-2.3101,-2.3101,-2.3101,-2.3101,-2.3101,-2.3101,-2.3101,-2.3101,-2.3101,-2.3101,-2.3101,-2.3101,-2.3101,-2.3091,-2.3091,-2.382,-2.4606,-2.5504,-2.6289,-2.7204,-2.7845,-2.8295,-2.851,-2.8498,-2.845,-2.8282,-2.8038,-2.7909,-2.7729,-2.7318,-2.6958,-2.6958,-2.6898,-2.6597,-2.631,-2.6069,-2.5853,-2.5697,-2.5576,-2.5456,-2.548,-2.548,-2.5588,-2.5636,-2.5829,-2.5817,-2.554,-2.5432,-2.5504,-2.5468,-2.5324,-2.5324,-2.5312,-2.5312,-2.5312,-2.5312,-2.5312,-2.5312,-2.5312,-2.5312,-2.5312,-2.5312,-2.5312,-2.5312,-2.5312,-2.5312,-2.5312,-2.5312,-2.5312,-2.5312,-2.5312,-2.5312,-2.5312,-1.7886,-1.798,-1.8039,-1.8103,-1.8217,-1.844,-1.8584,-1.8562,-1.8474,-1.8445,-1.8515,-1.9327,-2.0118,-2.0763,-2.1689,-2.2451,-2.2872,-2.3101,-2.3101,-2.3101,-2.3101,-2.3101,-2.3101,-2.3101,-2.3101,-2.3101,-2.3101,-2.3101,-2.3101,-2.3101,-2.3101,-2.3101,-2.3101,-2.3101,-2.3101,-2.3101,-2.3101,-2.3101,-2.3101,-2.3101,-2.3101,-2.3101,-2.3101,-2.3101,-2.3101,-2.3101,-2.3101,-2.3101,-2.3101,-2.3101,-2.3101,-2.3101,-2.3101,-2.3101,-2.3091,-2.3178,-2.3691,-2.4531,-2.5315,-2.5883,-2.6474,-2.7041,-2.7424,-2.7816,-2.821,-2.8338,-2.8206,-2.793,-2.7654,-2.7476,-2.7224,-2.6875,-2.6669,-2.6681,-2.6477,-2.6069,-2.5805,-2.5733,-2.5528,-2.5456,-2.5312,-2.5312,-2.5312,-2.5336,-2.5432,-2.5348,-2.5348,-2.5444,-2.548,-2.5384,-2.5336,-2.5312,-2.5312,-2.5312,-2.5312,-2.5312,-2.5312,-2.5312,-2.5312,-2.5312,-2.5312,-2.5312,-2.5312,-2.5312,-2.5312,-2.5312,-2.5312,-2.5312,-2.5312,-2.5312,-2.5312,-2.5312,-2.5312,-2.5312,-2.5312,-1.742,-1.7704,-1.7577,-1.7603,-1.769,-1.7821,-1.7918,-1.794,-1.805,-1.8116,-1.8211,-1.9248,-1.9982,-2.0623,-2.1751,-2.2643,-2.3047,-2.3101,-2.3101,-2.3101,-2.3101,-2.3101,-2.3101,-2.3101,-2.3101,-2.3101,-2.3101,-2.3101,-2.3101,-2.3101,-2.3101,-2.3101,-2.3101,-2.3101,-2.3101,-2.3101,-2.3101,-2.3101,-2.3101,-2.3101,-2.3101,-2.3101,-2.3101,-2.3101,-2.3101,-2.3101,-2.3101,-2.3101,-2.3101,-2.3101,-2.3101,-2.3101,-2.3101,-2.3101,-2.3101,-2.3149,-2.3265,-2.3965,-2.4639,-2.5238,-2.6001,-2.6539,-2.6623,-2.6798,-2.7177,-2.7433,-2.7442,-2.7378,-2.7162,-2.6934,-2.6683,-2.6442,-2.6526,-2.661,-2.6081,-2.554,-2.5468,-2.5444,-2.5384,-2.5336,-2.5312,-2.5312,-2.5312,-2.5312,-2.5312,-2.5312,-2.5312,-2.5348,-2.5384,-2.5348,-2.5324,-2.5312,-2.5312,-2.5312,-2.5312,-2.5312,-2.5312,-2.5312,-2.5312,-2.5312,-2.5312,-2.5312,-2.5312,-2.5312,-2.5312,-2.5312,-2.5312,-2.5312,-2.5312,-2.5312,-2.5312,-2.5312,-2.5312,-2.5312,-2.5312,-1.7025,-1.7647,-1.7176,-1.7101,-1.7261,-1.7323,-1.7377,-1.7315,-1.7662,-1.782,-1.8183,-1.9486,-2.0229,-2.0852,-2.2148,-2.2872,-2.3101,-2.3101,-2.3101,-2.3101,-2.3101,-2.3101,-2.3101,-2.3101,-2.3101,-2.3101,-2.3101,-2.3101,-2.3101,-2.3101,-2.3101,-2.3101,-2.3101,-2.3101,-2.3101,-2.3101,-2.3101,-2.3101,-2.3101,-2.3101,-2.3101,-2.3101,-2.3101,-2.3101,-2.3101,-2.3101,-2.3101,-2.3101,-2.3101,-2.3101,-2.3101,-2.3101,-2.3101,-2.3101,-2.3101,-2.3138,-2.3127,-2.3476,-2.4012,-2.4443,-2.4814,-2.527,-2.5528,-2.5539,-2.5803,-2.6529,-2.6733,-2.6623,-2.6397,-2.6476,-2.631,-2.5985,-2.5937,-2.6021,-2.5769,-2.5456,-2.5372,-2.536,-2.5348,-2.5312,-2.5312,-2.5312,-2.5312,-2.5312,-2.5312,-2.5312,-2.5312,-2.5312,-2.5312,-2.5312,-2.5312,-2.5312,-2.5312,-2.5312,-2.5312,-2.5312,-2.5312,-2.5312,-2.5312,-2.5312,-2.5312,-2.5312,-2.5312,-2.5312,-2.5312,-2.5312,-2.5312,-2.5312,-2.5312,-2.5312,-2.5312,-2.5312,-2.5312,-2.5312,-2.5312,-1.6135,-1.6327,-1.6586,-1.6841,-1.7066,-1.7239,-1.7286,-1.7286,-1.7359,-1.7873,-1.8667,-1.9691,-2.0647,-2.1418,-2.2457,-2.3101,-2.3101,-2.3101,-2.3101,-2.3101,-2.3101,-2.3101,-2.3101,-2.3101,-2.3101,-2.3101,-2.3101,-2.3101,-2.3101,-2.3101,-2.3101,-2.3101,-2.3101,-2.3101,-2.3101,-2.3101,-2.3101,-2.3101,-2.3101,-2.3101,-2.3101,-2.3101,-2.3101,-2.3101,-2.3101,-2.3101,-2.3101,-2.3101,-2.3101,-2.3101,-2.3101,-2.3101,-2.3101,-2.3091,-2.3081,-2.3144,-2.3096,-2.3285,-2.3433,-2.3629,-2.3908,-2.3941,-2.4058,-2.4145,-2.4568,-2.5466,-2.5867,-2.574,-2.5762,-2.5947,-2.5961,-2.5624,-2.5348,-2.5468,-2.554,-2.542,-2.5312,-2.5312,-2.5312,-2.5312,-2.5312,-2.5312,-2.5312,-2.5312,-2.5312,-2.5312,-2.5312,-2.5312,-2.5312,-2.5312,-2.5312,-2.5312,-2.5312,-2.5312,-2.5312,-2.5312,-2.5312,-2.5312,-2.5312,-2.5312,-2.5312,-2.5312,-2.5312,-2.5312,-2.5312,-2.5312,-2.5312,-2.5312,-2.5312,-2.5312,-2.5312,-2.5312,-2.5312,-2.5312,-2.5312,-1.592,-1.6157,-1.6487,-1.6683,-1.6831,-1.6958,-1.7005,-1.7099,-1.7559,-1.8334,-1.9247,-1.996,-2.0737,-2.1739,-2.2687,-2.3101,-2.3101,-2.3101,-2.3101,-2.3101,-2.3101,-2.3101,-2.3101,-2.3101,-2.3101,-2.3101,-2.3101,-2.3101,-2.3101,-2.3101,-2.3101,-2.3101,-2.3101,-2.3101,-2.3101,-2.3101,-2.3101,-2.3101,-2.3101,-2.3101,-2.3101,-2.3101,-2.3101,-2.3101,-2.3101,-2.3101,-2.3101,-2.3101,-2.3101,-2.3101,-2.3101,-2.2916,-2.2857,-2.2779,-2.2682,-2.2565,-2.2534,-2.2655,-2.2747,-2.2824,-2.2949,-2.281,-2.3149,-2.3461,-2.3634,-2.4502,-2.5242,-2.5203,-2.542,-2.5648,-2.5636,-2.5384,-2.536,-2.5408,-2.5408,-2.5348,-2.5312,-2.5312,-2.5312,-2.5312,-2.5312,-2.5312,-2.5312,-2.5312,-2.5312,-2.5312,-2.5312,-2.5312,-2.5312,-2.5312,-2.5312,-2.5312,-2.5312,-2.5312,-2.5312,-2.5312,-2.5312,-2.5312,-2.5312,-2.5312,-2.5312,-2.5312,-2.5312,-2.5312,-2.5312,-2.5312,-2.5312,-2.5312,-2.5312,-2.5312,-2.5312,-2.5312,-2.5312,-2.5312,-2.5312,-1.6069,-1.6487,-1.6541,-1.6541,-1.6588,-1.677,-1.6864,-1.7052,-1.8017,-1.9109,-1.9985,-2.0249,-2.0917,-2.1917,-2.2643,-2.2916,-2.3101,-2.3101,-2.3101,-2.3101,-2.3101,-2.3101,-2.3101,-2.3101,-2.3101,-2.3101,-2.3101,-2.3101,-2.3101,-2.3101,-2.3101,-2.3101,-2.3101,-2.3101,-2.3101,-2.3101,-2.3101,-2.3101,-2.3101,-2.3101,-2.3101,-2.3101,-2.3101,-2.3101,-2.3101,-2.3101,-2.3101,-2.3101,-2.3101,-2.3101,-2.3091,-2.2955,-2.274,-2.2685,-2.2441,-2.2271,-2.1801,-2.1637,-2.1481,-2.1685,-2.1691,-2.1863,-2.2472,-2.292,-2.3106,-2.3742,-2.4503,-2.4957,-2.5206,-2.5312,-2.5336,-2.5336,-2.5336,-2.5336,-2.5324,-2.5312,-2.5312,-2.5312,-2.5312,-2.5312,-2.5312,-2.5312,-2.5312,-2.5312,-2.5312,-2.5312,-2.5312,-2.5312,-2.5312,-2.5312,-2.5312,-2.5312,-2.5312,-2.5312,-2.5312,-2.5312,-2.5312,-2.5312,-2.5312,-2.5312,-2.5312,-2.5312,-2.5312,-2.5312,-2.5312,-2.5312,-2.5312,-2.5312,-2.5312,-2.5312,-2.5312,-2.5312,-2.5312,-2.5312,-2.5312,-1.5879,-1.5974,-1.617,-1.6265,-1.6407,-1.7333,-1.7807,-1.7986,-1.885,-1.9849,-2.0574,-2.0898,-2.157,-2.2828,-2.296,-2.3101,-2.3057,-2.3101,-2.3101,-2.3101,-2.3101,-2.3101,-2.3101,-2.3101,-2.3101,-2.3101,-2.3101,-2.3101,-2.3101,-2.3101,-2.3101,-2.3101,-2.3101,-2.3101,-2.3101,-2.3101,-2.3101,-2.3101,-2.3101,-2.3101,-2.3101,-2.3101,-2.3101,-2.3101,-2.3101,-2.3101,-2.3101,-2.3101,-2.3101,-2.3101,-2.3052,-2.2955,-2.273,-2.251,-2.2246,-2.1914,-2.1426,-2.1221,-2.1145,-2.1065,-2.1089,-2.1126,-2.1794,-2.2547,-2.2984,-2.3756,-2.4432,-2.4993,-2.5218,-2.5288,-2.5324,-2.5324,-2.5324,-2.5324,-2.5312,-2.5312,-2.5312,-2.5312,-2.5312,-2.5312,-2.5312,-2.5312,-2.5312,-2.5312,-2.5312,-2.5312,-2.5312,-2.5312,-2.5312,-2.5312,-2.5312,-2.5312,-2.5312,-2.5312,-2.5312,-2.5312,-2.5312,-2.5312,-2.5312,-2.5312,-2.5312,-2.5312,-2.5312,-2.5312,-2.5312,-2.5312,-2.5312,-2.5312,-2.5312,-2.5312,-2.5312,-2.5312,-2.5312,-2.5312,-2.5312]}]]